GFSMA_250_rhum_000.txt.gz
RH
82 76 82 68 55 63 52 49 31 27 52 69 71 64 56 57 54 45 37 34 34 31 29 28 30 33 29 21 20 22 22 19 30 65 90 100 100 100 100 100 100 100 100
84 88 75 57 50 65 64 39 23 43 68 70 62 62 58 54 53 54 50 46 42 39 40 40 39 38 34 32 32 27 23 25 23 17 23 71 98 96 100 100 100 100 100
91 100 71 64 55 69 48 20 46 72 72 70 66 59 51 47 41 35 32 30 26 22 20 21 24 32 37 37 39 36 34 36 29 25 26 22 33 67 83 88 91 100 100
100 84 73 72 65 60 24 23 53 57 67 66 45 28 20 18 16 16 16 16 16 16 15 14 14 13 12 12 14 18 27 33 34 35 37 34 27 24 27 36 72 93 100
100 85 87 76 66 28 17 43 37 38 37 28 24 22 21 20 20 19 19 18 18 18 17 16 17 17 17 16 14 12 12 12 13 16 27 36 38 38 37 32 28 31 52
100 89 84 76 25 17 36 35 19 22 24 25 23 24 23 22 21 21 23 24 23 22 20 20 18 16 16 15 16 16 17 16 14 14 13 12 14 23 37 40 40 40 38
95 78 70 26 16 30 28 21 23 25 27 26 27 25 25 25 25 26 26 27 25 25 22 20 18 17 15 15 14 14 13 15 16 17 17 16 16 16 15 15 19 26 37
82 54 20 19 30 32 26 27 28 26 27 27 28 26 25 23 24 25 24 25 24 24 22 20 18 16 15 14 14 15 15 16 16 17 17 16 16 16 16 16 15 14 14
32 20 28 38 30 28 31 30 30 28 28 26 25 25 24 29 33 33 29 27 24 20 17 16 15 13 12 12 13 14 15 16 17 17 17 16 16 16 16 16 17 17 17
36 43 43 32 29 30 32 31 29 30 30 28 26 25 28 29 28 28 31 30 29 24 19 18 17 16 16 17 18 19 20 19 19 18 19 18 17 17 16 16 16 16 15
47 38 31 29 28 29 31 32 33 35 33 31 30 29 26 24 22 17 21 24 22 19 18 18 22 25 28 28 26 26 26 26 25 24 22 21 20 19 18 17 17 17 16
34 32 30 30 32 33 31 33 37 37 34 33 32 28 28 26 25 23 21 18 16 19 18 25 32 36 38 40 39 39 36 33 32 31 29 26 25 24 24 25 27 26 27
31 32 34 36 34 32 32 36 37 34 33 30 29 28 25 26 24 20 18 15 19 18 22 28 37 40 38 39 42 44 43 44 43 42 41 39 35 30 27 25 22 20 19
33 35 38 35 34 32 35 38 35 32 31 30 31 28 27 25 23 19 19 21 17 20 22 26 32 37 37 38 40 38 34 33 29 27 26 24 23 22 22 20 19 18 17
35 40 41 36 34 39 38 36 33 32 34 33 29 27 26 25 22 23 21 18 19 20 29 35 36 35 30 26 25 23 21 20 19 19 18 16 14 12 11 10 10 9 8
35 34 33 37 43 44 40 34 36 36 34 31 27 26 26 25 26 21 22 24 25 29 27 29 23 17 16 15 14 14 14 13 12 9 8 7 6 6 5 4 4 4 4
38 40 38 38 39 38 39 42 38 35 31 28 26 27 28 27 21 24 25 31 35 28 21 23 19 18 16 16 12 7 5 3 3 3 2 2 2 2 2 3 3 3 3
37 38 42 44 41 44 47 43 37 32 30 27 30 31 27 21 26 26 35 36 26 25 20 15 16 16 12 7 5 4 4 3 2 2 2 2 2 2 2 2 3 3 2
44 46 48 47 49 47 46 40 35 31 31 33 32 24 22 27 28 37 33 28 27 23 16 14 10 8 6 5 5 4 3 3 2 2 2 2 2 2 2 2 2 2 2
49 50 52 51 49 47 41 37 32 35 33 30 22 27 28 32 38 30 31 29 20 16 13 8 7 5 5 5 4 3 3 3 2 2 2 2 2 2 2 2 2 2 2
52 51 49 46 44 41 38 38 38 32 28 23 32 29 37 36 35 35 26 20 18 12 8 6 6 5 4 4 3 3 3 2 2 2 2 2 2 2 2 2 2 2 2
50 48 46 46 44 43 44 37 32 26 27 34 30 41 36 42 36 27 22 18 13 8 5 6 5 4 4 4 3 3 3 2 2 2 2 2 1 1 2 2 2 2 2
50 49 48 47 49 44 36 31 25 32 30 34 39 40 45 37 27 23 18 12 9 6 6 5 5 5 4 4 3 3 2 2 2 2 2 2 2 2 2 2 2 2 2
50 47 52 50 41 36 28 28 33 30 39 41 50 45 40 31 24 14 9 10 8 7 6 5 5 4 4 3 2 3 3 3 3 3 2 2 3 2 3 3 3 4 3
54 57 46 41 32 28 31 31 35 46 51 53 48 47 35 26 15 10 10 8 7 6 5 5 4 4 3 3 3 3 3 3 3 4 4 5 4 3 4 4 3 4 4
54 46 36 30 30 35 35 47 49 52 51 49 51 39 23 14 9 10 8 7 5 5 5 4 4 3 4 4 4 4 4 4 5 6 7 6 6 6 5 6 4 5 5

GFSMA_250_rhum_003.txt.gz
RH
94 88 90 100 96 88 82 71 65 64 63 54 43 18 37 55 54 50 45 41 36 31 28 27 25 22 18 16 14 16 21 31 38 39 36 28 21 19 38 77 92 95 100
100 87 81 81 89 97 85 73 67 72 65 54 25 26 46 52 42 32 22 16 14 14 14 15 15 16 16 16 16 15 14 13 12 16 26 34 38 33 25 23 26 44 92
100 94 94 93 96 98 95 73 81 80 71 48 19 30 34 37 23 21 20 21 20 19 19 18 18 18 18 19 19 18 19 19 18 17 16 14 17 23 32 36 30 24 22
61 73 91 87 86 100 100 92 97 84 56 23 23 18 16 19 21 21 21 23 24 23 23 23 23 23 23 22 20 20 19 19 17 16 16 15 14 13 13 20 29 38 36
53 61 90 95 100 100 100 100 91 66 26 26 21 18 17 24 23 25 25 26 25 25 24 24 24 23 23 24 24 21 19 17 16 14 14 14 13 13 12 12 12 16 26
99 96 100 100 100 100 100 99 82 31 28 24 22 21 21 27 25 28 28 26 24 24 24 24 24 24 24 23 22 20 17 15 14 13 13 13 13 12 12 12 12 12 12
56 78 100 100 100 100 100 81 35 28 32 25 24 22 24 26 26 28 28 26 26 25 26 28 28 26 23 21 20 19 16 14 12 11 10 11 11 11 11 12 12 13 12
96 100 100 100 100 97 65 25 26 33 27 27 25 27 27 29 30 32 32 28 26 27 28 30 29 27 22 20 20 18 15 14 13 12 12 12 12 12 12 12 12 12 13
100 100 100 86 60 36 29 34 32 30 27 27 29 31 35 40 40 40 36 33 32 31 29 25 25 24 21 19 18 14 14 16 16 16 17 17 17 17 16 16 16 16 16
94 91 59 33 32 38 40 39 32 29 26 26 28 35 36 39 44 42 42 40 36 36 36 32 29 28 25 23 20 20 18 20 19 17 17 17 18 20 21 20 20 19 18
78 46 30 41 44 44 36 31 29 28 28 31 33 32 31 36 39 38 36 36 36 36 30 28 29 27 25 22 21 20 21 21 23 25 27 29 29 25 22 20 19 18 18
59 31 36 43 37 34 33 32 30 32 35 36 35 33 33 38 37 34 31 33 32 29 29 29 30 27 26 24 24 24 27 32 34 32 30 31 31 30 28 27 28 26 23
51 36 32 34 35 34 34 33 33 36 39 38 35 36 41 40 36 35 33 28 24 24 24 24 24 26 22 23 23 28 35 36 35 35 34 31 28 26 26 26 26 25 24
55 43 36 35 36 36 34 34 36 40 36 32 34 34 33 28 32 35 31 23 22 24 24 24 24 18 19 25 36 39 33 30 27 25 23 21 21 24 26 23 19 17 17
60 48 46 41 37 36 38 38 39 40 39 37 36 33 32 32 35 33 26 24 23 24 31 21 18 21 29 35 33 26 21 21 22 22 22 21 18 15 12 11 10 9 9
63 53 48 45 43 40 38 37 36 37 36 36 36 37 38 36 34 29 27 27 28 27 18 20 25 29 26 20 17 18 21 20 17 10 7 5 4 4 4 3 3 3 3
70 58 51 48 46 44 42 42 42 43 41 41 43 43 38 35 33 32 31 31 22 19 22 36 36 30 22 20 21 18 10 5 4 4 4 4 3 3 3 3 3 2 2
80 72 61 54 49 48 48 48 50 47 43 44 42 38 38 37 37 32 30 21 25 25 30 30 27 24 22 22 15 6 6 4 4 4 4 3 3 3 2 2 2 2 2
75 73 69 62 55 53 56 56 51 48 48 45 41 44 43 39 34 28 25 28 28 38 30 19 21 23 20 11 6 6 5 4 3 3 3 3 2 2 2 2 2 2 2
80 80 74 68 65 64 64 62 57 55 49 46 46 43 37 34 26 30 29 42 42 31 22 19 18 14 8 6 5 5 4 3 3 3 2 2 2 2 2 2 2 2 2
84 81 83 82 76 72 69 64 58 51 48 48 44 37 33 28 32 35 44 38 27 22 16 16 12 7 6 6 4 4 4 4 3 3 2 2 2 2 2 2 2 2 2
86 95 95 83 73 69 65 55 50 49 51 44 40 29 34 33 45 44 37 32 24 16 16 8 6 5 5 4 4 4 4 4 3 2 2 2 2 2 2 2 2 2 2
99 97 84 76 67 60 54 54 54 51 43 33 33 36 44 46 42 40 36 24 19 11 6 5 6 5 4 5 5 4 4 3 3 4 2 2 3 3 4 3 2 2 2
95 84 73 67 60 60 60 53 48 40 31 37 43 52 44 43 43 32 24 18 12 7 7 6 4 4 5 5 4 4 3 3 4 5 4 3 4 4 5 5 5 5 5
81 72 65 66 66 56 49 47 33 35 40 56 50 43 43 43 32 25 18 12 8 7 5 4 5 5 4 4 4 4 4 4 3 7 7 9 9 8 8 7 5 5 6
70 70 70 59 55 53 36 35 37 53 55 52 45 43 39 28 23 16 11 8 7 5 4 5 5 4 4 4 5 5 5 4 5 8 10 11 14 11 10 9 7 6 6

GFSMA_250_rhum_006.txt.gz
RH
91 92 90 88 81 77 69 85 97 80 82 81 86 80 79 70 65 51 26 38 46 26 18 17 19 20 19 20 20 19 19 18 20 22 22 21 18 18 17 20 34 36 28
79 78 79 81 77 76 70 75 90 82 75 88 86 76 88 85 68 43 24 29 26 19 23 23 23 22 23 23 23 22 23 22 22 22 22 22 22 20 18 17 17 17 26
72 68 74 74 66 67 70 79 87 80 83 80 76 96 100 88 64 26 22 16 17 22 23 24 22 22 22 22 22 23 23 23 23 22 22 22 21 19 17 15 14 14 14
41 40 49 59 61 61 64 68 80 79 94 100 100 100 96 87 40 28 19 18 20 20 22 23 23 23 23 23 24 24 24 25 24 22 21 21 21 20 18 16 15 15 14
26 26 39 49 67 82 80 80 87 99 99 100 100 100 97 61 28 24 22 21 21 22 25 23 24 26 26 25 24 23 22 24 24 24 23 20 19 18 17 16 14 14 13
21 25 51 70 92 100 100 100 100 100 100 100 100 98 68 32 27 24 26 23 24 27 27 27 26 29 28 27 27 27 27 24 24 23 22 21 19 17 16 15 13 12 12
33 28 24 25 25 38 66 85 86 100 100 98 96 67 32 30 30 28 29 26 29 28 28 29 28 31 32 32 31 30 30 29 26 23 21 21 21 20 17 13 13 12 13
42 39 28 31 67 98 100 100 100 100 98 84 48 28 29 30 28 33 31 27 26 27 28 28 29 34 33 32 31 30 30 27 24 23 22 21 21 19 15 15 13 12 13
44 45 30 38 72 90 100 100 83 71 45 35 32 39 35 30 29 28 26 25 25 27 26 27 32 34 32 30 31 28 24 23 22 22 22 21 18 16 18 17 17 17 17
40 36 28 38 42 81 99 66 40 30 33 50 48 38 31 28 31 35 39 34 33 30 30 35 36 33 30 32 29 22 21 20 20 20 19 18 18 18 18 19 24 26 26
39 29 26 28 35 62 61 38 34 45 44 34 34 33 31 31 34 36 40 43 39 38 38 36 35 34 33 32 31 28 26 25 24 23 20 18 19 20 22 26 27 28 31
44 30 30 27 33 53 52 33 36 40 39 37 37 37 39 40 39 38 38 38 37 39 39 40 43 39 36 36 32 30 29 28 25 21 21 19 19 23 25 24 24 25 25
40 33 34 29 33 48 55 40 38 35 39 42 43 43 43 42 41 39 38 35 33 35 38 41 40 40 39 37 37 34 28 23 21 23 20 25 26 26 27 28 27 23 19
38 35 34 30 34 52 61 47 42 44 44 44 44 44 41 38 36 35 36 38 40 37 37 35 35 32 35 30 27 24 23 26 22 25 29 31 31 33 32 28 25 22 17
39 37 34 30 32 59 64 56 50 48 49 52 50 44 42 43 44 45 45 42 40 37 39 38 41 37 30 25 24 24 22 27 24 23 24 27 27 26 21 14 8 6 5
45 38 33 30 33 55 62 64 59 56 54 51 50 48 49 49 50 50 50 47 47 42 45 45 35 27 22 22 24 26 21 21 26 25 21 16 11 6 5 5 6 4 4
51 41 31 31 39 42 54 66 77 76 68 65 60 55 53 54 55 57 57 51 49 50 43 39 29 25 27 29 24 19 23 23 20 12 6 5 5 4 5 5 4 4 4
53 41 33 34 38 37 45 54 58 69 70 61 58 61 62 60 64 58 51 53 51 38 32 24 28 40 42 27 26 28 22 14 6 5 5 5 4 4 4 4 3 4 3
50 42 39 35 35 40 47 52 57 62 61 61 69 68 69 64 59 57 57 43 37 28 25 26 45 36 30 29 26 20 9 6 5 4 4 3 4 4 4 4 3 3 3
56 52 42 41 43 42 57 59 64 59 65 74 74 70 67 61 61 52 41 32 27 28 43 39 29 28 28 24 15 8 6 4 3 3 4 3 4 4 3 3 3 2 2
59 53 52 52 48 61 64 68 58 65 80 85 76 71 66 63 50 39 28 30 42 48 32 25 25 27 23 10 7 5 3 3 3 4 4 3 4 3 3 2 3 3 2
69 65 59 65 69 68 71 62 65 89 93 80 75 73 63 54 34 31 42 53 42 32 26 24 25 14 8 6 4 3 4 4 4 4 4 3 3 3 4 3 3 3 3
69 65 76 80 76 74 66 73 98 93 81 81 73 71 50 31 38 52 45 41 34 25 26 16 9 7 6 4 4 4 5 4 4 4 3 3 4 4 5 4 5 4 4
73 86 86 77 74 68 86 94 88 87 82 80 73 35 32 48 48 43 40 31 28 23 14 8 7 4 3 4 5 5 4 4 3 5 5 4 4 5 5 7 7 6 6
98 86 79 70 79 90 88 91 90 82 87 54 33 40 53 51 48 35 29 27 25 12 7 6 4 4 5 5 4 4 4 4 4 5 6 8 9 10 10 10 10 9 8
85 72 73 83 85 87 94 85 88 78 37 40 59 59 51 41 33 29 28 23 11 8 5 3 4 5 5 4 4 5 5 5 6 6 10 11 12 11 11 12 11 10 9

GFSMA_250_rhum_009.txt.gz
RH
83 100 100 100 100 100 100 87 85 79 75 73 71 70 67 63 78 81 76 73 80 71 64 38 33 29 17 19 21 21 20 18 20 21 21 20 20 21 21 22 22 21 20
68 71 86 78 83 80 75 74 67 67 71 68 66 62 59 77 79 78 75 95 100 96 72 32 28 22 22 23 24 22 22 22 21 22 24 25 22 23 25 24 23 23 22
56 71 72 65 64 62 62 55 58 58 56 58 63 65 68 68 69 96 100 100 100 91 65 28 20 22 23 24 24 25 24 24 25 26 27 28 28 28 27 27 26 26 26
22 23 28 33 42 47 55 47 44 44 46 53 56 69 67 76 97 100 100 100 100 78 49 27 21 23 25 27 27 27 27 27 28 28 28 29 30 31 30 27 26 25 26
21 20 22 26 27 28 22 19 30 56 79 88 97 100 100 100 100 100 100 100 89 67 31 24 24 28 27 27 28 25 25 26 28 29 30 30 31 31 31 30 28 27 26
20 21 25 33 31 17 23 28 28 44 47 72 76 100 100 100 100 99 90 80 74 36 34 26 28 28 29 27 24 24 24 26 28 32 32 31 30 27 26 26 24 23 23
24 27 31 31 19 21 33 30 22 22 34 74 89 93 92 92 93 87 79 47 34 32 32 31 30 30 27 25 24 25 26 28 28 31 33 31 26 27 28 25 21 20 19
39 32 35 27 22 25 36 38 27 28 48 69 76 76 86 78 71 48 37 38 40 37 34 30 28 27 25 27 29 30 30 29 29 28 28 26 25 26 25 23 21 21 20
42 36 47 39 27 26 26 36 27 28 35 55 68 74 54 34 34 48 49 46 41 35 32 28 27 28 31 30 30 30 29 28 28 28 29 30 30 28 26 24 22 21 20
59 58 56 52 39 32 36 30 26 24 24 49 64 48 35 41 47 39 35 34 33 32 30 32 33 31 28 26 26 27 28 26 27 29 30 29 26 24 23 22 23 21 18
67 72 60 58 52 51 45 38 26 22 24 50 62 44 33 31 35 38 41 44 43 42 43 42 41 37 34 31 29 29 32 36 36 35 30 26 26 23 22 20 16 14 16
82 83 77 72 70 64 51 42 27 24 26 42 54 48 39 36 33 32 36 42 46 49 42 37 39 40 43 43 43 45 44 44 39 34 34 31 27 26 20 16 17 24 22
74 74 67 67 81 72 51 46 30 29 29 36 53 54 49 43 40 38 38 41 43 47 46 48 51 49 49 52 54 56 50 45 44 43 40 34 25 18 17 22 20 25 24
80 87 91 74 92 85 59 51 32 30 31 37 43 53 54 53 52 49 48 48 50 52 55 56 52 52 53 59 54 51 50 48 46 40 30 20 17 25 24 33 35 35 33
90 92 90 78 97 90 70 54 37 33 33 39 38 48 55 55 56 56 57 62 63 60 57 61 60 60 54 51 51 46 41 34 25 19 18 25 23 31 33 35 33 26 20
90 85 83 79 87 82 68 55 42 37 36 34 36 39 42 50 47 42 50 53 52 50 52 60 58 55 50 46 36 27 20 17 20 21 20 25 28 30 28 18 12 9 7
84 72 68 78 71 66 65 60 51 40 38 34 35 35 36 36 34 43 51 50 54 54 58 68 60 51 39 28 22 18 22 20 19 22 26 26 19 12 6 5 6 5 4
83 77 72 72 72 75 76 71 57 47 41 38 34 33 33 30 39 45 51 52 58 66 57 51 59 43 29 22 23 23 20 20 23 23 15 9 6 5 4 4 4 3 3
84 71 68 67 61 62 64 59 55 53 48 41 38 38 33 38 42 51 51 60 64 62 57 49 39 26 26 31 24 22 22 26 17 8 6 6 4 3 3 4 4 4 4
72 71 67 58 45 43 47 49 50 51 47 45 43 41 42 47 54 53 64 65 67 66 51 34 26 28 29 23 22 24 25 13 7 5 4 3 3 4 4 3 3 3 3
59 59 58 50 40 39 44 49 52 52 54 52 52 46 53 56 60 69 67 70 66 58 32 26 32 26 22 24 27 21 8 5 3 3 4 4 4 3 3 3 3 3 3
78 69 51 44 39 39 42 43 56 56 62 66 61 60 58 64 69 68 70 64 50 30 30 31 22 21 26 24 14 7 4 3 4 3 5 3 3 3 4 4 4 4 3
98 88 58 42 38 40 41 46 54 67 76 69 60 63 70 68 71 64 64 39 33 40 30 21 23 26 21 9 6 4 4 4 4 3 4 3 4 4 4 4 4 4 4
100 86 52 39 37 41 43 51 72 85 68 66 75 71 74 65 68 55 34 44 44 32 26 28 24 14 8 5 4 5 4 3 3 3 6 4 5 4 5 5 5 6 7
61 54 44 39 44 49 63 77 75 68 79 75 79 68 68 62 38 43 54 42 34 27 30 20 11 7 4 4 5 4 3 4 4 3 6 6 6 6 7 8 8 9 10
59 51 52 56 58 71 70 70 75 74 78 72 70 68 43 41 56 51 38 30 31 28 17 10 6 4 5 5 4 4 5 5 5 5 8 9 10 13 8 15 12 12 11

GFSMA_250_rhum_012.txt.gz
RH
23 23 25 36 70 78 92 84 97 99 100 100 94 93 78 65 57 61 63 62 57 67 76 98 93 100 100 100 70 39 25 21 20 22 23 22 23 22 24 27 26 25 25
20 19 20 22 25 30 33 60 56 73 80 81 77 72 63 52 47 50 68 68 78 77 61 97 97 100 100 98 66 35 23 23 22 23 23 24 23 24 25 25 26 26 26
24 21 24 29 30 35 49 49 62 68 58 53 54 57 55 40 46 51 52 70 93 97 99 100 100 100 100 88 63 34 24 25 29 28 28 28 27 26 26 27 28 28 28
19 19 21 25 25 24 22 23 24 24 25 25 28 30 30 34 66 67 68 93 100 100 100 100 100 100 93 76 53 32 24 26 30 33 33 34 31 31 33 35 34 32 32
16 20 19 19 21 21 22 22 21 27 31 28 19 20 21 28 44 66 83 100 100 100 98 96 91 79 76 67 47 33 25 27 32 33 34 34 32 32 33 32 34 34 34
26 24 22 23 20 19 20 22 21 28 30 19 15 24 20 21 22 40 60 67 64 66 81 83 80 67 44 45 42 34 28 29 31 35 32 29 28 26 28 28 28 30 29
33 35 31 24 23 19 19 19 22 30 21 18 25 32 28 25 32 44 57 69 77 70 64 52 38 36 43 49 38 34 34 32 32 29 28 29 30 30 30 28 27 27 27
31 43 45 34 24 21 23 28 32 35 27 21 20 26 25 23 20 24 40 51 47 36 32 39 43 45 46 43 41 37 34 33 32 32 33 34 32 30 28 28 27 27 27
48 36 35 40 45 36 34 48 45 40 38 28 22 19 22 22 22 22 31 37 39 32 38 41 40 38 37 36 36 36 37 37 35 34 33 31 30 28 26 26 28 30 31
25 32 42 45 46 38 38 55 52 50 52 48 35 31 25 20 19 21 24 38 40 34 32 32 33 33 33 34 34 31 31 31 30 29 30 31 34 35 35 38 41 40 38
27 26 28 32 42 53 56 73 75 76 68 62 54 49 40 28 22 24 29 29 40 41 38 35 33 33 31 30 30 32 33 35 38 40 40 38 36 34 32 29 24 22 22
30 28 28 33 37 44 60 65 75 82 72 68 68 64 54 46 31 29 30 38 44 48 42 43 44 46 46 47 48 51 51 53 52 51 50 45 42 36 31 27 25 21 18
31 30 30 32 35 37 44 60 74 86 86 80 80 81 68 53 40 32 29 35 48 47 50 53 46 44 45 46 50 54 54 57 55 51 45 39 31 26 21 19 15 14 20
44 38 34 35 38 41 41 47 67 82 83 75 70 86 80 69 56 38 34 31 29 30 42 44 42 35 33 38 44 50 52 50 42 40 36 31 25 19 15 18 23 19 21
53 57 56 54 58 49 56 70 89 100 99 86 71 87 98 77 61 46 39 36 33 35 41 41 34 30 30 36 46 50 47 41 36 31 23 17 15 19 24 22 25 25 26
62 52 54 66 77 84 95 91 96 100 98 94 90 90 98 87 64 51 42 38 34 30 31 32 30 26 30 43 44 40 37 32 26 19 15 18 20 21 25 26 28 28 24
56 47 49 62 74 87 92 91 100 97 89 83 77 78 77 61 58 54 46 42 38 32 30 31 26 22 33 36 37 32 26 21 15 18 19 19 23 24 23 20 15 10 6
66 58 70 81 95 99 97 93 96 86 74 56 55 57 57 57 58 52 44 41 36 34 29 23 23 39 36 36 30 26 19 16 19 20 24 22 21 15 9 6 5 4 3
73 80 96 97 92 90 86 83 79 74 70 66 52 49 45 42 44 44 40 40 38 34 25 22 34 36 37 30 21 16 19 21 24 23 22 18 11 6 4 3 3 3 3
75 80 82 83 85 93 91 81 66 63 59 54 50 44 32 32 34 37 37 36 31 28 32 36 36 36 28 19 18 21 23 26 28 18 11 7 5 3 3 4 4 4 3
77 82 90 89 94 92 97 94 82 68 49 44 40 36 35 35 34 34 34 33 43 46 44 43 36 28 18 22 19 26 29 25 16 7 6 3 4 4 4 3 3 2 2
91 84 87 88 93 99 95 92 88 77 59 42 37 35 36 33 33 33 41 47 46 46 42 30 20 25 24 22 27 28 20 12 7 3 4 4 4 3 3 3 3 3 3
98 96 92 95 89 86 92 92 85 59 48 41 36 36 36 36 41 45 53 52 49 39 25 23 24 18 24 28 27 19 10 7 4 4 4 3 3 3 4 3 4 4 4
100 97 90 85 90 100 85 67 68 62 56 49 44 39 42 49 53 52 55 47 36 28 30 24 22 26 28 19 13 8 6 5 4 3 3 5 3 3 5 6 8 7 8
91 92 99 100 88 79 81 79 80 71 60 43 44 53 53 53 44 35 43 37 33 39 29 24 28 24 16 9 6 5 5 4 4 3 3 7 6 7 8 7 10 10 11
94 98 87 82 93 91 94 96 77 56 54 58 58 52 42 38 36 34 32 48 45 29 28 32 20 12 7 4 4 4 3 4 4 4 3 7 6 9 7 7 10 12 11

GFSMA_250_rhum_018.txt.gz
RH
15 13 12 11 12 12 12 13 15 15 16 17 16 15 17 18 18 18 20 24 24 27 32 36 52 51 52 52 47 39 31 40 66 88 90 80 97 100 100 86 42 29 24
15 13 11 10 13 13 14 15 13 12 13 16 18 20 21 20 18 19 23 26 27 27 32 32 27 25 27 26 26 37 58 77 86 89 98 100 100 100 100 96 47 34 29
22 19 14 16 18 16 13 16 20 20 17 16 15 17 21 23 21 19 20 23 22 21 21 25 32 27 28 20 19 24 25 44 82 100 100 100 100 100 94 100 66 34 31
27 32 30 24 22 19 19 24 23 22 21 21 22 21 21 20 23 20 22 22 21 20 21 30 30 21 27 24 25 32 43 68 92 88 93 98 99 93 89 94 88 44 33
47 42 41 33 30 29 24 22 22 22 23 24 26 25 22 21 24 23 22 22 22 22 20 27 36 23 33 33 30 34 33 46 62 76 76 83 87 86 88 85 86 71 43
39 46 42 43 43 41 35 27 24 26 26 25 28 28 28 27 25 26 26 26 27 24 22 24 32 23 32 38 31 31 29 42 54 51 48 47 53 55 52 50 57 58 48
43 51 58 51 40 37 37 35 31 28 26 23 26 31 39 45 47 41 41 45 42 31 26 31 39 34 26 29 31 29 27 29 36 40 38 32 31 33 35 38 44 45 46
93 93 80 60 52 46 37 35 34 32 30 26 21 20 25 35 44 50 52 49 42 35 34 38 44 44 39 34 32 42 33 26 25 36 44 43 39 40 40 41 42 42 40
92 72 55 65 66 54 45 39 36 40 42 35 32 31 33 40 45 48 54 64 63 59 54 54 61 59 54 47 46 41 48 38 28 29 35 45 51 50 44 41 40 39 38
97 100 83 68 76 63 52 39 35 34 30 30 31 32 30 28 29 44 59 75 85 77 61 49 74 82 74 73 66 62 57 54 53 42 34 38 44 49 54 56 54 51 49
100 100 80 70 73 71 55 51 46 36 33 35 33 33 33 31 33 32 36 40 47 58 69 70 67 84 90 92 92 85 78 71 68 68 64 47 38 38 42 45 43 43 42
71 89 93 80 76 77 70 63 57 40 42 43 36 34 33 32 32 33 33 35 42 42 44 58 77 90 98 100 99 98 98 95 81 70 67 65 54 41 36 33 32 31 31
83 73 75 84 83 80 78 79 71 58 63 60 53 54 49 43 44 48 46 46 51 59 59 56 51 51 60 73 78 84 87 84 79 72 65 59 59 55 46 37 31 26 24
98 100 87 100 100 90 72 71 77 62 65 70 70 59 56 53 42 40 42 55 86 95 94 89 80 70 62 60 63 71 76 75 77 80 74 60 54 49 47 40 36 29 26
100 100 99 87 100 100 89 72 75 69 67 79 81 66 66 63 52 51 53 58 60 74 90 89 88 83 80 72 63 61 61 58 56 52 42 37 31 29 27 24 25 23 22
100 100 100 97 100 93 90 86 77 76 79 98 88 76 71 62 56 61 58 59 64 65 64 66 69 66 62 58 58 60 58 53 47 38 28 27 24 22 22 22 21 22 20
100 100 100 100 97 91 94 90 79 81 95 93 85 78 69 65 62 58 63 71 72 72 67 62 63 69 67 63 60 51 45 42 37 33 28 27 26 22 21 20 19 18 18
100 100 100 100 100 100 92 100 86 94 100 98 72 77 82 74 72 69 69 73 70 71 64 66 65 65 62 57 46 40 36 30 28 28 27 25 23 23 25 27 26 24 21
100 100 100 100 99 95 95 86 96 100 99 84 81 82 79 82 79 78 75 73 74 72 66 56 50 52 56 56 56 45 38 35 30 24 22 25 25 22 19 18 17 18 19
100 98 100 100 100 100 100 100 100 100 88 88 92 76 78 82 83 81 76 73 62 59 58 58 58 58 47 44 36 35 37 29 27 22 21 21 20 22 22 23 22 19 16
89 99 100 100 100 100 100 100 100 100 92 93 72 84 94 84 71 63 62 66 65 63 59 55 49 42 37 32 27 24 22 23 31 28 29 28 23 19 13 10 8 6 5
96 100 100 100 100 100 100 100 100 88 84 73 76 85 70 67 64 68 66 65 64 57 44 38 35 29 28 27 31 33 32 31 29 20 16 14 10 7 5 5 4 3 3
100 100 100 100 100 100 98 99 94 81 75 65 86 78 76 75 70 70 68 55 46 37 30 31 30 32 36 34 33 32 26 21 18 12 7 8 6 4 3 3 3 3 3
100 100 100 100 100 99 83 70 64 57 64 93 93 78 76 77 75 61 48 42 42 39 41 50 49 48 42 32 26 24 17 13 9 7 4 4 4 4 3 2 2 3 4
100 100 100 100 98 52 52 59 72 89 98 100 76 78 80 72 56 48 45 48 66 69 62 53 45 38 31 25 21 16 10 7 5 4 3 4 3 4 4 4 4 4 4
100 100 90 82 74 77 79 94 100 100 96 86 83 80 58 52 51 52 68 72 71 63 51 43 35 30 24 18 11 8 6 4 4 5 4 6 4 4 4 4 3 4 4

GFSMA_250_rhum_021.txt.gz
RH
31 30 27 25 25 25 24 23 19 15 12 10 14 15 15 13 13 12 15 18 19 20 21 18 18 23 25 24 24 23 22 24 25 22 23 30 65 90 100 100 100 100 100
30 27 26 26 25 24 23 20 18 15 12 12 12 12 14 18 18 17 16 15 16 20 24 25 21 21 22 22 20 21 28 23 20 21 20 25 31 63 92 100 100 100 100
35 33 32 32 31 30 30 23 21 18 14 17 20 18 17 17 17 17 18 18 20 21 22 24 25 23 23 22 21 21 29 29 20 26 27 28 45 82 90 100 100 100 100
45 42 35 36 40 35 33 30 25 21 23 22 22 22 23 23 21 19 20 19 20 22 23 23 27 27 24 24 24 22 21 30 23 30 34 23 24 48 85 99 100 100 100
61 58 57 49 45 43 41 38 32 31 29 25 25 26 26 23 23 23 24 22 21 22 22 26 29 30 28 27 28 24 22 27 26 27 29 26 22 33 49 57 78 90 98
87 80 83 80 56 44 44 40 48 43 36 32 33 34 33 31 25 25 26 25 26 28 34 42 51 49 50 52 48 36 30 31 33 30 28 29 27 24 30 41 48 46 50
79 76 67 55 69 73 70 76 67 56 49 50 44 38 34 32 32 30 28 27 25 26 31 35 41 48 53 58 52 43 39 43 43 43 40 36 34 35 26 22 30 40 35
90 91 96 90 87 89 93 86 66 53 52 52 50 45 38 36 36 34 32 33 36 35 32 33 41 48 54 68 77 67 61 65 61 64 59 51 46 44 50 35 26 28 40
82 87 99 88 91 90 75 65 63 64 65 55 48 39 33 32 33 32 30 31 32 35 33 30 28 32 42 54 67 78 84 76 74 89 90 76 66 60 58 62 50 36 37
85 99 99 100 86 80 86 84 74 76 63 57 51 51 42 38 34 39 36 34 33 34 34 36 42 44 39 39 43 52 67 77 76 63 70 87 90 88 83 74 69 58 50
83 80 100 100 100 98 89 81 80 69 71 73 68 58 48 52 44 46 48 50 50 46 43 41 40 39 40 43 45 49 55 62 71 79 85 92 95 93 90 92 89 81 70
95 92 100 100 100 99 87 81 75 74 72 76 83 71 55 62 51 57 58 59 54 46 45 42 38 40 47 54 56 55 56 60 60 60 63 74 75 76 76 78 85 90 92
91 88 96 99 100 91 90 99 90 96 96 92 91 84 78 67 63 59 65 62 72 63 58 54 46 43 44 46 48 52 56 60 60 58 55 51 50 50 51 58 63 65 69
78 92 97 100 100 100 100 100 100 99 97 99 97 93 89 71 73 61 74 77 69 83 86 73 70 62 56 56 59 59 56 53 50 48 43 41 40 44 50 52 53 47 43
95 82 72 80 87 100 100 100 100 100 100 100 96 99 90 72 69 74 88 82 94 85 92 89 82 79 74 68 64 60 58 56 58 58 50 48 48 38 36 38 39 42 42
91 82 75 70 73 88 100 100 100 100 100 100 100 90 87 72 72 77 86 91 90 90 76 85 91 91 82 74 68 63 64 68 68 61 53 47 44 40 36 35 34 30 29
99 84 76 66 88 100 100 100 100 100 100 100 95 89 97 83 84 91 84 87 91 81 74 83 82 78 74 72 71 70 62 60 58 55 53 48 50 44 43 43 38 34 31
99 97 93 86 95 100 100 100 100 100 100 100 90 99 94 87 82 84 88 86 90 75 74 74 68 66 68 68 66 68 66 59 47 41 35 33 33 31 32 31 31 30 28
47 79 91 98 100 100 100 100 100 100 100 100 99 77 86 86 86 90 85 87 83 76 64 64 72 67 66 61 58 51 44 37 31 25 22 23 25 26 30 28 24 18 14
45 51 62 86 100 100 100 100 100 100 100 100 81 98 100 90 84 69 92 87 74 68 70 65 62 64 54 43 36 32 32 29 32 36 37 40 35 30 26 23 21 20 17
51 51 58 87 99 100 100 100 100 100 99 100 100 100 70 69 88 87 77 71 68 74 73 64 60 48 34 34 33 33 41 48 48 38 32 31 21 19 15 12 10 8 7
32 53 72 88 99 100 100 100 100 100 100 73 81 87 88 79 80 76 67 63 84 79 62 59 45 38 39 44 49 50 44 36 35 30 24 22 14 12 7 6 5 4 4
57 75 93 100 100 100 100 100 100 97 78 91 80 76 82 63 70 81 75 84 75 66 62 47 43 49 54 49 43 38 35 33 31 21 15 17 9 7 5 3 2 2 3
93 98 100 100 100 100 100 100 100 100 96 90 61 57 68 79 81 82 87 78 80 62 48 57 56 52 42 38 32 32 29 26 21 14 7 9 6 4 4 4 3 2 3
100 100 100 100 90 78 100 100 97 89 69 55 60 70 98 99 92 98 80 67 62 62 68 59 51 42 37 31 27 25 22 19 16 11 4 5 4 4 5 4 4 4 4
100 100 99 100 100 100 68 71 76 75 78 88 89 94 100 100 96 71 67 68 73 67 54 47 38 33 30 26 23 18 16 14 8 6 4 6 4 5 6 4 4 4 4

GFSMA_250_rhum_024.txt.gz
RH
49 46 44 42 41 38 34 30 27 24 24 27 26 25 25 21 20 17 14 12 12 12 14 16 17 16 17 18 20 24 26 23 22 21 20 21 26 20 19 20 22 35 90
60 55 51 47 42 33 32 32 29 30 30 31 32 31 30 25 23 20 15 16 19 18 18 20 22 20 20 20 21 23 24 23 24 23 21 20 23 28 22 26 28 33 59
64 61 54 48 46 44 40 42 38 41 37 36 36 34 32 30 30 25 23 21 19 22 22 19 19 22 22 22 23 23 23 23 26 25 24 22 21 26 26 27 30 24 39
71 66 60 66 69 72 64 62 62 62 58 48 42 37 34 31 29 29 29 29 28 28 28 26 22 23 24 24 27 32 31 26 27 27 27 26 26 24 30 26 30 26 23
71 70 67 58 43 53 70 74 67 64 54 49 52 52 50 46 41 39 38 36 33 30 28 27 27 26 25 22 22 24 32 38 45 43 38 40 41 32 28 33 28 29 26
75 72 59 53 44 42 65 72 72 76 72 70 76 66 55 52 50 47 43 40 35 30 29 29 29 29 27 25 23 24 27 31 39 49 52 50 48 43 42 38 39 38 33
75 78 64 49 47 57 61 69 82 88 79 69 60 61 52 58 58 55 50 48 47 40 30 28 28 28 29 32 34 35 33 34 42 52 69 74 70 57 47 46 50 49 45
75 70 83 77 62 56 61 62 74 79 78 64 59 52 56 64 66 57 47 48 46 45 38 37 36 36 34 33 35 39 44 43 40 42 52 70 80 85 78 69 64 60 57
78 79 96 94 82 81 76 76 82 78 68 67 74 75 64 66 65 62 64 55 59 51 47 41 43 48 45 42 42 40 39 40 45 52 50 44 44 56 72 78 76 68 66
80 81 76 83 92 99 94 96 80 90 77 66 71 77 79 80 74 76 77 72 70 60 58 54 45 46 54 54 52 49 47 44 41 42 42 42 43 43 42 47 54 57 61
100 97 77 99 99 100 86 98 100 97 100 93 88 81 79 85 86 83 74 69 77 66 66 59 53 57 63 65 68 67 60 54 51 52 49 45 44 45 45 48 48 44 44
99 100 100 96 96 100 100 100 100 100 100 100 96 96 88 83 81 83 77 82 74 84 81 63 62 67 75 74 74 71 69 66 66 60 54 50 49 48 46 43 41 41 46
94 100 100 100 100 100 100 100 100 100 100 100 100 100 100 99 87 80 87 87 92 86 88 77 60 61 64 63 69 76 71 69 68 68 64 59 55 55 56 54 55 56 55
73 77 85 99 100 100 100 100 100 100 100 100 100 100 100 100 98 86 98 96 92 94 96 73 59 61 66 74 78 77 72 66 59 55 56 57 56 57 56 55 54 55 56
92 85 88 99 100 100 100 100 100 100 100 100 100 100 100 99 94 100 100 99 90 96 93 66 60 73 83 82 74 80 64 60 66 69 64 65 62 57 56 56 58 58 57
95 100 95 98 100 100 100 100 100 100 100 100 100 100 100 100 100 100 100 100 93 90 65 76 76 82 80 82 79 88 74 75 81 80 75 70 66 57 53 51 45 41 41
82 86 88 88 100 100 99 99 100 100 100 100 100 100 100 100 100 100 100 98 88 79 66 68 82 76 92 83 79 74 63 68 62 62 57 50 43 38 36 33 31 33 37
71 80 90 89 88 95 100 99 100 100 100 100 100 100 100 100 100 100 100 100 100 73 61 60 84 77 71 87 70 70 65 60 54 44 36 33 30 28 31 39 46 52 54
41 66 82 76 94 100 100 100 100 100 100 100 100 100 100 100 100 100 100 98 62 61 65 80 64 71 70 68 66 63 56 54 41 32 29 33 40 45 44 42 39 37 34
32 37 46 46 47 52 66 64 79 93 100 100 100 100 100 100 100 100 100 96 99 76 59 59 67 69 73 65 60 56 53 42 45 46 46 44 36 31 29 27 27 23 19
34 42 56 64 61 69 82 85 90 98 100 100 100 100 100 100 100 92 76 70 67 49 54 57 62 68 72 57 51 49 44 56 56 47 43 39 31 28 24 23 17 10 8
36 51 65 74 80 88 100 100 100 98 100 99 100 100 100 100 100 100 85 60 43 53 60 64 66 66 57 54 57 59 60 56 48 44 37 33 28 30 23 16 9 6 5
33 46 65 75 84 100 100 96 80 84 97 100 100 100 100 97 71 54 50 53 60 67 75 70 74 61 65 60 57 57 51 43 43 37 33 36 25 23 15 9 4 3 3
32 50 67 78 85 82 91 92 100 100 100 100 100 80 67 71 63 58 62 68 72 84 76 86 77 76 62 53 44 45 44 40 38 34 21 18 16 12 7 5 4 4 4
92 88 91 99 100 100 100 100 100 100 94 94 74 83 86 92 87 74 75 80 96 95 87 78 68 57 48 45 41 39 36 37 31 21 11 11 8 5 7 5 5 7 6
74 71 87 100 100 100 99 98 90 83 81 73 56 55 63 73 80 100 100 96 93 87 73 63 54 47 42 40 36 31 23 17 11 8 5 8 5 5 8 5 5 7 6

GFSMA_250_rhum_027.txt.gz
RH
32 38 40 42 44 44 44 44 43 44 40 39 34 30 29 32 36 39 39 35 34 34 30 27 24 22 23 22 20 19 18 20 20 22 22 20 21 22 21 21 22 22 29
42 48 50 57 64 70 66 53 51 45 43 36 32 32 37 39 44 44 42 39 36 34 30 29 28 28 28 26 26 25 24 20 22 25 25 24 24 23 23 22 22 22 22
51 60 70 76 82 79 74 64 54 49 46 39 34 40 51 49 46 43 43 44 44 42 40 37 37 37 35 32 29 26 26 25 23 24 26 28 26 25 26 26 23 23 24
87 96 94 97 93 82 75 59 51 51 46 37 38 54 66 66 58 59 61 56 50 43 43 40 39 37 34 31 27 28 29 28 27 26 24 25 30 36 40 36 30 28 29
97 93 100 100 94 80 68 66 64 52 47 46 53 56 63 62 54 53 50 47 48 51 50 43 38 38 35 33 30 26 27 29 30 31 29 28 28 31 39 46 51 48 44
94 91 91 92 91 90 76 71 71 65 54 50 53 56 56 55 67 60 51 53 50 51 48 47 44 43 39 35 34 32 31 32 32 30 31 34 36 37 42 51 56 58 56
98 93 83 83 81 76 79 75 78 69 61 70 57 59 62 58 76 73 58 53 51 57 60 58 55 51 46 45 38 43 43 45 46 39 36 40 42 42 40 39 41 51 58
85 85 91 99 91 90 92 89 79 78 68 82 84 68 61 68 56 69 62 69 66 68 66 70 68 56 54 52 47 52 50 45 44 49 50 46 41 36 36 41 44 44 42
86 86 86 87 88 86 90 78 77 78 80 75 84 79 83 75 71 75 82 75 85 84 70 75 72 68 73 64 63 60 54 48 46 49 53 55 49 46 44 41 41 43 45
90 90 95 98 95 96 100 88 98 100 88 89 84 81 100 97 93 87 85 100 98 93 90 81 74 71 75 84 93 81 65 58 48 49 56 59 65 61 60 58 51 42 38
100 100 100 98 100 100 100 100 100 100 92 97 100 100 100 100 93 99 100 80 90 97 96 87 76 70 78 89 100 94 82 64 58 61 62 73 75 67 65 66 60 55 52
100 100 100 100 100 100 100 100 100 100 100 100 100 100 100 100 100 100 100 100 100 100 96 74 77 72 78 85 97 96 82 73 56 66 73 78 90 94 81 57 54 54 54
100 96 90 90 93 94 95 100 100 100 100 100 100 100 100 100 100 100 100 100 100 100 100 85 80 74 76 80 93 90 79 64 57 61 73 70 70 71 69 64 79 78 72
77 75 72 71 74 81 93 100 100 100 100 100 100 100 100 100 100 100 100 100 100 86 96 98 81 83 83 86 88 83 76 59 61 61 67 65 68 68 66 74 80 76 76
76 73 71 76 75 82 94 100 100 100 100 100 100 100 100 100 100 100 100 100 100 100 100 100 97 86 81 80 78 68 71 60 57 59 66 68 58 54 56 68 64 64 62
55 58 59 60 59 61 71 96 100 100 100 100 100 100 100 100 100 100 100 100 100 100 100 100 96 63 56 58 64 80 70 54 54 65 65 58 64 69 66 59 56 52 46
32 39 49 50 57 58 71 92 100 100 100 100 100 100 100 100 100 100 100 100 100 100 100 100 92 99 100 84 64 52 52 59 57 59 56 60 70 69 66 47 45 50 45
26 32 45 58 71 80 78 79 100 100 100 100 100 100 100 100 100 100 100 100 100 100 100 100 100 100 97 57 64 52 57 60 56 58 53 57 55 54 38 40 45 52 49
24 33 34 39 55 80 96 98 96 100 100 100 100 100 100 100 100 100 100 100 100 100 100 100 100 89 100 68 53 53 58 57 59 64 56 53 44 45 42 38 37 36 32
14 27 39 46 44 45 53 84 100 100 100 100 100 100 100 100 99 94 88 77 79 100 100 100 100 76 54 60 60 58 52 56 65 61 48 45 41 34 30 30 31 27 25
7 15 28 39 48 52 50 51 63 75 91 78 86 100 100 100 100 99 87 83 99 100 100 83 68 56 53 54 55 46 51 57 63 55 44 40 38 36 32 32 26 20 13
7 13 21 42 62 66 72 71 68 68 72 80 100 100 100 92 100 95 96 98 100 100 100 83 62 57 61 49 46 51 50 46 45 51 45 46 38 38 36 28 15 8 7
9 13 20 33 52 72 74 74 77 86 95 100 100 95 70 89 96 100 100 100 98 85 63 61 55 58 55 56 57 58 69 58 56 52 43 48 38 42 25 12 6 5 5
13 19 29 40 59 80 82 84 93 93 96 90 89 80 98 100 100 99 82 66 69 62 50 55 61 56 57 58 58 65 57 52 50 47 34 39 22 14 11 6 4 4 5
28 33 44 68 76 86 95 91 98 100 96 97 100 100 100 100 81 71 67 61 62 64 69 63 60 58 59 61 59 51 50 46 45 35 15 15 10 9 8 5 6 6 6
43 66 73 67 76 79 81 90 87 89 88 90 81 78 69 80 70 64 67 75 76 75 74 60 58 61 62 55 48 45 40 35 17 10 8 9 8 7 9 5 5 5 7

GFSMA_250_rhum_030.txt.gz
RH
34 31 27 26 27 28 32 35 38 38 39 44 49 50 47 45 40 37 33 29 34 45 44 41 43 44 42 40 38 36 34 33 31 30 29 30 28 26 25 25 25 24 25
37 34 36 42 41 40 42 43 47 53 56 62 62 55 51 47 44 36 35 34 39 50 52 45 41 41 42 40 38 37 35 34 32 30 30 29 29 30 29 30 31 30 28
51 50 47 50 52 58 69 69 66 62 65 64 67 66 57 53 45 42 44 43 42 40 50 51 46 43 42 40 36 34 33 28 29 30 27 28 32 34 37 37 37 39 37
60 65 61 71 72 86 81 77 73 74 79 84 81 80 69 58 54 51 50 45 47 45 46 57 52 47 45 43 44 44 42 40 35 30 28 26 27 30 35 37 37 40 39
61 64 77 81 100 95 88 91 87 83 86 89 88 80 73 67 60 57 53 50 47 47 52 51 55 53 50 51 48 56 49 42 39 38 36 36 34 34 33 34 39 43 47
80 85 98 100 89 95 90 95 98 95 93 95 87 83 72 79 78 65 70 61 64 58 59 65 64 62 62 70 66 57 53 48 46 44 44 43 43 42 40 39 38 38 43
96 100 98 90 100 99 91 96 97 100 96 97 98 84 92 77 75 74 75 65 60 64 72 83 73 66 71 78 74 63 58 54 53 49 52 51 46 46 43 50 47 45 46
95 92 90 99 100 100 90 86 78 72 77 80 82 90 93 99 90 88 91 73 76 84 93 90 97 75 75 75 71 72 70 64 58 64 66 58 58 57 57 48 49 52 46
91 98 100 100 99 97 92 89 85 83 86 88 100 97 100 100 100 99 100 100 96 98 96 100 89 95 79 76 66 78 73 72 65 71 70 72 70 68 56 56 56 62 59
91 96 97 99 99 99 99 98 94 92 88 87 92 100 100 100 98 100 100 100 100 100 100 100 100 100 100 100 93 73 72 67 62 66 67 68 73 69 64 58 57 67 81
91 99 100 100 100 100 100 100 100 100 100 100 100 100 100 100 100 100 100 100 100 100 100 100 100 100 100 100 93 90 76 75 58 62 66 68 77 77 74 68 62 69 76
100 100 100 100 100 100 100 100 100 100 100 100 100 100 100 100 100 100 100 100 100 100 100 100 100 100 100 100 90 89 80 76 71 58 57 64 67 81 72 73 62 59 74
100 100 97 92 91 91 95 100 100 97 96 100 100 100 100 100 100 100 100 100 100 100 100 100 100 100 100 97 92 100 96 98 80 74 72 69 66 59 69 68 71 67 66
48 50 55 58 57 59 64 77 95 99 99 100 100 100 100 100 100 100 100 100 100 100 100 100 100 100 100 100 100 100 100 100 94 78 64 53 55 74 69 70 76 68 68
51 50 50 56 71 73 84 94 100 100 100 100 100 100 100 98 100 100 100 100 100 100 100 100 100 100 100 100 100 100 95 86 78 63 63 64 67 68 59 67 59 65 64
34 42 48 51 61 80 90 95 100 100 99 98 98 96 100 100 100 100 100 100 100 100 100 100 100 100 100 100 100 100 100 96 93 73 80 59 56 56 60 57 55 55 55
20 22 26 35 48 62 69 75 85 88 92 100 100 100 100 100 100 100 100 100 100 100 100 100 95 91 100 100 93 96 92 79 71 49 38 46 54 56 58 53 60 57 57
10 14 19 26 33 37 46 56 68 68 70 82 87 91 100 100 94 100 100 100 100 100 100 100 100 99 100 89 80 71 88 100 84 59 49 52 53 53 51 56 57 52 49
6 7 9 13 16 32 43 50 52 51 51 58 75 99 100 100 100 100 98 92 100 100 100 100 100 100 80 72 70 67 86 81 68 63 50 46 51 49 51 52 47 42 42
6 6 8 11 12 17 34 48 53 53 52 53 62 98 100 100 100 100 100 100 100 100 100 100 100 72 65 83 93 83 83 85 58 50 45 49 49 52 47 40 40 45 38
6 6 7 9 11 11 16 34 56 60 63 62 60 68 84 97 100 100 100 100 100 100 98 100 94 80 73 67 78 72 61 53 53 49 46 53 58 50 49 50 46 40 36
7 6 5 5 6 7 11 23 57 78 75 71 70 72 79 95 100 100 100 100 82 88 65 77 92 77 72 67 54 53 52 50 43 53 57 55 54 52 54 47 35 28 17
10 8 7 7 8 10 14 28 57 83 90 87 78 82 88 96 92 88 100 100 68 84 77 60 61 62 54 51 50 46 47 51 55 52 52 54 53 60 46 37 23 14 8
22 17 13 15 19 20 28 46 64 85 96 99 100 100 100 100 100 93 82 81 80 71 68 61 59 58 57 54 53 60 56 51 47 47 47 56 47 48 46 23 8 6 8
50 45 39 35 40 43 46 55 70 77 78 76 80 82 87 83 81 75 76 67 64 64 70 65 60 60 62 61 56 49 44 45 46 46 48 51 39 26 12 6 5 7 6
49 50 53 61 61 56 55 60 63 65 67 71 78 75 68 67 72 76 76 78 81 84 85 77 69 63 53 44 43 45 45 43 42 39 36 25 9 8 8 6 7 9 10

GFSMA_250_rhum_033.txt.gz
RH
62 52 44 40 39 39 36 38 37 34 37 40 41 40 47 52 54 54 50 56 57 53 48 46 39 39 35 38 38 43 42 40 38 36 35 33 30 31 30 30 32 32 31
46 41 40 43 40 44 44 43 39 39 38 39 47 53 56 60 71 68 69 65 61 53 54 53 45 44 37 41 42 47 47 42 40 40 41 38 33 31 30 29 29 34 36
49 50 51 48 49 49 51 52 50 47 46 46 56 66 74 94 89 76 72 70 64 62 62 55 46 48 52 49 47 53 56 55 54 51 48 41 38 35 32 32 30 31 33
63 61 59 64 56 57 56 55 60 68 68 80 83 85 84 90 86 79 78 72 75 72 67 61 55 53 48 55 56 54 57 56 52 63 60 51 44 39 38 37 34 35 36
64 65 64 65 64 61 64 65 66 79 90 96 100 99 100 100 95 96 94 83 80 71 72 76 65 63 63 65 74 73 59 54 51 56 59 58 51 46 43 44 46 44 40
67 66 69 67 69 81 70 62 72 79 98 100 94 97 93 98 98 85 82 79 79 85 83 94 78 80 79 90 75 75 69 63 64 54 52 53 52 52 50 48 48 48 48
66 66 86 96 80 81 93 83 71 79 97 96 100 90 91 96 92 82 90 97 96 95 100 97 94 92 90 100 98 97 76 84 67 64 68 62 55 53 49 51 53 49 46
83 78 81 69 73 76 92 92 85 100 99 98 95 91 92 90 92 82 86 93 100 99 100 100 100 100 100 100 94 97 100 100 100 87 81 87 77 67 61 52 54 56 59
66 71 85 95 94 94 92 97 96 99 95 99 93 96 92 96 97 98 100 100 100 100 100 100 100 100 100 100 100 100 100 100 93 87 98 88 86 74 66 57 58 61 56
69 64 79 99 90 73 79 88 95 100 98 92 99 100 100 100 100 100 100 100 100 100 100 100 100 100 100 100 99 99 98 93 100 100 92 90 85 77 68 68 66 62 62
82 77 71 74 74 88 100 100 100 100 100 100 100 100 100 100 100 100 100 100 100 100 100 100 100 100 100 100 100 98 100 100 100 100 90 71 81 83 77 72 70 70 60
75 89 89 70 77 84 96 100 97 97 100 100 100 100 100 100 100 100 100 100 100 100 100 100 100 100 100 100 100 100 100 100 100 100 96 88 98 100 100 76 80 66 66
87 96 99 99 92 82 76 79 76 73 65 68 70 92 95 92 100 100 96 100 100 100 100 100 100 100 100 100 100 100 100 100 94 97 100 100 100 100 89 70 67 64 63
85 73 61 50 50 53 53 51 57 70 76 79 77 82 93 100 100 100 100 100 100 100 100 100 100 100 100 100 100 100 98 100 100 100 100 85 100 100 100 96 90 81 66
44 51 46 43 42 41 42 41 50 59 70 83 85 84 100 100 100 100 100 100 100 100 100 100 100 100 98 100 99 100 100 100 100 100 94 65 97 77 73 72 62 69 69
28 23 22 26 27 29 29 34 41 55 64 69 78 92 100 100 100 100 100 100 100 100 100 97 100 98 84 100 100 100 100 100 85 98 95 90 95 72 64 62 57 51 60
26 31 31 26 22 25 28 29 30 36 42 52 61 77 92 100 100 100 100 100 100 100 100 100 100 87 88 100 87 84 97 100 100 100 100 82 81 69 61 55 51 58 52
34 31 24 17 12 11 15 20 22 28 34 39 47 56 77 92 100 100 100 100 100 100 100 100 100 100 100 91 84 100 94 100 99 87 84 80 71 79 54 50 59 55 52
28 21 14 11 8 9 10 13 16 22 25 34 44 52 54 68 81 90 97 100 100 100 100 100 100 100 83 82 80 95 99 100 100 93 83 71 54 54 54 66 56 52 52
24 20 11 6 6 8 7 8 12 14 18 33 40 49 57 63 67 73 78 83 100 100 100 100 100 100 99 100 100 100 100 100 81 74 62 52 54 50 52 50 48 46 46
25 18 12 6 6 7 7 7 9 14 21 26 28 39 60 76 85 89 83 74 75 88 100 100 100 100 100 100 100 98 81 63 59 52 55 50 50 51 45 42 42 49 46
33 26 15 8 6 5 5 6 9 13 18 23 30 40 69 97 100 99 92 87 84 87 98 100 100 100 100 82 61 63 62 57 55 57 51 56 48 44 43 48 44 44 43
39 34 28 17 11 12 13 11 10 10 15 24 31 48 86 100 100 100 99 91 86 79 83 91 86 80 82 77 63 58 64 65 51 46 46 44 40 41 43 43 43 40 38
49 42 35 29 27 20 21 23 25 25 31 41 54 80 100 100 98 100 98 94 95 85 81 80 80 73 79 86 78 63 54 51 37 34 37 40 42 45 42 36 35 30 22
60 54 46 40 38 37 56 62 63 68 78 84 92 97 97 98 97 94 93 92 92 92 94 90 86 81 74 67 60 49 42 37 36 39 40 40 37 39 37 23 14 9 7
60 62 63 56 50 50 56 57 59 63 73 75 73 76 78 82 80 79 81 87 87 89 92 88 76 67 56 44 39 37 37 37 37 36 32 30 27 24 23 8 6 5 7

GFSMA_250_rhum_036.txt.gz
RH
93 81 72 62 53 48 40 36 40 46 45 44 43 40 42 39 41 49 52 63 73 72 83 74 65 61 56 55 49 51 46 39 41 41 42 41 41 41 41 39 37 33 30
73 63 50 52 50 45 49 52 51 51 52 52 48 48 51 53 51 72 76 90 84 90 79 79 69 68 58 55 49 52 54 56 58 55 57 53 51 43 48 42 42 39 36
57 62 62 62 65 60 54 50 51 51 52 58 58 53 61 72 72 76 92 77 88 88 93 88 91 78 70 59 58 55 62 64 72 79 64 62 50 51 47 43 45 46 42
61 67 69 63 55 48 48 44 46 48 49 67 81 75 68 82 89 82 91 100 90 83 99 100 98 92 86 74 63 62 54 66 63 79 77 63 62 64 49 51 48 48 44
67 65 60 56 55 49 44 44 50 76 100 100 100 90 81 93 87 88 98 92 100 92 99 84 93 95 95 96 84 81 66 70 81 68 69 69 73 72 56 52 60 55 50
86 59 56 54 54 52 48 44 53 72 72 74 88 88 92 98 96 97 100 100 96 100 95 76 95 98 96 100 100 100 90 87 79 85 97 87 85 74 74 59 59 64 66
69 66 60 54 48 46 45 41 40 59 67 74 87 90 91 90 97 99 96 96 90 80 100 93 98 99 100 100 100 100 100 100 96 91 99 87 80 85 75 73 74 63 70
59 54 65 61 49 49 57 52 64 71 68 61 71 76 73 66 80 81 87 94 94 97 91 100 100 100 100 100 100 100 100 99 100 98 86 93 78 86 85 79 78 71 64
45 41 40 46 55 60 56 56 52 54 54 67 76 78 67 90 100 100 100 100 100 100 100 100 100 100 100 100 100 100 100 100 100 94 96 82 92 90 95 100 80 84 69
40 36 36 39 44 52 51 56 63 82 67 80 81 100 100 100 100 100 100 100 100 100 100 100 100 100 100 100 100 100 100 100 100 98 93 79 99 100 100 93 98 80 70
43 45 44 40 36 42 56 61 67 100 99 100 100 100 100 100 99 99 100 99 100 100 100 100 100 100 100 100 100 100 100 100 100 100 100 100 100 100 96 100 99 80 99
45 50 48 42 46 50 70 89 98 100 100 98 86 68 64 65 66 79 92 100 94 96 100 100 100 100 100 100 100 100 100 100 100 100 100 100 100 100 100 94 92 100 99
42 48 52 73 86 92 95 88 67 50 39 41 42 51 59 65 79 85 95 100 100 99 97 96 97 100 100 100 100 99 100 100 100 100 100 100 84 81 98 100 95 78 98
68 73 87 100 87 66 53 46 36 28 26 24 26 35 48 57 63 83 100 100 100 96 93 99 100 100 100 100 100 100 100 100 100 97 100 100 100 97 90 93 96 84 72
76 85 64 47 57 45 33 26 21 16 15 17 22 24 27 39 51 71 84 100 100 100 100 100 100 100 100 100 100 100 100 99 100 95 88 73 100 94 75 86 85 96 78
66 50 47 39 30 27 27 28 24 25 25 24 27 26 26 31 40 45 55 90 100 100 98 99 100 100 100 100 100 99 100 100 100 100 78 76 79 90 99 81 77 89 92
48 40 29 26 24 32 35 32 30 28 23 20 20 27 26 26 31 39 48 61 93 100 100 100 100 100 100 100 100 100 100 100 100 99 96 89 89 95 100 100 96 82 100
33 28 27 30 41 44 33 27 20 16 14 14 11 12 17 25 26 36 45 60 79 98 96 100 100 100 100 100 100 100 100 97 100 86 92 100 100 97 84 75 82 77 93
33 33 37 45 42 32 22 18 12 9 6 6 8 10 15 22 28 35 47 58 69 83 88 100 100 100 100 100 95 100 100 100 100 100 100 100 99 91 82 98 82 70 80
41 44 43 43 38 30 23 16 10 6 5 6 9 11 13 19 29 42 60 100 71 84 88 99 93 100 100 100 100 100 100 100 100 100 89 84 94 100 100 83 54 54 59
47 47 45 44 40 37 32 19 12 7 6 6 8 12 13 20 29 40 56 66 70 95 99 96 93 99 100 100 98 88 90 100 100 100 100 100 100 76 61 55 56 58 45
50 51 49 47 41 43 38 30 18 12 10 7 8 13 19 27 36 42 47 58 78 97 100 100 100 100 96 99 100 100 100 91 81 72 82 65 67 53 57 44 35 39 41
49 54 53 46 44 46 45 39 30 31 26 24 18 20 28 37 44 55 71 88 96 100 100 100 100 100 100 99 92 82 87 79 72 70 68 65 62 46 39 40 41 42 39
58 58 50 44 53 52 49 51 42 42 42 39 37 44 56 66 74 85 93 99 100 99 100 100 100 100 100 99 100 100 99 89 74 58 49 50 45 45 43 37 34 31 28
59 52 46 50 56 58 57 54 52 60 63 62 66 75 86 87 91 97 100 100 100 100 100 100 100 95 90 84 78 71 64 56 52 47 44 42 35 33 30 23 18 17 16
62 50 47 48 51 55 55 57 58 57 55 57 60 61 63 63 65 67 68 69 68 69 68 65 61 58 57 54 54 54 48 46 42 38 33 34 28 26 25 13 9 9 8

GFSMA_250_rhum_039.txt.gz
RH
52 56 64 74 88 90 85 71 50 48 52 51 50 49 43 39 40 40 47 57 70 63 63 80 76 68 94 86 86 83 78 67 61 53 48 48 50 59 58 57 47 44 39
82 96 98 95 84 76 63 54 47 57 51 53 49 45 41 40 44 64 92 96 93 74 96 97 90 89 100 99 100 99 86 67 57 54 61 65 60 65 62 61 56 50 45
99 90 77 69 64 61 55 50 52 53 51 49 49 45 40 41 46 89 86 78 84 97 99 100 100 100 100 100 100 94 83 80 73 62 58 65 66 68 61 64 62 53 46
81 73 70 63 57 56 61 65 64 58 52 51 46 44 44 49 44 58 80 87 87 82 93 100 98 100 100 100 100 100 89 82 81 64 59 63 75 71 82 86 65 65 63
71 70 70 75 75 68 68 62 62 64 55 45 40 42 48 52 43 57 86 92 90 97 96 82 97 99 100 100 97 97 89 79 87 79 82 76 80 78 76 82 79 73 66
79 76 81 81 81 80 71 61 55 49 50 44 42 42 44 43 46 50 54 69 82 99 89 75 87 89 90 82 90 95 94 74 98 99 89 86 94 86 71 84 72 68 59
68 84 91 94 85 78 62 59 53 49 46 45 46 43 47 43 52 50 64 64 84 83 90 90 100 93 99 100 95 95 100 100 98 100 100 100 100 92 91 81 57 63 59
100 92 93 72 71 66 60 58 53 48 42 41 40 41 42 52 73 81 100 100 100 100 100 100 100 100 100 100 100 100 100 100 100 100 100 96 100 100 98 73 52 58 48
56 68 65 61 56 53 47 45 44 41 37 40 44 48 55 68 80 93 100 100 100 100 100 100 100 100 100 100 100 100 100 100 100 100 100 100 100 96 76 63 73 53 100
61 48 45 46 45 43 41 42 40 40 47 60 74 83 78 93 98 100 100 100 100 100 100 100 100 100 100 100 100 100 100 100 100 100 100 100 100 100 82 75 54 75 98
67 56 44 46 47 44 46 39 39 42 61 89 100 100 99 90 68 67 71 81 71 90 90 89 87 100 100 100 100 100 100 100 100 100 100 100 100 97 91 78 94 100 96
66 52 51 50 49 43 38 37 45 70 98 100 87 68 57 59 48 38 41 50 52 54 66 72 94 92 100 100 100 100 100 100 100 100 100 100 100 96 70 78 100 100 58
59 55 60 49 43 40 42 50 80 92 81 49 36 38 31 27 26 27 28 33 34 40 48 62 99 99 100 100 100 100 100 100 100 100 100 100 100 96 76 95 99 93 80
57 53 49 39 45 50 89 97 88 61 30 30 19 18 21 27 30 34 40 42 45 44 43 50 99 100 100 98 100 100 100 100 100 100 100 100 100 100 100 100 100 100 87
54 50 38 40 80 98 93 73 36 35 23 25 28 25 27 33 38 40 40 40 41 46 50 47 61 100 100 100 100 100 100 100 100 100 100 100 100 100 100 100 88 100 100
48 40 42 67 91 80 61 40 32 26 30 33 30 29 25 24 25 26 27 28 33 41 46 54 55 65 100 100 100 100 100 99 100 94 100 100 100 100 100 100 100 100 84
66 53 84 89 68 47 42 32 30 37 45 33 24 21 16 13 14 14 18 23 28 38 45 56 62 71 99 100 100 100 100 100 100 100 100 100 100 98 100 100 100 97 93
69 76 71 58 49 39 31 36 41 45 38 24 13 12 9 6 6 8 14 14 26 30 38 53 64 73 96 99 100 100 100 100 100 100 100 100 100 100 98 93 100 100 99
73 67 47 41 32 32 39 44 44 37 32 18 13 12 7 5 4 6 9 13 19 26 44 63 88 92 100 100 100 98 98 95 100 100 100 100 91 94 81 100 100 100 96
59 45 34 33 38 41 49 44 42 34 33 30 19 14 9 6 5 7 11 14 19 29 47 82 86 93 100 100 100 100 100 100 100 100 100 100 97 100 100 100 100 100 100
41 34 35 45 47 48 44 43 38 37 39 38 27 19 16 10 10 13 14 18 24 39 68 86 92 95 98 100 100 100 100 100 100 100 100 100 100 100 100 100 90 91 78
32 39 48 50 52 51 46 39 40 45 44 44 41 37 28 26 15 18 24 31 43 63 72 83 84 76 80 95 99 100 100 100 100 100 100 100 100 90 75 63 60 60 59
42 47 50 53 52 49 42 40 44 49 53 54 53 48 44 39 45 48 47 57 70 78 97 98 98 100 100 100 99 94 98 100 98 93 86 75 76 72 65 55 54 53 48
49 50 50 52 54 49 44 43 46 48 49 50 59 60 58 55 53 54 55 60 64 67 72 76 82 85 75 70 72 74 73 69 66 65 68 68 63 60 54 50 46 41 39
51 48 51 58 56 48 45 46 49 54 57 54 50 50 53 58 65 64 62 67 71 72 71 70 72 76 81 85 84 81 75 70 67 65 65 66 56 50 46 38 34 29 27
51 52 56 60 52 50 54 55 57 54 50 51 58 62 66 69 72 77 84 86 87 86 88 89 89 90 90 91 88 86 86 84 80 69 61 60 49 44 42 31 23 21 20

GFSMA_250_rhum_042.txt.gz
RH
54 53 58 70 76 89 94 94 88 76 71 64 55 48 48 51 58 54 52 48 46 49 55 50 62 76 89 90 99 92 92 100 100 100 97 86 68 54 45 42 47 60 53
64 74 92 91 97 100 94 87 80 73 68 65 61 58 62 61 59 56 48 47 48 49 50 48 55 73 100 86 100 95 85 98 100 100 100 83 75 55 52 49 51 53 55
78 92 100 100 100 91 86 77 73 70 70 68 59 56 61 58 60 48 48 48 47 49 49 47 49 59 78 85 100 95 72 85 100 100 100 84 82 58 46 52 56 63 65
100 100 100 97 92 84 77 78 70 68 59 62 65 56 54 51 49 48 49 45 44 48 52 51 51 66 76 84 99 99 83 77 87 98 100 88 76 76 78 77 67 75 77
100 100 100 100 94 88 90 86 78 80 77 76 64 56 53 48 42 46 46 40 41 46 49 60 61 67 74 86 95 83 82 100 91 100 100 98 90 93 99 97 87 91 78
100 100 100 100 97 99 93 72 73 75 68 60 53 47 45 42 44 42 42 43 47 55 63 76 88 89 82 84 98 100 100 100 100 100 100 100 98 98 100 100 100 98 85
100 100 100 100 100 100 98 90 82 82 70 56 43 42 43 44 40 40 41 57 68 78 94 96 100 100 100 100 100 100 100 100 100 100 100 100 100 100 100 100 100 99 95
100 100 100 100 98 80 83 85 76 62 66 49 45 42 43 45 43 40 40 47 80 100 100 100 100 100 100 100 100 100 100 100 100 100 100 100 100 100 100 100 100 100 98
100 98 98 100 88 82 70 65 56 59 49 52 47 42 39 41 42 55 71 82 91 100 100 99 100 100 100 100 100 100 100 100 100 100 100 100 100 100 100 100 100 100 100
90 79 77 76 72 66 65 64 67 57 53 54 47 40 37 42 60 91 90 74 51 52 67 70 72 81 100 100 100 100 100 100 100 100 100 100 100 100 100 100 100 100 83
94 84 73 64 54 52 57 69 58 62 57 50 45 37 47 73 86 82 72 39 39 39 37 34 45 42 72 80 99 100 100 100 100 100 100 100 100 100 100 100 100 99 84
92 94 86 71 59 62 58 64 59 54 45 44 49 67 59 76 70 38 36 29 31 43 40 41 40 45 51 62 63 98 100 100 100 100 100 100 100 100 100 100 100 100 100
95 99 89 74 71 62 64 58 53 42 39 48 54 67 60 33 32 25 25 26 29 33 43 58 43 50 50 58 68 71 100 100 100 100 100 100 100 100 100 100 100 100 100
88 92 77 83 80 73 63 52 38 37 43 64 67 44 31 32 26 26 29 33 37 40 37 53 42 51 58 58 71 72 100 100 100 100 100 100 100 100 100 100 100 100 100
88 97 84 80 71 58 48 42 43 52 76 66 45 34 29 32 31 29 25 23 19 18 19 25 34 36 53 61 74 67 79 100 100 100 99 100 100 84 100 100 100 100 88
95 92 76 62 54 43 43 38 50 82 66 42 31 30 37 38 32 27 18 14 12 11 12 14 21 30 39 54 59 60 77 100 100 100 100 100 100 100 100 100 87 100 100
77 69 55 46 44 41 38 59 79 69 43 32 37 39 42 36 25 19 14 11 8 6 6 8 12 23 34 46 54 56 73 99 100 100 100 100 100 100 100 100 100 100 100
62 52 48 48 52 45 63 74 67 37 31 41 42 42 39 30 23 19 16 11 7 5 5 7 9 14 30 56 75 63 74 78 100 100 100 100 100 100 100 100 100 100 100
57 52 60 61 53 61 68 62 34 31 45 49 44 38 35 35 34 27 21 14 8 8 10 11 11 19 35 50 93 82 85 95 100 100 100 100 100 100 100 100 100 100 100
69 68 61 64 62 70 50 34 34 44 49 48 38 34 36 42 41 37 32 24 15 13 14 18 18 24 48 61 68 87 94 100 97 100 100 100 100 100 100 100 100 100 100
78 69 61 59 63 44 34 39 48 50 48 41 37 38 42 44 46 45 39 32 30 24 27 25 35 36 42 51 68 82 79 85 95 98 100 100 100 98 98 98 99 100 100
67 57 55 49 38 35 42 50 52 48 45 41 39 47 50 50 50 46 42 44 45 42 42 46 49 61 79 80 90 89 79 84 88 91 81 88 81 84 86 87 85 73 73
45 37 42 32 37 44 48 50 49 49 43 42 47 51 57 60 56 52 48 47 48 54 63 67 69 67 64 65 66 71 80 81 89 97 100 100 100 100 100 99 89 89 87
48 32 33 39 45 48 50 50 51 45 44 47 52 61 66 58 54 56 59 60 62 65 68 68 72 77 82 87 86 85 86 85 84 85 86 77 75 71 68 66 64 63 59
34 37 42 45 47 52 50 50 51 47 49 56 66 64 61 65 70 71 68 67 71 75 77 82 86 87 87 90 92 94 95 92 89 88 88 86 72 66 62 55 52 50 49
40 44 46 44 46 48 51 55 59 57 60 64 67 74 80 79 79 78 72 66 62 67 73 77 76 76 77 78 78 79 81 81 79 76 75 77 69 64 57 49 46 42 39

GFSMA_250_rhum_045.txt.gz
RH
60 57 56 56 56 59 67 81 89 91 97 87 80 73 72 73 66 61 58 55 54 43 42 44 46 45 47 57 69 58 58 61 76 93 100 100 93 88 93 84 68 68 53
60 57 59 65 71 75 85 90 100 100 92 86 79 68 68 67 68 62 60 63 48 43 42 47 44 44 43 49 64 67 61 65 83 88 95 92 82 79 75 96 77 68 60
62 63 71 74 76 92 100 100 100 96 91 88 81 73 74 76 70 65 65 56 55 49 43 43 45 44 47 56 66 77 81 86 77 72 67 76 90 99 95 100 90 88 78
72 79 84 90 100 100 100 98 100 92 87 78 65 74 70 65 66 72 67 63 53 50 44 36 39 46 47 52 59 72 81 86 87 92 93 74 100 97 96 100 100 97 99
92 100 100 100 100 100 100 100 99 91 85 75 75 65 60 58 68 70 67 57 53 47 43 38 42 50 54 83 92 96 92 100 100 100 100 100 100 100 100 100 100 100 99
100 100 100 100 100 100 100 96 97 93 83 83 80 73 67 66 69 66 59 54 46 45 44 45 54 69 89 92 91 84 100 100 100 100 100 100 100 100 100 100 100 100 100
100 100 100 100 100 100 100 100 96 89 93 81 76 70 77 74 69 62 56 46 45 49 55 65 70 81 82 78 72 97 100 100 100 100 100 100 100 100 100 100 100 100 100
100 100 100 100 100 100 99 91 89 84 85 77 75 73 82 75 67 58 50 42 42 56 63 67 70 71 61 67 62 68 76 99 100 100 100 100 100 100 100 100 100 100 100
100 100 100 100 96 96 98 95 84 83 82 81 75 84 73 74 66 52 44 41 44 49 50 52 41 42 42 46 47 41 49 81 100 100 100 100 100 100 100 100 100 100 100
100 100 96 100 97 90 92 86 84 84 75 79 83 77 69 63 51 41 42 44 52 53 43 35 38 35 38 40 37 37 48 57 53 79 100 100 100 100 100 100 100 100 100
92 100 95 88 88 81 80 85 93 85 84 84 77 75 66 50 39 32 32 36 45 25 22 24 27 32 37 44 48 46 58 58 98 79 98 100 100 100 100 100 100 100 100
100 96 91 84 80 88 86 85 79 83 78 78 74 62 49 41 30 36 25 24 19 21 26 35 39 38 47 47 52 45 56 53 86 100 99 100 100 100 100 100 100 100 100
99 99 99 98 93 88 86 86 85 88 80 72 59 48 42 42 43 40 31 22 20 30 34 37 31 27 25 33 39 40 62 54 57 94 95 100 100 100 100 100 100 100 100
98 100 95 97 93 91 98 88 88 75 69 56 43 42 52 52 49 32 25 25 31 33 32 26 23 20 19 20 29 40 53 60 64 79 70 86 100 100 100 100 100 100 100
100 100 100 100 97 93 90 86 77 65 52 40 41 51 54 65 39 29 33 36 32 28 26 22 18 15 12 12 16 30 44 58 76 80 74 95 100 84 100 100 99 100 100
100 100 100 100 97 95 92 81 61 48 37 39 54 64 68 44 31 37 43 39 33 28 23 23 20 12 8 6 8 19 29 39 63 63 86 100 100 99 100 100 100 100 100
100 100 98 90 96 82 71 54 41 37 42 55 58 55 48 34 40 44 43 36 33 34 31 25 19 10 8 7 10 15 23 48 52 71 78 89 100 100 100 100 100 100 100
100 93 94 88 79 62 43 36 44 54 66 59 51 43 37 42 46 44 38 39 37 38 39 31 22 12 11 13 21 26 29 46 63 78 92 99 96 100 100 100 100 100 100
87 80 74 61 42 38 40 50 60 72 54 39 38 37 44 48 46 41 38 41 41 45 44 39 35 25 19 21 24 28 34 55 64 89 100 100 98 100 100 100 100 100 100
72 58 50 46 47 46 63 67 61 49 35 42 35 46 50 50 46 41 40 44 47 46 43 42 40 41 37 36 41 52 58 63 76 84 89 100 100 100 100 100 100 100 100
63 71 58 59 71 58 69 69 41 40 35 35 46 51 50 51 44 42 46 49 52 51 46 42 41 41 44 46 53 61 69 81 86 90 96 96 100 100 100 100 100 100 100
98 88 98 82 68 79 59 52 39 33 36 44 50 49 54 50 44 49 50 54 60 57 49 50 53 52 50 51 55 55 58 69 74 74 83 79 97 96 100 100 100 100 96
100 100 77 71 65 54 44 35 34 39 46 50 49 54 54 48 49 54 58 67 70 64 59 63 63 59 63 69 74 74 72 72 72 77 79 80 89 79 79 72 74 78 83
98 70 74 56 47 43 35 37 39 43 47 50 52 57 57 54 56 62 67 70 75 82 80 68 63 60 60 65 73 82 87 87 87 89 88 83 82 76 75 77 79 77 74
83 75 53 49 39 38 39 41 44 47 47 50 56 59 62 63 64 72 80 86 84 84 77 68 63 62 66 71 70 67 66 67 69 72 74 79 77 77 75 72 69 64 63
86 72 58 44 43 42 42 46 51 54 54 55 62 68 74 79 83 87 90 88 86 79 71 66 64 66 67 63 60 61 65 63 58 55 58 67 63 58 56 54 52 48 47

GFSMA_250_rhum_048.txt.gz
RH
56 60 63 80 80 67 60 60 65 70 66 81 93 98 99 86 78 74 70 71 63 58 57 58 68 64 58 46 40 40 41 47 54 60 70 85 96 83 73 72 69 81 81
78 89 95 91 71 67 71 74 75 74 93 97 100 95 84 82 80 74 64 65 60 59 66 71 70 62 54 45 40 41 45 46 59 65 75 85 92 85 83 88 78 83 99
75 92 96 81 73 79 89 87 96 100 93 100 93 90 88 76 76 70 72 66 64 71 76 73 64 56 47 42 38 42 48 65 76 80 84 86 84 99 100 100 100 97 100
100 92 75 78 91 100 98 99 98 100 98 91 82 70 67 81 75 76 77 75 71 73 69 65 58 49 45 45 52 67 85 90 87 84 85 100 100 100 100 100 100 100 100
76 79 91 96 99 94 93 100 100 96 95 82 72 77 80 76 74 78 74 75 76 72 65 56 49 48 45 54 62 77 75 68 75 89 94 100 100 100 100 100 100 100 100
98 100 99 89 94 100 100 100 100 95 89 84 77 84 82 84 86 84 77 82 80 69 64 52 50 47 46 64 69 66 51 56 61 76 88 100 100 100 100 100 100 100 100
100 99 99 100 100 100 100 96 86 89 90 80 87 90 88 82 87 81 84 80 74 65 55 50 49 46 51 49 46 39 35 34 40 50 71 84 100 100 100 100 100 100 100
100 100 100 98 92 90 86 85 93 100 94 96 93 89 78 86 86 90 89 80 70 56 52 48 48 41 47 48 32 30 31 35 37 40 45 55 60 92 100 100 100 100 100
100 100 94 94 98 100 100 100 100 100 100 100 89 82 90 91 97 97 87 70 56 52 51 46 54 55 38 30 26 30 32 36 40 47 54 58 58 87 100 100 100 100 100
100 100 100 100 100 100 100 100 100 100 89 87 93 98 93 87 82 80 73 61 53 50 56 60 60 25 21 25 31 32 34 37 39 36 42 60 81 100 100 99 100 100 100
100 100 100 100 100 100 100 92 85 91 94 97 100 100 100 88 81 74 64 49 44 42 48 67 30 23 30 34 29 26 28 35 43 42 37 41 64 98 100 100 100 100 100
100 100 100 99 99 94 92 96 96 98 100 100 100 98 89 77 75 61 50 36 32 48 57 30 24 32 32 27 28 30 31 32 42 83 43 50 53 77 95 93 99 100 100
100 100 100 99 100 100 100 100 100 100 100 98 98 86 75 72 58 49 34 26 37 35 36 32 34 31 28 30 27 24 24 23 26 38 48 58 52 77 90 95 100 91 100
100 100 100 100 100 100 100 100 100 100 100 94 86 71 64 56 45 32 35 38 28 30 35 39 39 31 32 28 27 25 18 12 12 22 36 52 61 68 89 100 100 100 100
100 100 100 100 100 100 100 100 100 99 98 76 70 62 49 36 39 47 48 30 34 30 46 42 35 33 33 32 33 25 14 9 8 12 24 37 60 79 76 96 100 100 100
100 100 100 100 100 100 99 98 92 85 73 61 48 38 33 42 56 54 39 34 30 38 46 42 37 35 37 39 36 29 18 11 8 9 22 87 96 64 88 90 100 100 100
100 100 100 100 99 92 85 82 72 58 44 33 33 37 43 60 50 57 38 31 36 43 45 40 39 38 36 36 38 36 30 17 13 14 19 34 40 68 82 89 92 100 100
94 100 93 85 81 71 61 45 38 40 30 32 46 68 67 59 54 40 34 37 43 44 45 41 40 38 36 38 39 39 39 35 32 32 35 47 61 67 99 100 100 100 100
57 58 52 45 57 45 42 43 40 37 47 68 85 53 57 41 35 34 40 43 45 48 46 46 46 37 38 40 38 38 39 43 47 52 74 71 70 77 90 100 100 100 100
48 63 68 58 57 52 57 50 55 72 81 79 48 45 38 35 34 45 44 47 49 52 49 50 47 48 47 41 41 41 42 44 47 55 56 55 62 72 88 98 99 100 100
77 63 76 75 64 65 69 60 90 81 78 60 31 35 33 36 42 45 49 51 55 57 53 54 56 62 55 46 55 51 49 48 54 64 65 72 83 79 78 75 81 92 98
93 96 100 90 82 77 65 70 82 73 61 38 37 34 39 43 42 46 50 58 63 65 61 64 71 69 57 63 66 64 68 68 65 67 64 60 70 70 80 86 90 89 84
100 100 100 99 97 78 79 81 61 40 42 36 36 38 45 46 48 52 61 66 68 75 77 80 76 72 69 77 73 69 71 70 66 68 69 65 74 71 68 70 72 79 85
98 100 100 87 95 85 77 58 46 45 39 38 40 43 48 54 58 62 66 75 83 86 80 78 82 80 77 78 73 68 67 63 63 72 77 75 73 69 67 68 71 75 69
100 100 92 100 86 81 64 63 58 46 48 46 43 50 54 59 62 65 73 81 83 85 87 88 83 76 74 79 72 70 70 69 70 74 75 70 66 64 58 56 56 54 51
89 100 100 92 95 75 69 65 60 72 64 62 58 54 52 54 59 64 70 76 84 83 83 76 72 72 72 73 73 72 72 70 73 74 74 70 55 49 43 45 49 48 49

GFSMA_250_rhum_051.txt.gz
RH
51 53 51 51 53 56 68 86 92 83 73 77 68 75 91 78 70 71 79 81 76 79 80 77 68 63 71 73 70 60 50 49 46 47 56 64 64 72 81 87 98 99 80
62 57 55 54 63 72 92 99 86 82 88 76 77 91 86 87 82 85 87 86 78 76 80 70 69 72 76 72 65 54 50 49 53 71 82 90 89 84 78 87 84 92 98
61 54 64 72 91 100 100 89 87 95 85 80 92 90 91 86 86 94 91 76 81 81 76 72 76 79 78 68 59 52 52 49 54 68 82 80 74 71 95 100 100 100 100
63 64 69 83 92 99 97 94 98 95 86 83 93 82 84 84 85 86 78 85 87 80 74 78 76 77 68 58 54 52 48 47 68 76 58 59 56 60 85 100 100 100 100
73 82 86 83 92 95 98 100 99 94 91 90 85 75 82 80 93 84 83 88 81 79 78 79 80 66 60 54 51 46 42 46 48 34 35 34 36 39 50 88 100 100 100
92 97 90 97 92 99 100 99 92 92 93 86 81 85 91 94 84 89 95 88 93 83 78 77 70 63 56 52 46 40 37 30 28 29 36 43 45 43 39 56 96 100 100
92 100 100 100 100 100 100 99 92 87 88 77 94 100 96 85 94 90 95 100 89 86 80 79 65 58 52 48 41 33 28 21 28 37 43 49 52 54 52 46 68 100 100
100 100 100 100 100 100 97 96 90 93 93 100 89 84 97 100 92 97 100 96 81 85 84 66 60 52 46 40 36 29 19 28 34 36 33 33 32 43 56 60 68 96 96
100 100 100 99 99 100 100 100 100 100 100 100 97 95 97 99 100 100 99 92 85 82 68 62 52 44 40 41 31 19 25 34 34 31 32 38 40 36 43 57 71 73 69
98 92 90 99 100 100 100 100 100 100 100 100 100 95 97 99 100 100 100 99 83 76 66 54 43 46 42 33 20 24 33 33 30 32 37 37 38 45 43 43 67 99 95
95 100 100 100 100 100 100 100 100 100 100 96 100 100 100 99 94 85 88 76 77 63 50 39 46 50 45 24 26 33 33 28 30 31 32 34 38 34 47 43 58 90 100
100 100 100 100 100 100 100 100 100 100 100 100 100 100 100 97 95 81 81 64 56 43 42 38 48 49 31 26 31 36 29 29 32 29 31 30 21 22 36 45 57 62 100
100 100 100 100 100 100 100 100 100 100 100 100 100 100 98 100 85 77 58 46 34 38 55 51 45 31 24 30 37 36 30 31 35 31 26 22 12 13 23 37 56 68 90
100 100 100 100 100 100 100 100 100 100 100 100 100 95 93 82 73 51 37 31 27 40 62 40 30 24 28 38 40 32 30 33 32 29 25 20 11 11 17 26 52 67 80
100 100 100 100 100 100 100 100 100 100 98 100 96 91 79 61 42 32 27 25 29 46 45 27 32 28 39 41 40 33 35 36 31 24 24 20 9 11 22 52 96 97 100
100 100 100 100 100 100 100 100 100 100 98 93 82 64 48 36 29 27 27 28 38 36 26 31 32 42 46 44 39 40 36 38 37 26 24 22 16 16 44 59 70 69 81
100 100 100 100 100 100 100 100 99 94 84 60 49 36 29 26 28 32 34 35 30 24 30 30 42 47 50 45 43 42 42 43 40 29 26 25 27 38 52 56 62 68 84
100 100 98 94 88 81 79 79 73 56 50 35 29 32 28 28 32 36 30 29 28 29 30 39 45 49 49 49 52 53 53 53 43 37 38 33 31 38 48 60 76 85 100
71 68 62 58 54 45 43 43 36 38 36 32 37 29 34 34 33 27 22 25 32 30 38 40 44 48 52 59 60 59 53 50 54 50 43 52 53 52 51 60 63 68 91
46 33 34 35 32 38 43 42 40 53 50 51 45 50 45 41 29 23 27 30 33 40 44 45 45 50 58 63 68 63 58 58 56 63 54 54 58 57 64 71 71 75 68
33 35 42 42 43 55 62 65 79 72 86 62 62 53 46 34 30 27 29 34 41 48 51 48 50 59 67 72 74 70 68 68 66 69 60 63 61 60 63 64 63 64 65
44 57 68 75 100 87 100 100 100 100 78 71 62 52 46 34 39 36 38 43 48 49 52 58 62 68 74 81 72 69 73 72 67 64 65 69 70 72 68 71 72 70 73
100 100 100 100 100 100 99 100 96 100 85 75 62 60 43 43 49 49 48 49 50 53 57 58 66 81 77 66 63 80 79 72 69 69 70 68 72 76 77 75 75 74 74
100 100 100 100 86 100 95 100 100 97 94 74 79 52 52 58 58 57 57 56 56 56 59 65 65 66 68 72 76 74 71 70 71 71 68 68 70 69 68 66 65 62 56
65 67 95 100 95 100 98 100 100 96 86 80 73 59 60 69 63 58 54 53 54 54 54 56 59 63 66 71 70 68 73 73 71 71 72 69 66 66 65 59 55 53 48
74 98 74 100 96 100 100 100 93 96 94 73 65 62 64 74 66 55 51 55 58 58 61 67 69 68 67 69 70 69 71 73 71 71 73 73 70 61 50 48 46 46 44

GFSMA_250_rhum_054.txt.gz
RH
44 47 48 50 53 58 58 57 60 62 82 95 86 81 80 70 66 75 76 71 63 68 81 100 96 92 80 69 65 59 58 58 56 57 57 60 54 50 69 87 90 85 71
53 54 50 52 58 61 60 59 66 66 86 78 83 81 81 74 75 80 74 66 71 75 95 95 96 80 66 64 62 54 60 58 56 58 56 59 47 53 50 60 66 76 92
48 49 52 56 62 62 62 62 65 75 81 84 88 88 85 91 84 72 66 73 70 92 96 89 78 68 67 66 63 61 57 57 54 50 51 50 45 43 39 32 32 45 72
52 55 56 57 61 65 68 72 81 83 81 87 88 96 92 90 81 72 72 69 86 95 94 79 66 74 68 69 62 57 58 52 46 46 46 37 28 28 32 36 40 39 46
67 61 61 63 70 74 77 90 90 95 94 98 100 98 93 82 84 83 81 92 99 91 72 66 74 72 70 64 62 56 51 45 45 42 34 25 26 32 42 41 42 46 43
86 82 75 73 77 88 96 100 99 100 100 100 100 98 87 92 95 99 100 97 89 71 76 75 81 73 71 63 52 46 39 36 36 37 28 24 34 37 36 36 36 41 46
95 92 94 91 96 99 99 100 100 100 100 100 99 100 100 100 100 100 100 89 80 85 87 84 78 73 64 59 45 36 32 32 40 28 28 37 36 32 34 36 40 40 41
96 98 99 100 100 100 100 100 100 100 100 99 97 100 100 100 100 98 88 92 93 99 91 83 76 70 58 45 37 31 33 38 29 25 28 38 35 31 31 37 40 44 43
100 100 100 100 100 100 100 100 100 100 93 100 96 99 96 100 100 100 100 100 97 92 81 76 71 61 46 35 29 30 36 28 24 26 37 39 32 34 39 37 36 42 46
100 100 100 100 100 100 100 96 85 89 100 100 100 100 100 100 100 100 100 96 95 83 79 73 64 48 35 27 28 38 30 23 26 31 37 35 32 33 32 35 31 35 40
100 100 100 100 100 100 97 91 100 100 100 100 100 100 100 100 100 100 96 93 94 80 80 63 50 37 29 29 33 32 21 25 27 38 36 32 34 26 20 22 27 28 31
100 100 100 100 100 99 100 100 100 100 100 100 100 100 100 100 100 85 93 86 90 82 62 53 38 26 28 33 33 22 23 29 36 40 34 34 30 26 17 17 21 24 23
100 100 100 100 100 100 100 100 100 100 100 100 100 100 100 97 92 92 88 83 76 63 49 37 27 22 30 37 26 21 28 37 39 40 35 38 26 18 15 17 15 11 16
100 100 100 100 100 100 100 100 100 100 100 100 100 99 100 98 95 89 80 65 52 45 33 25 24 25 22 22 22 28 37 40 39 38 39 49 28 21 16 15 13 8 14
100 100 100 100 100 100 100 100 100 100 100 100 100 100 100 94 87 76 58 48 38 30 27 23 23 17 18 20 28 37 39 42 41 41 45 56 28 21 16 16 14 12 17
100 100 100 100 100 100 100 100 100 100 100 100 100 99 92 79 60 49 39 35 35 28 24 22 17 18 22 25 33 41 39 46 46 48 48 48 45 31 23 22 18 22 31
100 100 100 100 100 100 100 100 100 100 99 92 87 76 58 51 48 39 40 34 32 29 23 19 19 25 28 33 40 43 44 49 51 57 64 53 50 39 33 34 34 34 43
100 100 100 100 100 99 100 98 97 91 78 71 57 41 49 41 42 63 47 49 36 30 22 18 25 30 33 40 45 47 50 52 60 69 64 56 49 49 51 47 48 47 51
93 93 98 100 100 96 90 94 80 63 62 49 48 41 50 49 62 77 58 58 43 28 28 30 32 35 42 47 52 54 57 63 67 60 59 58 51 49 61 65 61 58 59
79 89 94 89 89 90 78 65 52 48 43 56 55 56 51 68 92 82 72 53 39 33 44 42 38 43 51 57 56 58 66 68 63 68 57 46 54 62 64 67 71 74 76
39 35 44 41 40 38 38 38 32 51 64 58 82 100 77 81 71 83 78 44 39 42 49 51 50 50 52 55 60 68 67 67 73 61 58 59 61 64 66 67 68 69 71
36 35 40 26 33 28 56 56 83 69 76 100 99 100 77 84 74 88 66 44 41 52 53 52 51 52 53 56 61 63 68 60 64 57 60 65 65 66 64 65 68 71 75
22 21 27 32 42 60 64 79 97 93 99 95 100 78 96 69 76 77 65 45 52 59 55 48 48 51 54 57 58 58 61 63 62 62 61 65 67 65 68 72 72 72 72
18 20 28 41 47 63 70 75 99 87 98 94 77 97 89 94 81 79 66 58 57 64 59 51 51 54 58 60 62 65 68 69 68 66 68 67 69 72 75 80 79 75 66
19 20 23 28 38 46 64 45 71 100 100 94 100 98 100 82 89 77 69 64 69 69 66 60 61 62 66 67 68 72 74 71 71 74 72 70 72 78 86 83 73 59 51
22 24 25 26 30 38 47 75 94 93 94 100 100 100 93 90 76 82 68 70 76 80 78 74 74 70 70 70 71 73 74 75 76 76 74 74 78 86 82 65 53 48 45

GFSMA_250_rhum_057.txt.gz
RH
39 42 44 44 43 44 46 51 53 57 58 61 60 58 56 58 62 59 63 63 66 61 56 54 63 72 95 91 63 65 78 75 72 64 50 42 38 41 36 40 45 37 42
39 42 42 46 52 54 54 53 55 56 58 60 61 64 68 68 70 76 73 72 68 66 62 64 83 100 94 79 72 81 77 75 72 56 43 36 35 34 34 42 31 25 25
45 43 45 50 50 52 53 54 57 56 57 68 71 71 84 78 89 84 85 82 73 69 77 97 100 90 88 73 87 82 70 68 57 48 40 33 32 32 39 29 26 24 33
61 57 52 55 59 58 57 59 60 65 76 75 78 87 92 94 95 94 90 83 86 98 100 96 83 76 83 89 85 70 68 62 52 41 30 28 32 41 27 21 26 38 36
75 66 60 54 57 62 66 70 74 82 82 83 88 97 97 100 100 98 97 88 96 93 77 83 71 86 90 86 72 66 54 53 47 34 25 26 38 26 20 25 36 38 33
89 82 78 73 68 71 72 79 87 90 89 94 100 100 100 100 97 97 89 86 80 82 84 83 91 95 79 80 62 62 52 46 34 29 28 35 29 20 21 30 40 36 37
75 93 86 88 90 85 83 94 97 94 99 100 100 99 100 98 94 94 80 84 89 92 99 98 94 87 83 66 61 52 47 32 26 26 27 27 23 21 24 36 41 35 37
86 84 78 85 96 100 100 100 100 100 100 91 100 92 100 97 88 92 92 93 100 100 100 91 92 85 65 64 54 47 38 24 24 24 26 24 17 21 34 38 36 34 35
81 82 86 81 90 100 100 98 100 100 97 100 95 92 87 91 98 100 100 100 100 100 92 92 77 69 63 55 52 41 26 22 22 26 20 18 21 30 35 41 34 33 38
87 83 83 96 99 100 100 100 100 100 100 100 100 100 99 100 100 100 100 100 99 98 90 81 74 66 57 51 45 32 22 21 21 18 20 23 27 37 37 32 30 27 25
100 100 100 100 100 100 100 100 100 100 100 100 100 100 100 100 100 100 100 100 99 89 83 79 67 58 55 43 34 24 19 20 17 19 24 30 35 38 33 26 21 18 17
100 100 100 100 100 100 100 100 100 100 100 100 100 100 100 100 100 100 100 100 100 94 76 68 57 53 43 32 25 21 21 19 18 22 26 34 40 41 32 26 20 14 13
100 100 100 100 100 100 100 100 100 100 100 100 100 100 100 100 100 100 100 100 97 90 71 61 48 37 34 24 19 22 19 18 21 25 30 39 41 47 40 29 21 17 14
100 100 100 100 100 100 100 100 100 100 100 100 100 100 100 100 100 100 100 95 96 78 63 46 38 37 25 24 23 21 18 21 25 31 41 40 44 48 48 33 21 24 20
100 100 100 100 100 100 100 100 100 100 100 100 100 100 100 100 100 100 97 86 77 67 50 42 38 30 26 27 22 20 23 27 32 40 44 46 48 50 47 39 30 28 23
100 100 100 100 100 100 100 100 100 100 100 100 100 100 100 100 100 94 88 77 66 47 40 36 42 40 30 29 22 23 28 34 41 46 49 53 55 53 48 40 34 34 36
100 100 100 100 100 100 100 100 100 100 100 100 100 100 100 100 100 93 74 58 47 39 38 37 48 40 36 27 28 32 37 41 47 52 53 54 51 53 51 50 49 41 46
100 100 100 100 100 100 100 100 100 100 100 100 100 100 100 98 83 62 53 43 46 65 61 53 61 41 39 31 37 44 45 46 49 56 55 52 58 53 55 57 57 56 52
100 100 100 100 100 100 100 100 100 100 100 100 98 98 97 70 49 40 38 48 68 57 69 67 58 46 36 36 46 49 50 50 52 53 55 57 56 58 57 56 55 58 60
91 98 98 100 100 100 100 100 100 96 88 92 77 65 53 46 38 49 83 69 84 77 80 63 56 38 39 49 53 48 46 49 47 48 52 56 58 56 56 58 57 58 60
65 69 78 81 77 75 75 62 59 50 48 47 54 54 37 46 60 63 69 92 84 98 80 73 61 45 43 59 57 50 49 49 50 52 57 60 60 60 58 59 60 64 67
46 50 44 41 50 40 35 34 50 56 54 54 42 40 49 55 72 80 87 81 96 89 93 87 62 46 52 60 62 56 53 53 59 58 65 65 64 65 65 66 68 69 70
30 31 40 46 50 52 65 72 68 57 38 29 37 41 46 69 87 100 83 86 100 98 91 72 56 54 59 69 68 70 69 64 65 67 67 70 76 76 72 71 73 74 75
25 28 34 33 36 40 40 33 32 29 30 32 32 40 61 79 88 96 93 100 94 100 81 62 65 63 69 73 82 83 78 76 75 72 72 75 77 78 72 66 66 69 73
19 20 21 22 22 25 26 25 24 26 27 30 38 44 63 99 76 100 99 99 100 84 90 69 67 69 72 73 76 77 80 86 87 82 78 76 74 69 68 65 65 67 73
23 22 21 20 20 20 21 21 24 25 26 34 53 64 91 100 100 100 100 100 99 99 86 72 70 73 76 79 72 72 76 75 74 72 69 68 65 64 64 63 64 71 76

GFSMA_250_rhum_063.txt.gz
RH
98 93 86 76 60 47 36 32 30 30 31 32 36 38 41 41 44 45 49 49 51 58 66 80 78 76 72 70 68 57 60 65 84 91 75 75 59 42 40 28 18 21 25
100 100 100 95 86 78 70 59 51 43 39 40 42 47 55 62 63 65 68 77 82 84 80 69 79 75 74 72 63 68 76 83 86 73 70 67 45 43 33 22 18 20 25
100 100 100 100 97 85 81 80 71 64 62 65 68 80 80 81 82 87 96 97 98 83 70 70 69 71 68 69 74 68 74 87 74 71 76 48 44 45 26 20 19 21 23
100 100 100 100 100 100 85 70 62 69 68 62 74 69 70 72 86 97 94 83 77 82 70 70 66 73 74 71 75 78 79 74 76 76 57 43 48 37 22 18 20 19 17
100 100 100 98 97 87 71 72 76 74 74 72 71 70 64 74 80 86 78 78 84 81 77 71 75 71 75 78 73 84 81 78 78 59 52 51 46 27 21 20 18 16 16
100 100 96 82 83 81 84 87 78 80 72 76 72 70 70 73 83 80 86 84 80 75 74 76 81 90 94 90 86 88 99 83 71 54 55 48 44 23 18 18 19 16 20
100 100 100 100 100 100 100 100 100 96 84 83 81 74 83 99 87 91 84 88 93 88 80 88 83 88 88 100 100 100 89 78 73 59 49 53 38 19 19 19 19 17 22
100 100 100 100 100 100 100 96 95 94 93 95 85 88 91 100 93 92 89 85 88 100 100 89 88 90 100 100 100 95 96 75 74 66 58 47 25 20 19 18 19 19 23
100 100 100 100 100 100 97 90 95 87 82 86 82 62 71 84 100 100 100 100 100 100 100 99 100 97 97 97 97 100 81 74 64 60 56 39 23 19 17 19 20 25 27
100 99 100 100 98 100 97 96 82 82 77 74 77 86 86 87 91 100 100 100 100 100 100 100 100 100 100 99 99 93 79 85 62 57 50 28 22 20 19 20 23 26 37
100 100 100 100 100 100 94 88 92 90 86 84 87 82 84 91 100 100 100 100 100 100 100 100 100 100 100 100 91 100 80 75 67 60 36 26 21 20 20 22 26 32 36
100 100 100 100 100 100 100 100 100 100 100 100 100 100 100 100 92 86 100 100 100 100 100 100 100 99 100 100 96 88 84 81 68 54 30 20 21 22 22 26 32 36 37
100 100 100 100 100 100 100 100 100 100 100 98 97 95 98 100 100 100 100 100 100 100 100 100 100 100 100 100 92 98 78 68 66 42 25 21 24 22 23 29 36 39 41
100 100 100 100 100 100 100 100 100 100 100 100 100 100 100 100 100 100 100 100 100 100 100 100 100 100 100 99 93 89 75 67 52 31 23 24 27 25 24 33 38 41 42
100 100 100 100 100 100 100 100 100 100 100 100 100 100 100 100 100 100 100 100 100 100 100 100 100 100 100 100 92 75 76 65 36 30 27 30 31 30 29 39 40 41 44
98 98 98 97 97 100 100 100 100 100 100 100 100 97 100 100 100 99 100 100 100 98 100 100 100 100 99 92 85 80 60 40 30 32 36 42 39 34 36 43 42 45 49
81 78 87 90 99 100 98 89 96 100 100 100 93 83 57 54 64 60 69 78 90 96 100 100 100 100 94 89 77 63 43 33 42 58 52 53 49 40 49 54 52 53 53
83 87 82 85 79 79 76 67 49 42 38 28 26 37 32 37 46 42 61 79 100 100 100 100 92 98 80 71 60 47 42 58 62 74 76 65 55 45 59 64 62 58 60
75 64 56 41 37 30 26 25 26 26 26 24 27 26 33 35 47 57 68 85 94 94 96 100 92 72 65 65 45 50 53 83 99 92 97 73 57 47 52 65 72 70 66
28 26 28 28 27 26 24 23 24 25 25 25 25 31 36 39 42 57 77 72 71 86 77 64 58 71 68 46 39 43 83 98 89 100 94 75 56 54 52 55 60 64 70
28 28 27 26 26 26 27 27 27 24 24 26 30 32 34 33 43 49 67 83 69 54 36 43 58 69 64 40 53 65 99 98 100 90 100 82 66 64 62 64 65 62 62
29 31 31 30 29 29 28 29 29 29 30 32 32 30 32 31 31 47 48 43 50 43 36 42 63 57 59 47 68 83 100 100 100 94 93 78 70 70 72 70 69 67 67
28 31 31 34 32 31 30 30 31 29 30 30 33 30 34 44 54 38 46 35 47 35 37 42 32 42 43 69 85 100 100 97 100 100 93 74 72 73 76 70 68 70 69
20 23 27 29 32 33 33 32 29 27 27 32 34 34 35 38 41 45 39 34 30 32 27 31 34 47 68 86 100 100 100 100 94 100 93 78 75 78 76 70 72 73 64
19 19 20 22 23 25 26 27 27 27 29 36 40 39 34 33 34 35 32 28 30 28 28 35 49 65 82 100 100 100 100 93 98 98 89 80 83 87 81 74 74 71 70
22 21 21 20 20 21 23 24 26 27 28 29 30 30 32 35 36 34 34 33 30 33 41 59 73 94 100 100 100 100 100 98 93 92 91 79 87 87 78 76 73 69 74

GFSMA_250_rhum_066.txt.gz
RH
100 100 100 100 98 99 90 82 84 73 67 65 60 66 65 64 66 65 66 62 70 74 71 66 65 74 72 65 57 51 55 53 58 56 60 62 58 69 46 46 45 37 20
100 100 100 98 100 100 100 93 90 85 78 72 67 65 73 77 75 77 76 70 76 68 60 64 78 78 72 57 57 64 54 51 53 54 64 68 69 61 46 39 48 28 18
91 97 100 100 100 100 100 100 100 100 93 99 88 81 74 80 77 72 71 67 70 61 69 71 59 71 72 74 68 63 67 61 78 68 66 74 68 60 49 38 48 26 18
100 100 100 100 100 100 100 100 99 87 91 99 100 97 94 82 82 75 79 76 81 82 81 74 84 74 78 76 70 86 69 78 60 67 68 69 69 65 51 41 47 26 18
97 100 100 100 100 100 100 100 85 81 84 94 100 100 100 100 96 85 95 95 89 81 75 78 82 91 90 83 99 92 95 81 86 94 80 67 72 64 51 42 49 21 18
90 100 100 100 100 100 100 98 88 92 100 100 100 100 100 100 100 89 86 83 69 76 76 88 81 86 93 98 100 100 100 100 100 92 91 80 79 58 47 42 38 20 18
93 100 100 100 100 100 100 100 100 100 100 98 100 100 100 100 95 81 77 81 70 79 85 76 86 100 100 100 100 100 100 100 100 97 93 95 75 55 44 48 32 18 19
100 100 100 100 100 100 100 100 100 100 100 100 100 94 100 100 85 87 73 74 82 86 81 94 93 100 100 100 100 100 100 100 97 99 100 85 68 54 52 45 27 16 18
95 91 95 92 100 100 100 100 97 98 93 94 100 100 93 85 81 91 90 96 88 90 97 100 100 100 100 100 100 100 100 100 100 100 89 78 68 59 46 39 22 15 20
100 100 100 100 100 100 100 100 100 100 95 90 82 72 88 100 100 100 100 100 100 100 91 94 95 99 100 100 100 100 100 100 99 90 81 82 77 56 51 31 20 18 20
100 100 100 100 98 98 76 99 98 100 98 100 100 97 99 100 98 100 100 96 78 94 100 100 100 100 100 100 100 100 100 100 97 83 91 83 69 58 36 24 22 22 22
100 100 87 86 64 67 79 86 84 82 92 100 100 100 100 100 100 100 100 100 100 100 100 100 100 100 100 100 100 100 100 82 78 86 77 85 68 58 30 25 26 26 26
100 100 100 100 100 100 99 98 89 100 99 99 100 100 100 100 100 100 100 100 100 100 100 100 100 100 100 97 88 80 94 85 76 81 83 75 65 42 28 31 30 29 30
100 100 100 100 100 100 100 100 98 98 100 100 100 99 91 100 100 100 100 100 100 100 100 100 100 93 71 60 64 77 98 73 76 76 74 66 47 34 32 40 38 37 34
100 100 100 100 100 96 89 91 98 100 99 100 100 100 100 100 100 99 100 100 100 100 89 77 60 48 50 57 61 75 74 84 80 72 66 53 36 40 49 51 46 42 44
100 100 100 100 100 100 100 100 99 92 85 83 81 79 86 100 99 96 90 96 85 38 29 42 45 49 49 53 56 76 88 93 78 64 61 34 40 46 67 61 59 48 43
70 80 80 71 68 68 74 67 64 68 59 59 74 85 91 88 78 70 57 36 29 27 27 41 40 49 50 60 78 85 82 66 52 58 51 42 43 75 78 74 71 57 49
55 56 56 52 51 52 60 63 64 54 56 58 80 57 34 31 29 29 29 29 29 31 29 48 46 53 54 45 75 63 58 50 43 60 66 65 63 100 92 86 75 69 61
86 99 100 100 100 83 60 74 96 100 98 71 31 29 28 27 29 31 33 32 34 34 42 54 50 43 45 62 60 59 62 57 65 66 52 52 80 100 92 90 90 71 64
100 100 97 78 42 30 28 28 29 30 29 29 30 31 31 33 32 32 34 33 34 36 40 40 36 41 44 49 63 59 66 55 68 58 56 68 98 96 93 100 98 76 72
35 33 32 31 31 31 31 32 33 35 36 35 34 34 34 35 36 36 36 35 34 37 34 32 34 47 50 56 54 75 68 53 41 65 71 92 100 97 87 90 97 83 79
41 41 41 39 39 39 38 37 37 36 37 36 34 34 34 32 34 35 34 36 36 33 45 46 54 63 63 63 55 100 75 51 62 67 100 100 100 99 91 90 92 90 77
33 32 32 32 31 29 28 27 26 26 28 29 30 30 29 29 32 34 33 31 39 36 41 60 56 66 83 40 48 56 36 51 69 84 100 100 98 96 96 95 92 90 77
27 26 24 22 21 20 19 18 18 18 20 21 22 22 25 28 29 27 30 30 36 37 54 58 42 39 37 36 37 43 57 74 86 100 100 97 92 99 92 94 100 91 85
18 18 18 17 17 18 18 18 17 17 17 19 20 21 22 23 24 28 30 36 44 36 42 39 43 42 40 43 51 69 93 87 95 100 100 90 98 93 91 99 95 88 86
18 17 17 17 18 19 19 19 18 17 17 17 17 18 20 22 24 25 28 32 33 39 43 45 46 46 51 59 74 99 91 94 100 96 93 97 95 93 100 96 89 83 81

GFSMA_250_rhum_069.txt.gz
RH
77 73 71 94 100 97 100 93 90 100 100 96 97 94 97 94 92 100 87 82 89 87 88 81 80 78 79 63 68 68 54 57 59 60 84 83 84 82 76 74 64 72 50
98 86 86 80 92 95 96 100 100 100 100 100 100 100 94 97 96 100 98 97 99 98 92 94 88 86 72 62 68 59 61 58 66 93 85 98 91 88 84 78 80 60 43
100 100 100 100 97 91 92 90 100 100 100 100 100 99 76 90 98 100 100 100 100 91 90 86 84 78 68 70 67 79 79 84 95 90 93 100 95 95 84 71 67 47 41
100 97 100 100 90 94 100 100 100 100 100 100 100 100 86 74 94 100 100 97 98 100 96 83 80 76 75 77 95 96 94 81 90 95 99 96 100 89 91 80 54 53 47
100 100 100 96 85 79 80 95 100 100 100 100 99 86 97 100 100 100 100 100 100 100 99 90 80 82 78 95 94 97 93 88 83 98 100 100 88 84 66 64 54 46 45
100 100 100 100 98 86 84 100 100 100 100 100 100 100 100 100 100 100 91 94 95 89 80 81 78 81 89 100 100 99 82 94 100 100 98 93 85 70 54 42 41 46 43
100 100 100 100 100 93 100 100 100 100 100 100 100 100 100 100 89 85 74 83 86 80 90 99 93 100 100 100 89 74 98 100 100 100 100 100 85 49 41 45 31 37 39
100 100 100 100 100 100 100 100 89 80 78 79 84 100 96 91 96 98 93 91 95 100 100 100 100 100 98 87 100 100 100 99 100 100 100 100 67 40 46 39 38 38 39
100 98 100 97 100 100 100 97 88 100 100 89 100 87 92 100 100 100 100 96 95 87 99 100 100 91 99 100 100 100 100 100 100 100 100 87 55 43 48 44 47 39 32
95 100 100 99 100 89 75 80 71 61 56 50 45 43 82 100 95 100 97 99 100 100 100 100 100 100 100 100 100 100 100 100 100 100 81 66 58 57 52 55 40 40 31
100 100 100 100 95 64 72 60 59 53 56 72 70 69 66 70 94 84 100 100 100 100 100 100 100 100 93 100 100 84 100 99 76 78 68 60 64 64 54 57 37 35 27
100 100 100 100 85 82 78 72 74 58 69 63 78 92 83 85 100 97 100 100 100 100 100 100 100 97 100 96 100 99 82 46 55 68 64 63 60 63 59 48 40 34 40
100 100 100 100 100 100 100 100 100 100 100 100 100 100 93 95 100 100 100 86 94 100 100 100 95 99 100 97 89 56 39 48 55 62 62 68 62 68 62 48 46 42 50
100 100 100 100 100 100 100 100 100 100 100 100 98 100 100 99 93 90 91 92 98 99 83 76 99 85 47 39 33 35 42 48 50 56 58 62 62 70 55 43 52 52 63
100 100 100 100 100 100 100 100 100 100 100 100 100 100 96 100 94 83 100 98 70 82 86 100 82 35 33 31 31 33 34 39 55 54 55 57 64 62 48 46 46 62 68
100 100 100 100 100 100 100 100 100 100 100 100 98 86 89 100 98 78 90 83 68 57 50 41 32 32 32 32 34 33 38 45 57 61 53 64 64 62 53 62 51 76 92
100 100 100 100 100 100 100 100 100 100 81 92 91 92 87 81 82 95 91 45 29 29 31 30 33 34 36 36 38 38 38 54 55 60 54 56 60 58 64 60 52 83 100
100 100 100 100 100 100 79 49 48 65 53 60 56 53 59 62 65 64 59 31 32 33 35 37 36 37 38 39 39 39 48 55 64 58 59 59 81 77 79 75 71 80 100
42 41 33 33 32 31 34 33 39 46 42 43 52 64 98 100 100 42 33 33 35 36 38 37 36 38 39 41 42 43 49 47 54 59 69 75 98 68 85 72 85 98 100
51 49 54 57 49 45 78 81 83 100 100 100 100 100 85 56 37 34 34 32 32 32 33 34 35 37 40 39 39 45 45 57 67 68 92 76 75 71 66 76 100 100 100
44 47 46 51 66 71 86 97 69 66 66 44 41 38 34 31 31 32 32 30 30 30 31 37 35 36 33 35 39 43 66 70 82 77 76 67 73 60 69 84 100 100 100
42 42 42 42 42 42 42 40 38 38 42 43 41 40 37 33 29 28 29 28 28 28 28 30 31 30 34 38 42 48 56 84 72 100 78 42 48 70 83 96 100 100 98
39 43 43 41 39 38 37 36 35 35 34 32 30 28 26 24 23 20 18 18 17 19 21 23 28 31 33 33 39 71 82 75 78 55 50 44 56 82 88 100 100 99 99
37 37 37 38 37 36 34 32 32 29 26 24 21 19 18 17 16 16 16 17 18 19 21 26 27 29 31 32 47 50 49 62 60 55 59 66 71 80 94 100 100 100 100
22 22 21 20 20 19 20 19 19 18 19 18 18 17 18 17 16 17 18 18 20 20 23 26 31 35 36 45 45 55 62 62 60 54 58 78 90 98 100 100 100 100 96
16 16 16 16 17 17 17 18 17 17 20 20 17 19 18 17 17 18 18 18 18 21 24 30 34 41 45 45 54 58 62 54 54 65 84 88 97 100 100 100 100 100 100

GFSMA_250_rhum_072.txt.gz
RH
90 99 100 100 91 81 77 78 80 88 86 84 85 86 99 100 100 100 93 72 62 77 100 100 89 93 100 83 77 83 68 73 72 70 80 63 86 100 100 61 74 61 58
75 79 91 89 90 99 99 87 96 100 98 99 100 100 100 100 100 100 79 64 82 100 100 100 100 100 74 67 82 94 72 84 72 84 60 97 100 99 69 73 67 63 49
96 86 97 99 100 98 97 93 100 97 100 92 96 100 100 100 100 84 82 88 100 100 100 100 94 81 74 79 82 91 99 87 92 79 93 100 99 72 88 90 83 55 32
71 82 99 91 87 91 98 96 99 100 90 82 84 92 100 100 100 100 100 100 100 99 100 84 76 78 89 86 91 89 89 77 93 93 100 100 78 96 91 100 72 49 31
54 69 82 98 99 93 93 99 93 96 86 88 87 100 99 94 96 89 81 80 78 82 91 84 90 93 100 100 100 100 100 94 82 100 100 84 93 94 77 78 47 50 30
46 53 73 82 97 97 98 82 93 92 95 90 97 98 56 51 62 55 70 74 79 100 98 100 97 100 97 98 97 100 94 95 100 100 95 82 77 92 87 60 48 47 35
100 90 81 77 93 100 100 100 85 87 78 84 89 63 45 44 46 49 58 60 59 66 100 69 91 100 81 96 93 97 100 100 100 100 85 64 96 82 52 65 50 38 33
98 100 85 92 99 100 100 100 99 89 73 62 52 42 38 45 52 58 56 51 63 71 93 97 82 78 93 85 98 100 100 100 100 100 77 76 59 43 44 62 48 39 32
92 82 88 98 100 97 100 99 98 68 69 62 52 48 47 69 59 56 57 45 50 58 51 65 87 96 98 100 100 100 100 100 100 87 80 37 36 39 45 51 53 38 38
100 84 80 93 91 92 88 84 94 74 65 53 56 74 83 67 63 64 61 83 72 98 100 89 78 100 100 97 100 99 99 92 92 91 46 33 33 42 52 55 45 42 42
100 97 82 88 82 100 98 91 95 93 97 92 84 60 79 69 87 82 100 100 100 100 100 100 100 100 100 94 100 100 95 88 80 49 34 32 32 34 38 50 49 48 47
100 92 100 89 85 80 100 99 100 99 90 88 86 77 74 82 100 97 100 100 100 100 96 100 98 94 91 100 95 98 67 34 36 33 34 34 34 37 40 50 55 52 51
100 100 100 100 100 100 100 99 89 88 83 78 100 100 92 98 100 100 84 92 94 100 96 93 100 100 91 90 89 92 34 32 34 37 37 37 38 40 49 58 62 58 49
100 100 100 100 100 99 99 100 100 100 100 100 100 100 100 100 100 100 100 96 100 100 100 100 60 69 72 74 97 46 32 34 39 40 39 40 41 44 62 65 76 63 58
100 100 100 100 100 100 100 100 100 100 100 100 100 100 97 100 100 100 100 99 89 100 96 77 70 60 83 84 82 46 36 41 41 42 43 43 45 48 71 69 82 70 62
100 100 100 100 100 100 99 100 76 100 100 100 100 100 100 100 100 100 100 100 100 94 65 68 71 71 60 58 34 34 39 39 39 39 41 43 47 55 67 74 76 86 99
100 100 100 100 100 98 100 99 100 100 100 100 100 100 100 100 100 100 99 100 89 60 60 60 46 44 62 39 39 40 40 40 37 38 44 44 47 51 65 71 82 100 100
100 100 100 100 100 100 100 100 100 100 100 100 100 100 100 100 100 100 88 40 44 43 41 39 49 48 41 40 41 37 36 36 37 41 42 47 52 56 60 76 99 99 96
100 100 100 100 100 100 100 100 100 100 100 100 100 100 100 96 54 46 34 35 49 51 54 43 35 36 36 34 34 35 34 37 38 45 44 48 48 51 72 92 100 100 96
100 100 100 100 100 100 100 100 100 100 100 100 99 89 51 31 33 35 35 38 38 36 38 36 34 34 33 33 33 30 28 32 35 34 37 44 56 70 69 92 100 98 74
100 100 100 90 79 85 85 76 72 71 57 45 42 38 36 38 40 34 35 33 30 28 31 34 32 30 30 29 28 26 26 28 26 33 38 45 66 66 77 92 97 67 78
60 66 58 55 55 54 53 50 44 39 39 42 46 43 38 38 33 30 31 34 32 30 29 25 22 23 20 19 20 20 21 25 30 35 41 44 48 63 60 66 66 63 84
49 48 48 48 48 50 51 51 51 46 41 40 41 38 33 31 32 30 29 27 24 21 19 18 18 18 18 18 20 24 24 24 33 38 39 43 50 56 62 66 69 75 88
28 29 30 31 31 31 32 30 30 30 30 30 28 28 29 28 25 21 20 19 19 19 19 18 17 17 17 20 22 24 29 32 36 40 48 50 52 57 66 67 73 90 93
26 26 28 28 28 28 28 27 26 25 24 24 24 22 21 21 20 21 20 19 19 18 17 18 19 20 21 25 29 36 38 43 45 51 55 55 63 69 73 77 89 90 96
24 24 24 22 21 20 20 20 20 19 19 19 19 18 20 18 18 22 21 22 22 23 24 24 24 24 27 30 33 42 46 46 58 58 54 68 78 85 85 91 100 100 100

GFSMA_250_rhum_078.txt.gz
RH
76 95 100 100 100 98 84 74 72 62 60 69 71 67 52 68 80 84 58 62 69 56 54 56 68 71 62 59 54 50 40 42 40 45 82 74 75 86 85 86 68 56 53
89 99 100 99 91 87 74 76 66 55 62 58 59 52 60 70 70 61 60 56 51 53 56 66 72 76 62 61 50 46 46 38 41 66 76 79 84 100 100 85 53 53 53
100 100 95 82 82 75 79 78 68 62 62 61 51 76 86 81 71 70 64 49 37 41 68 74 59 64 63 55 48 52 44 40 51 87 79 90 90 100 93 86 61 55 57
96 100 89 83 91 87 92 77 72 70 61 50 80 87 93 86 76 65 53 39 42 53 57 56 72 58 54 52 54 48 48 48 58 74 87 76 99 100 92 93 66 58 54
86 95 84 78 97 100 94 82 73 52 45 59 57 81 80 78 69 60 46 39 44 60 58 56 63 67 61 51 58 51 57 58 65 65 72 76 100 97 99 92 70 61 48
92 100 100 100 100 86 74 66 49 56 51 47 65 71 58 57 64 58 48 43 57 59 56 58 64 71 68 58 48 49 71 91 65 66 78 79 82 100 100 94 78 59 63
100 100 100 96 92 81 78 72 69 50 48 42 38 29 31 41 61 42 31 39 61 50 49 45 56 50 58 50 50 95 100 86 66 66 88 93 100 100 100 99 84 71 57
100 100 100 88 81 88 84 70 48 36 48 76 62 42 38 30 32 35 31 34 38 50 48 50 48 66 50 62 90 98 93 53 54 74 90 100 100 100 100 93 81 60 56
100 100 100 100 92 81 64 74 66 88 69 50 46 50 39 41 35 30 46 40 44 57 57 54 58 54 94 90 96 64 68 55 57 86 100 100 100 100 100 89 57 47 46
100 100 100 100 95 100 100 100 100 100 100 98 70 69 34 32 28 57 57 72 56 79 66 77 60 78 82 87 76 66 98 72 68 85 93 100 100 100 100 77 46 42 41
100 100 100 100 100 100 100 100 100 100 100 94 60 72 69 99 73 64 54 89 78 87 64 90 83 73 90 66 73 69 74 83 87 89 100 100 100 95 85 48 45 43 46
100 100 100 100 99 92 96 100 100 96 93 89 94 99 97 88 88 67 92 82 100 96 72 100 89 100 74 65 53 66 72 91 99 100 100 100 100 84 69 49 46 41 44
88 94 100 100 100 100 100 99 100 86 98 100 98 100 100 99 100 90 78 100 100 87 85 73 100 94 98 83 92 59 75 97 100 100 93 95 100 68 53 52 46 42 46
100 98 87 74 98 100 100 100 90 100 100 100 100 100 95 100 87 91 99 91 100 68 88 83 97 100 93 89 79 97 96 100 100 100 100 99 87 54 50 48 43 41 42
100 100 100 100 78 85 85 100 95 100 98 100 100 100 89 98 100 100 100 100 91 85 97 100 100 92 100 100 100 100 100 100 97 73 92 88 59 50 45 40 43 42 42
100 100 100 100 100 100 100 100 100 100 100 100 100 100 99 100 100 100 100 100 100 92 100 96 100 100 95 100 100 100 100 100 80 86 74 62 50 40 38 41 44 42 46
99 100 100 100 100 100 100 100 100 100 100 100 100 100 100 100 100 80 71 80 98 100 100 100 100 100 100 100 100 95 96 79 77 74 63 45 35 33 36 36 34 35 40
100 100 100 100 100 100 100 100 100 100 100 100 100 100 100 100 100 100 87 100 82 100 95 56 100 88 100 100 68 60 52 88 67 55 40 31 32 29 24 26 28 31 31
98 100 100 100 100 100 100 100 100 100 100 100 100 100 100 100 100 100 100 100 90 100 100 100 87 96 88 65 80 66 53 44 34 33 29 28 24 22 24 25 30 34 36
100 100 100 98 100 100 100 100 100 100 100 100 96 100 90 100 68 69 60 92 96 63 97 100 100 99 92 56 43 38 33 28 25 24 21 20 20 22 23 27 29 32 39
100 100 100 82 98 100 100 100 94 100 100 74 99 100 82 81 66 98 98 92 100 100 98 88 97 83 65 61 31 24 24 22 20 18 17 18 20 24 28 32 37 38 40
98 100 100 100 100 100 100 83 97 100 86 56 100 100 72 100 100 80 100 100 65 71 78 100 92 80 86 26 23 21 20 19 16 16 19 23 28 32 36 38 42 46 53
100 100 100 100 100 100 90 100 100 100 100 100 100 90 100 100 97 95 87 100 100 73 70 81 68 48 25 22 22 19 18 16 19 23 27 30 32 36 39 43 52 55 62
88 95 99 100 100 100 100 100 100 99 100 100 100 92 100 91 96 92 92 95 92 84 83 67 23 24 23 19 19 18 18 22 26 25 26 27 30 34 37 45 51 58 74
100 100 100 100 100 84 100 100 100 100 100 100 97 100 100 82 80 90 50 72 63 42 26 26 26 20 19 19 19 23 25 24 21 23 27 28 31 35 41 49 59 73 94
97 86 88 94 87 84 100 100 100 100 100 96 80 88 93 60 70 65 24 23 22 25 26 20 18 19 20 22 24 24 21 22 26 26 32 34 36 42 63 92 96 100 100

GFSMA_250_rhum_081.txt.gz
RH
100 100 100 100 95 94 99 96 71 68 77 89 82 59 51 53 55 49 56 55 62 64 63 55 41 28 38 36 41 47 58 63 62 53 42 53 64 52 57 72 95 100 100
100 100 100 100 100 99 100 76 56 62 75 84 79 70 56 56 58 47 57 72 79 74 63 56 40 29 30 42 52 47 51 72 61 47 36 72 50 49 49 71 94 98 100
92 100 100 96 100 100 100 69 59 57 63 83 83 66 58 64 39 38 53 79 68 77 69 51 38 28 43 56 49 50 54 52 43 49 72 63 57 58 60 72 98 97 100
100 100 100 100 100 100 95 75 80 90 85 90 84 78 72 52 40 39 51 72 79 56 52 58 47 29 26 42 60 51 49 45 48 52 99 75 71 70 67 93 100 100 90
100 100 100 100 98 100 89 84 80 82 96 100 98 77 61 55 43 42 53 69 59 38 38 38 40 36 28 45 65 53 46 42 60 76 64 55 48 58 76 100 100 100 100
100 100 100 100 92 100 98 88 88 99 100 100 89 70 76 66 54 42 35 28 26 24 25 25 22 23 35 41 57 42 48 42 60 55 64 50 65 58 67 92 100 100 97
100 100 100 84 85 94 100 100 100 100 100 87 85 67 62 65 52 52 36 52 24 30 39 37 30 33 40 53 51 47 42 48 56 74 65 60 72 74 96 92 100 100 100
100 100 100 100 100 100 100 100 100 100 100 87 82 61 51 50 54 41 30 24 30 31 43 33 31 38 61 51 42 46 70 66 69 64 70 79 86 89 97 100 100 100 100
100 100 100 98 100 100 100 100 100 100 92 88 80 65 53 40 50 63 62 43 45 44 36 39 51 63 45 48 53 76 91 59 51 83 92 87 96 99 100 100 100 100 100
100 100 100 92 100 100 100 100 100 100 100 92 73 82 85 84 80 71 47 48 69 60 49 58 81 67 66 82 94 94 81 62 60 88 100 90 100 100 100 100 83 74 81
100 100 100 100 100 100 100 100 100 100 100 100 100 100 100 100 97 83 93 78 75 54 58 67 70 92 84 73 100 77 83 83 79 93 100 77 100 100 100 100 93 64 60
100 100 100 100 100 100 100 100 100 100 100 100 100 100 100 100 100 96 81 60 54 74 65 85 99 99 78 99 88 91 78 95 100 100 100 100 100 81 86 100 100 70 65
100 100 100 99 87 96 100 100 100 100 100 100 85 72 83 88 100 89 77 64 97 86 99 100 94 85 80 100 99 79 88 100 99 96 100 100 100 100 100 100 100 64 45
98 100 100 100 93 84 91 99 83 92 86 79 99 98 100 100 92 88 79 97 85 100 88 99 92 88 100 94 76 87 90 100 100 100 91 98 97 84 87 98 91 68 32
90 100 100 100 100 92 86 79 84 80 90 94 86 60 82 79 100 96 100 100 100 100 100 82 100 100 76 95 100 100 100 100 88 76 99 100 100 100 98 87 81 30 26
100 94 100 100 100 100 86 92 85 92 86 90 100 100 100 100 76 100 100 100 100 82 98 100 100 99 96 99 100 100 100 100 53 73 100 65 64 85 75 73 32 24 25
100 100 100 100 100 100 100 100 100 100 100 100 100 100 88 100 100 100 100 100 100 100 91 100 100 100 99 100 100 85 96 70 70 81 81 100 76 96 74 65 23 22 22
100 100 100 100 100 100 100 100 100 100 100 100 100 100 100 100 100 100 90 100 99 100 96 100 99 98 100 100 94 78 92 83 100 100 55 59 73 38 43 23 21 21 18
100 100 100 100 91 98 100 94 98 100 100 100 100 100 100 98 100 100 100 100 100 100 90 81 100 100 100 99 88 78 70 58 64 100 86 70 35 22 22 18 19 19 20
100 100 100 100 100 100 100 100 100 100 100 100 100 100 85 100 100 100 100 97 100 100 100 99 100 88 81 100 80 80 89 98 94 73 37 31 22 19 17 16 19 24 30
100 100 100 100 100 100 100 100 100 100 100 100 100 100 100 100 100 100 100 100 100 100 100 72 88 86 77 73 100 100 100 77 54 39 25 20 17 16 16 18 25 32 38
100 100 100 100 100 100 100 100 100 95 100 100 65 67 74 73 100 100 100 87 100 80 64 100 87 73 93 100 87 89 71 64 58 39 20 16 15 16 20 26 30 31 38
97 95 86 98 100 100 100 100 100 100 100 100 100 100 100 87 91 100 100 100 100 100 96 79 67 95 96 100 91 78 61 48 40 21 14 15 20 21 23 22 23 27 35
90 59 70 87 77 60 67 77 78 97 100 100 96 100 77 68 100 100 100 90 100 95 81 86 98 99 68 69 84 53 35 19 20 16 17 22 21 20 20 23 26 32 39
72 66 65 54 60 99 98 99 91 67 91 93 48 88 100 100 100 100 100 100 100 98 99 100 88 85 63 61 48 31 20 19 16 19 20 20 22 22 23 27 32 37 47
100 92 85 100 100 100 100 100 95 100 97 100 100 99 94 97 100 100 100 94 92 97 94 99 78 59 47 59 17 20 18 17 24 20 21 22 25 28 29 38 42 55 65

GFSMA_250_rhum_084.txt.gz
RH
92 89 87 85 100 100 100 100 100 85 76 74 62 63 65 68 73 75 54 59 53 36 58 65 72 71 66 56 46 43 36 33 29 46 55 35 38 36 45 55 74 96 100
100 100 100 100 100 100 100 90 98 95 100 95 65 59 56 66 79 85 67 58 54 38 37 57 76 77 44 34 31 26 26 25 32 34 47 40 41 40 47 62 75 76 93
100 100 100 100 100 98 77 100 100 100 100 84 73 74 64 72 92 84 69 65 51 43 44 58 63 55 39 23 24 27 28 30 37 37 44 34 50 44 44 78 99 82 99
94 100 100 100 100 99 100 91 100 100 100 68 68 66 76 91 100 100 98 77 60 58 55 45 37 32 24 22 22 27 32 32 29 44 42 54 57 57 57 86 80 98 100
100 100 100 100 100 100 100 100 100 100 99 92 69 85 77 92 100 100 92 75 67 63 51 43 39 40 29 24 26 32 27 32 35 43 62 52 66 55 100 100 97 90 96
100 100 100 100 100 100 100 100 100 98 99 66 64 81 98 100 100 100 96 84 78 72 55 45 31 30 30 36 32 32 35 41 49 49 83 63 59 81 79 100 86 99 100
100 100 100 100 100 100 100 100 100 100 100 86 94 98 100 100 100 100 98 88 83 68 55 41 36 25 27 27 38 39 51 65 55 59 100 79 87 92 98 94 93 74 61
100 100 100 99 100 100 100 100 94 95 100 97 100 100 100 100 100 100 97 86 69 63 46 31 24 27 33 39 46 50 55 72 55 89 94 72 82 88 100 100 99 79 90
100 100 100 100 100 100 100 100 100 100 100 100 100 100 100 100 100 100 100 89 69 49 37 29 28 43 43 60 55 55 54 58 62 87 88 54 68 100 100 100 95 89 86
100 100 100 100 100 100 100 100 100 100 98 100 100 100 100 99 100 99 84 62 46 45 33 36 39 40 81 86 78 44 55 44 72 84 100 80 70 98 100 100 100 90 88
100 100 100 100 100 100 100 99 91 85 95 86 100 100 100 100 97 76 75 61 67 61 66 61 55 74 83 82 56 53 73 67 91 77 91 92 78 100 100 100 100 94 56
99 94 100 98 100 100 100 100 100 100 99 94 94 100 100 100 100 100 88 91 82 76 67 62 52 72 68 71 54 63 79 94 100 77 100 91 100 100 100 96 100 100 99
80 90 100 100 100 100 100 100 100 100 100 100 100 100 100 98 89 90 92 85 90 78 72 66 74 85 74 96 61 69 70 76 78 96 99 97 100 100 98 99 67 76 95
100 96 80 78 80 100 100 100 100 99 100 100 100 100 100 100 100 100 96 93 96 73 68 74 98 84 82 68 66 82 71 84 90 99 94 90 100 100 71 42 78 100 76
100 100 100 100 97 94 98 90 99 100 100 100 100 100 100 100 100 100 92 100 68 94 94 85 100 100 75 69 64 61 92 100 100 86 96 100 98 84 71 79 95 80 79
99 100 99 100 99 100 100 100 87 96 92 100 100 100 100 100 100 100 100 83 88 100 100 97 90 100 82 93 87 86 91 96 98 100 100 100 80 74 74 87 75 77 65
100 100 98 98 85 92 85 91 100 89 100 100 100 100 100 98 99 96 100 100 82 100 100 100 99 100 95 98 93 98 90 85 100 100 100 100 91 94 96 92 82 52 41
100 100 100 100 100 100 100 100 100 100 100 100 99 100 100 94 99 94 97 100 99 100 85 100 100 96 94 100 100 94 98 100 100 100 100 80 48 91 100 79 77 37 20
100 100 100 100 100 100 100 100 100 100 100 100 100 100 100 100 100 100 100 100 100 100 98 90 100 100 100 98 90 86 100 100 100 86 82 100 100 100 84 54 42 21 18
100 98 100 100 100 100 100 100 99 100 100 100 100 100 100 100 100 100 100 100 100 100 100 100 100 100 77 78 98 100 100 96 61 84 89 94 87 84 70 69 45 15 14
100 100 100 100 100 100 100 100 100 100 100 100 100 100 100 100 100 99 98 100 100 90 100 100 84 98 86 100 100 97 56 43 97 74 96 100 73 65 84 34 22 14 16
100 100 98 100 100 100 100 100 100 100 100 88 85 100 88 98 85 100 100 100 90 100 100 100 100 100 83 66 100 100 91 77 75 66 99 89 80 84 58 29 14 16 17
100 100 100 100 100 100 92 100 100 100 100 100 87 100 100 100 99 100 100 100 96 89 89 100 83 100 100 100 84 78 100 60 74 95 78 92 80 77 33 16 16 17 18
84 80 100 100 100 100 100 100 100 100 100 100 100 100 100 100 100 100 100 100 100 100 100 100 100 100 100 99 92 81 92 91 90 99 95 59 59 47 16 16 19 18 19
100 93 100 100 100 100 100 100 100 97 99 100 100 100 100 100 100 100 100 100 100 97 88 83 100 84 55 72 92 96 100 100 100 95 57 51 31 18 16 20 20 20 25
86 72 58 56 60 62 56 53 72 90 100 100 81 100 100 100 86 81 82 74 99 98 47 50 56 66 100 100 99 92 100 100 98 70 37 22 20 19 23 22 25 28 30

GFSMA_250_rhum_087.txt.gz
RH
100 100 96 88 80 96 100 100 98 99 100 100 100 100 100 94 64 64 76 65 64 76 69 61 54 43 44 59 43 66 36 25 31 28 26 28 29 43 54 48 59 95 100
100 100 100 93 95 96 100 100 100 100 100 100 100 96 100 97 96 88 81 76 73 89 76 68 60 56 52 49 40 38 33 27 32 28 28 23 30 42 55 50 52 98 100
100 100 100 100 100 100 100 100 100 100 100 100 94 100 96 100 71 72 75 82 86 100 84 84 74 67 58 51 48 42 32 31 30 35 31 23 38 48 61 57 71 75 100
95 100 100 100 100 100 100 100 100 100 100 100 100 98 92 71 91 67 67 76 90 100 84 89 86 74 70 62 52 37 27 31 32 28 34 25 48 48 52 66 84 65 99
100 98 90 79 96 94 100 100 100 100 100 100 100 100 100 100 73 55 69 96 100 92 96 94 93 88 80 71 60 45 32 26 27 30 39 35 44 60 54 75 86 74 98
100 100 99 99 100 100 100 100 100 100 100 100 100 100 100 100 55 64 81 80 100 97 93 100 97 87 92 77 63 50 35 31 26 23 41 41 48 52 66 84 90 94 97
100 100 100 100 100 100 100 100 100 100 100 100 100 100 100 100 76 71 77 70 91 100 100 94 100 94 91 86 66 53 33 38 29 31 32 54 45 56 71 91 85 100 86
100 100 100 100 100 100 100 100 100 100 100 92 100 80 88 85 88 81 84 100 93 89 100 96 95 80 71 62 59 34 32 40 27 41 53 56 52 49 56 93 88 71 81
99 100 100 100 100 100 100 100 100 100 100 100 100 100 97 100 100 98 100 100 98 100 96 81 81 71 50 56 40 37 33 42 36 44 38 54 58 57 76 100 94 96 92
100 100 100 100 100 100 100 100 100 100 100 100 100 100 100 100 84 64 73 85 77 75 59 64 66 58 45 48 55 50 57 60 44 62 52 47 58 56 75 95 98 100 93
100 100 100 100 100 100 100 100 100 100 91 100 84 62 71 99 94 80 93 96 96 71 90 75 58 43 58 75 74 59 64 52 54 51 92 83 68 78 69 63 76 98 99
100 100 100 100 100 100 100 98 100 100 100 100 100 100 100 100 96 97 86 69 75 76 76 55 67 96 83 88 91 85 56 58 37 57 64 77 93 74 57 65 88 100 100
100 100 100 100 100 100 100 96 100 100 99 99 100 100 97 100 94 100 100 81 96 83 93 100 100 98 100 70 58 77 68 66 62 66 71 69 92 85 68 84 87 100 100
100 100 100 100 100 100 100 100 100 100 100 100 100 100 99 100 100 100 100 100 100 100 93 100 92 100 99 99 98 93 67 55 50 69 72 73 75 85 79 99 100 100 100
100 100 100 100 100 100 100 100 100 94 98 100 100 100 100 100 100 100 100 100 100 100 100 92 100 100 99 100 98 93 72 53 72 79 82 87 75 79 97 100 99 100 100
100 100 100 100 100 100 94 100 100 100 100 100 100 100 100 100 100 100 100 100 100 100 100 100 100 100 100 100 100 96 67 60 76 87 87 93 65 76 93 100 100 95 80
100 100 100 92 99 100 100 95 100 100 100 100 100 100 100 100 100 100 100 100 100 100 100 100 100 100 100 100 86 65 65 74 100 100 100 92 84 100 100 100 100 84 71
100 100 100 99 99 100 83 100 100 100 99 90 100 100 100 100 100 100 98 100 100 79 75 99 100 100 94 92 70 66 97 100 100 91 100 99 75 100 100 99 98 100 84
98 100 100 100 100 100 96 94 99 100 100 94 100 98 92 85 86 76 65 66 76 64 75 65 68 58 56 65 95 100 100 100 100 100 74 97 100 100 96 99 100 70 59
91 100 100 100 100 100 100 98 98 91 96 92 94 81 76 80 81 70 87 78 97 80 67 57 61 88 74 82 100 98 89 100 73 85 100 100 88 97 100 95 60 62 63
100 100 100 100 99 100 100 100 100 100 99 88 90 79 96 89 100 100 83 90 86 72 100 98 94 100 100 100 100 98 88 100 100 100 100 100 79 97 82 78 52 50 66
100 100 100 100 100 100 100 99 100 100 100 99 100 100 100 100 100 92 100 100 100 94 100 92 100 100 100 100 100 100 100 100 84 100 100 100 100 90 80 72 65 67 83
100 100 100 100 100 100 100 100 100 100 100 100 100 100 100 100 100 100 100 91 97 100 100 100 100 95 100 100 100 100 100 96 100 98 100 100 89 74 49 75 79 77 78
100 100 100 100 100 100 100 100 100 100 99 100 100 100 100 100 100 100 100 100 100 100 100 100 100 94 94 100 100 100 100 100 82 90 82 82 86 67 89 98 92 68 61
100 100 100 100 100 100 100 100 100 100 100 100 100 100 100 91 100 100 100 100 100 97 88 100 100 100 100 100 100 100 95 96 100 70 81 78 90 75 71 90 82 51 44
88 94 100 96 100 100 99 99 100 100 100 100 100 100 100 100 100 98 85 100 100 100 98 100 100 100 100 92 100 100 100 100 96 99 98 100 84 90 98 86 59 26 22

GFSMA_250_rhum_090.txt.gz
RH
100 94 98 94 99 100 99 98 88 89 98 100 100 100 100 100 100 100 93 62 83 83 83 83 86 86 71 72 68 62 62 56 50 38 38 36 33 24 21 25 27 36 58
100 100 98 96 100 100 100 100 100 100 99 100 100 100 100 100 100 100 100 81 63 54 79 86 76 99 88 82 72 81 79 68 66 53 47 40 35 27 21 25 31 38 67
100 100 100 100 100 100 100 100 100 100 100 100 100 100 95 95 100 100 100 83 62 65 97 80 80 98 83 90 90 95 83 68 76 66 61 54 39 28 23 24 36 32 41
100 100 100 100 100 100 100 100 100 100 100 100 100 100 100 100 90 100 100 92 70 80 87 72 90 92 90 99 86 93 98 90 77 82 77 53 41 31 23 24 42 49 48
100 100 100 100 100 100 100 100 100 100 100 100 100 100 98 100 100 100 96 89 83 52 60 73 76 77 71 89 74 54 47 77 62 76 65 40 37 32 27 28 40 44 62
100 100 100 100 100 100 100 100 100 100 100 100 100 100 100 100 100 96 93 75 54 48 60 74 74 84 77 77 60 48 47 54 60 64 56 41 39 36 25 29 46 51 64
100 100 100 100 100 100 100 100 100 100 100 100 100 100 100 98 100 100 100 87 73 70 73 79 69 64 64 90 64 51 48 77 56 38 44 37 43 37 30 35 37 33 40
94 100 100 99 100 100 100 100 100 100 100 100 100 100 100 100 96 92 100 85 65 85 100 95 83 69 72 61 68 42 44 39 60 41 38 53 48 52 40 36 37 36 46
100 100 100 100 100 100 100 100 100 100 100 100 100 100 100 100 100 99 100 100 87 72 95 68 60 56 64 55 60 45 48 43 62 54 70 61 53 79 48 42 44 43 40
100 100 100 100 100 100 100 100 100 100 100 100 100 100 100 100 100 99 85 68 70 63 68 52 59 57 65 70 44 60 66 70 61 89 74 68 57 60 53 52 47 49 35
100 100 100 90 99 100 91 100 100 100 100 100 100 100 94 95 100 100 100 74 100 71 41 80 100 100 100 90 66 81 89 100 100 76 90 68 72 93 75 55 57 44 50
100 100 100 96 79 91 92 92 100 92 98 98 100 100 86 84 94 97 100 86 57 79 84 88 98 77 56 52 78 87 93 81 80 73 98 87 83 100 73 59 55 48 57
100 100 100 100 99 91 100 84 94 99 98 86 100 87 96 100 100 100 100 100 99 82 100 53 50 62 75 72 86 82 89 79 91 95 85 98 99 67 64 62 63 59 40
100 100 100 100 100 100 100 100 93 100 100 100 99 98 100 100 99 100 100 100 99 99 99 86 67 90 81 61 87 89 97 98 100 93 86 87 93 66 64 55 46 65 49
100 100 100 100 100 100 100 100 100 100 100 100 100 100 100 100 100 100 100 100 100 100 100 100 100 98 100 100 99 100 100 100 82 100 78 76 82 89 70 52 47 75 100
100 100 100 100 100 100 100 100 100 100 100 99 100 100 100 100 100 100 100 100 100 100 100 100 100 100 100 100 100 100 100 100 100 96 90 88 78 63 53 70 62 95 100
100 100 98 100 100 100 100 100 100 100 100 96 100 100 100 98 100 100 100 100 100 100 100 100 100 100 100 100 100 100 99 92 92 88 100 80 53 49 48 88 97 91 94
100 100 100 100 100 100 100 100 100 100 100 100 96 100 100 100 100 100 100 100 100 100 100 100 100 100 100 100 100 93 100 100 85 92 70 81 78 57 72 71 88 100 100
100 100 100 100 100 100 100 100 99 100 100 100 99 100 100 100 100 98 100 100 100 100 100 100 100 100 100 100 93 83 87 86 69 82 67 62 46 52 81 100 100 100 100
100 100 100 100 100 100 100 100 100 100 100 92 98 92 79 89 100 100 93 64 63 66 88 85 86 100 97 91 74 62 57 38 59 66 62 93 71 94 100 100 99 85 85
100 100 100 100 100 100 99 100 94 100 98 94 89 94 99 90 82 71 91 81 83 70 72 62 62 63 59 52 46 50 51 79 70 95 98 100 100 100 100 99 76 100 100
100 100 100 100 100 100 100 99 84 89 100 91 86 85 89 76 74 87 86 79 82 76 65 68 53 66 46 53 55 76 84 100 100 98 100 99 91 100 100 100 100 100 92
100 100 100 100 100 100 100 100 93 96 91 99 100 86 74 87 98 100 100 100 94 90 91 90 92 100 88 100 100 100 100 100 100 100 100 100 100 100 100 79 100 92 77
100 100 100 100 100 100 100 100 100 100 100 100 100 100 88 100 94 100 100 99 100 100 100 100 92 100 100 100 100 100 100 100 100 100 96 100 100 71 100 96 99 95 89
73 78 88 94 90 100 100 100 100 100 100 100 100 100 100 100 100 100 100 100 100 100 100 100 97 100 100 100 100 100 100 100 100 98 100 94 100 100 98 100 98 100 85
74 64 58 58 62 80 94 88 95 81 97 100 100 100 100 100 100 100 100 100 100 100 100 100 100 100 100 100 100 100 100 100 100 99 99 100 100 100 96 92 98 80 99

GFSMA_250_rhum_093.txt.gz
RH
40 40 44 72 100 98 74 76 86 79 95 100 100 100 97 99 99 100 100 100 100 100 100 95 67 51 54 70 90 85 71 82 93 90 77 83 76 90 86 66 43 33 23
30 38 53 58 92 100 80 95 93 81 82 100 100 100 100 100 100 100 100 86 96 100 99 100 86 77 67 84 76 84 74 79 88 75 58 48 64 72 88 58 44 34 27
22 27 71 79 82 100 100 96 100 100 80 91 100 100 100 100 100 100 100 100 95 100 91 81 52 56 66 80 82 73 78 67 62 66 47 35 76 95 56 53 39 40 33
23 22 50 72 80 99 87 100 100 100 85 88 96 100 100 100 100 99 99 100 100 100 100 97 75 62 49 55 74 70 66 59 51 52 39 41 82 97 75 38 52 50 35
30 28 33 58 78 97 100 100 100 100 100 100 100 100 100 100 100 100 100 100 98 87 88 81 76 65 51 53 71 72 62 56 56 53 43 31 36 63 100 54 54 56 43
38 42 40 81 100 95 100 100 100 100 100 100 100 100 100 100 100 100 100 100 100 99 82 98 88 74 52 55 58 68 49 52 50 53 52 54 50 49 74 68 65 59 55
30 53 60 85 100 100 100 100 100 100 100 100 100 100 100 100 100 100 100 100 100 100 100 100 79 60 54 64 72 79 54 59 66 56 59 64 61 51 54 74 85 49 51
52 84 66 96 100 100 100 100 100 100 100 100 100 100 100 100 100 100 100 100 100 100 100 100 78 55 87 72 60 54 51 52 59 70 73 73 61 50 99 98 63 58 54
48 97 100 100 100 100 100 100 100 100 100 100 97 100 100 100 100 100 100 100 100 100 95 99 73 70 58 57 50 58 53 64 58 80 88 64 70 71 58 82 62 67 74
99 100 100 100 100 100 100 100 100 100 100 100 100 100 100 100 100 100 100 100 100 91 100 90 59 53 92 88 98 63 44 53 46 81 61 48 62 73 78 66 54 81 67
100 100 100 100 99 100 100 94 100 100 96 100 100 100 100 100 98 96 88 97 100 80 81 82 95 100 92 100 75 77 62 83 68 56 51 70 100 73 65 75 84 81 73
100 100 100 100 100 100 100 100 100 100 100 100 100 100 100 100 100 91 83 92 87 100 88 73 98 92 75 100 100 79 91 89 55 88 92 98 97 65 70 84 97 74 60
100 100 100 100 100 100 99 100 100 100 100 100 100 100 100 100 100 100 100 93 72 78 90 84 89 85 90 100 100 90 81 99 70 68 89 87 68 94 99 97 89 71 81
100 100 100 100 100 100 100 100 100 100 100 100 100 89 92 100 100 96 76 86 97 92 78 82 100 100 100 99 99 86 80 97 100 91 70 68 86 94 98 92 83 76 71
100 100 100 100 100 100 100 100 100 84 84 75 74 66 54 62 58 60 91 84 89 100 80 71 99 100 100 100 100 99 98 87 90 99 99 100 100 100 100 96 97 60 60
100 100 100 100 100 100 100 100 100 100 100 100 95 99 94 100 100 82 89 100 100 90 97 100 99 96 100 100 100 100 100 100 100 100 100 100 100 100 100 90 81 69 59
100 100 100 100 100 100 100 100 100 100 100 100 100 100 100 100 96 100 100 100 97 100 100 100 100 100 100 100 100 100 100 100 100 100 100 100 100 98 91 80 66 69 68
100 100 100 100 100 100 100 100 100 100 100 100 100 100 100 100 100 100 100 100 100 100 100 100 96 100 100 100 100 100 100 100 100 100 100 83 84 77 58 60 85 58 48
100 100 100 100 100 100 100 100 100 100 100 100 100 100 100 99 100 100 100 100 100 100 100 100 100 98 100 97 76 95 92 98 100 100 87 80 70 59 52 45 48 53 71
100 100 100 100 100 100 100 100 100 100 100 100 100 100 100 100 100 100 100 100 100 100 100 100 100 97 100 100 100 98 79 81 95 83 61 58 62 57 47 43 75 77 100
100 100 100 100 100 100 100 100 100 100 100 100 100 100 100 100 88 100 100 100 100 100 100 100 100 100 92 89 70 74 56 55 64 58 63 57 51 63 72 95 94 100 100
100 100 100 100 100 100 100 100 100 100 100 100 100 100 100 100 100 100 100 100 100 100 100 100 100 89 88 85 67 69 53 54 66 63 63 59 99 94 100 100 100 100 100
100 100 100 100 100 100 100 100 100 100 100 100 100 100 100 100 100 100 100 100 100 100 98 96 94 98 80 68 70 84 74 65 100 100 100 100 100 100 100 100 100 100 100
97 100 100 100 100 100 100 100 100 100 100 100 100 100 100 100 100 100 100 100 100 100 100 100 100 100 100 93 99 100 100 100 100 100 100 100 100 100 100 100 100 98 100
66 61 59 67 85 92 90 89 91 97 90 92 84 89 100 100 100 100 100 100 100 100 100 100 99 100 100 100 100 100 100 100 100 100 100 100 100 100 98 100 100 100 100
47 40 35 38 39 38 45 56 80 90 83 88 92 100 88 94 99 100 100 100 100 100 100 100 100 100 100 100 100 100 100 100 100 100 100 100 100 82 100 100 100 100 100

GFSMA_250_rhum_096.txt.gz
RH
46 52 46 43 68 80 50 58 73 76 84 71 73 82 93 100 100 100 100 96 100 100 99 100 100 100 100 74 48 50 60 72 73 81 63 66 64 64 34 42 100 99 100
26 46 98 74 47 54 54 34 61 75 89 96 82 82 94 95 100 100 100 100 98 100 100 98 96 100 100 100 82 54 48 51 63 66 65 61 59 61 36 31 38 83 98
32 99 100 92 69 47 43 49 34 51 78 98 100 92 100 100 94 91 100 100 100 99 100 93 100 100 100 72 72 67 56 56 66 67 71 60 50 53 70 46 40 39 73
27 28 99 57 42 31 22 42 49 58 60 84 95 100 100 100 100 91 89 100 100 100 100 99 94 95 100 98 61 58 70 64 67 83 77 49 49 52 65 63 61 39 43
25 23 30 39 44 31 26 21 62 99 92 75 92 88 96 100 100 100 98 100 100 100 100 100 100 100 98 96 70 60 58 60 66 85 68 51 43 62 61 54 66 60 66
24 28 34 41 44 34 28 41 100 100 99 84 84 100 100 100 100 100 100 100 100 100 100 100 100 100 100 80 64 75 58 54 57 59 58 45 43 78 87 88 88 68 59
22 24 33 53 67 36 27 37 81 100 100 95 100 97 100 100 100 100 100 100 100 100 99 95 100 100 100 100 72 62 53 57 55 49 51 47 51 81 70 51 77 46 41
24 28 25 38 55 52 30 44 56 89 69 100 82 100 100 100 100 100 100 100 100 100 100 100 99 100 86 90 88 64 52 45 47 51 47 69 61 54 52 66 56 37 71
24 27 26 26 41 53 52 46 82 100 100 100 100 100 100 100 100 100 100 100 98 100 100 99 86 100 99 98 86 78 58 48 48 77 84 81 44 60 85 57 43 66 93
32 32 22 30 36 39 56 69 98 100 100 100 100 100 100 100 100 100 100 100 100 100 100 100 91 91 81 96 85 86 90 99 94 100 94 71 84 73 67 68 41 83 80
29 32 26 41 32 47 75 100 95 100 100 100 100 100 100 100 100 100 100 100 97 100 100 100 100 89 98 99 100 77 84 88 100 68 100 100 86 72 64 70 74 74 72
34 27 36 34 38 46 81 100 100 100 100 100 100 100 100 100 100 100 100 100 100 100 100 100 100 100 94 99 99 96 86 52 68 73 51 56 80 88 88 90 90 85 93
29 24 22 44 50 63 100 100 100 100 100 100 100 100 100 100 100 100 100 99 100 100 100 100 100 100 100 100 100 100 100 61 70 73 90 94 100 98 100 100 85 81 100
17 29 50 93 100 100 100 100 100 100 100 100 100 100 100 100 95 100 100 100 100 100 100 100 100 100 100 100 97 96 95 77 65 52 61 57 70 83 100 80 89 100 100
32 51 100 100 100 100 100 100 100 100 100 100 100 100 100 100 100 100 100 100 100 100 100 99 94 80 86 100 98 90 98 99 98 100 91 98 100 100 85 100 100 100 96
85 100 100 100 100 100 100 100 100 100 100 100 100 100 100 100 100 100 100 100 100 100 97 100 79 69 89 86 68 82 59 81 72 100 100 100 100 99 99 81 85 79 100
98 100 100 100 100 100 100 100 100 100 100 100 100 100 98 94 90 89 77 72 63 75 78 86 66 63 78 68 84 100 81 93 100 100 100 100 88 100 100 100 99 89 94
100 100 100 100 100 100 100 100 100 100 100 100 100 100 100 100 100 100 100 100 100 89 97 91 100 100 100 86 79 91 100 100 100 100 98 100 100 100 100 100 94 77 67
84 100 100 100 100 100 100 100 100 100 100 100 100 100 100 100 100 100 100 100 100 90 100 100 100 100 100 100 100 100 100 100 100 100 92 100 100 100 100 98 93 86 66
100 100 100 100 100 100 100 100 100 100 100 100 100 100 100 100 100 100 100 98 100 100 100 100 100 100 100 100 100 100 99 100 98 100 100 100 100 100 99 88 59 66 57
100 100 100 100 100 100 100 100 100 100 100 100 100 100 100 100 100 100 100 100 100 100 100 100 100 100 100 100 100 100 100 100 100 100 100 100 97 72 66 57 69 67 52
97 91 100 100 100 100 100 100 100 100 100 100 100 100 100 100 100 100 100 100 100 100 100 99 100 95 100 100 100 100 100 87 100 93 82 64 78 68 68 58 54 72 66
99 100 97 95 100 100 100 100 100 100 100 100 100 100 100 100 100 100 100 100 100 100 100 100 100 100 100 100 98 96 95 95 63 81 85 85 94 86 98 97 88 99 100
66 62 67 72 76 87 83 87 96 100 100 100 100 100 100 100 100 100 100 100 100 100 100 100 100 100 100 100 100 100 100 100 100 100 100 100 100 100 100 100 100 100 100
66 66 72 72 67 67 64 60 50 49 80 96 100 100 97 98 100 100 100 100 100 100 100 100 100 100 100 100 100 100 100 100 100 100 100 100 100 100 100 100 100 100 100
55 52 48 45 44 42 43 49 46 48 45 34 35 59 70 68 87 86 92 94 100 100 100 100 100 100 100 100 100 100 100 100 100 100 100 100 100 100 100 100 100 100 100

GFSMA_250_rhum_099.txt.gz
RH
30 44 77 97 95 81 70 60 64 60 78 79 80 91 81 76 84 93 95 96 88 72 74 84 90 89 100 100 100 97 81 81 73 73 58 54 68 73 71 71 49 75 87
25 50 81 73 47 42 44 51 62 76 72 80 80 79 70 76 71 70 85 100 100 100 97 78 78 85 100 100 98 91 95 73 60 68 57 64 61 79 82 70 44 60 90
27 36 42 32 34 46 44 77 100 92 77 84 81 89 72 59 75 83 83 81 94 100 100 100 99 89 100 100 100 100 89 69 69 63 55 52 66 74 74 46 51 66 68
29 30 23 22 23 30 41 63 100 99 73 51 40 65 76 71 70 84 92 86 100 100 100 100 100 100 100 100 100 100 100 67 68 65 62 53 55 65 60 51 48 53 82
31 31 27 23 20 20 32 45 85 66 52 46 41 33 53 76 72 79 99 100 100 99 100 100 100 100 100 100 100 98 100 75 70 50 43 52 58 60 61 47 49 54 83
36 34 32 29 25 27 30 44 43 37 42 37 47 42 58 100 100 100 97 100 100 100 100 100 100 100 100 100 83 100 100 93 71 63 54 47 56 54 46 38 40 41 53
32 38 37 38 32 30 35 39 47 42 38 40 43 36 45 99 100 100 100 100 100 100 100 100 99 100 100 100 100 100 62 80 76 64 63 55 51 43 37 35 37 40 38
29 31 39 36 34 36 35 39 49 41 38 32 34 43 55 92 100 100 100 100 100 100 100 100 100 100 100 99 95 79 80 85 96 81 79 78 57 47 52 51 54 38 44
26 23 29 30 32 31 45 48 47 40 35 38 31 38 75 100 100 100 100 100 100 100 100 100 100 99 90 100 91 88 99 98 97 86 98 91 75 65 99 90 72 87 87
23 19 23 29 32 28 41 48 40 42 49 32 42 44 77 100 100 100 100 100 100 100 100 100 100 100 98 89 98 83 99 100 97 100 100 100 100 100 70 72 92 65 66
27 24 21 28 32 27 26 34 31 44 60 41 36 64 100 100 100 100 100 100 100 100 100 100 100 100 100 100 100 99 93 100 99 100 100 100 100 96 82 52 40 60 100
25 21 24 28 27 26 26 28 31 41 56 46 39 69 100 100 100 100 100 100 100 100 100 100 100 100 100 100 100 100 100 100 96 100 100 100 100 100 84 59 65 100 79
14 18 25 28 33 40 38 36 32 35 41 36 55 89 100 100 100 100 100 100 100 100 100 100 100 100 100 100 100 100 100 100 100 100 100 100 100 100 92 92 61 81 97
13 16 22 36 41 50 50 47 46 33 32 59 97 100 100 100 100 100 100 100 100 100 100 100 100 100 100 100 100 100 100 100 100 95 92 100 100 93 100 86 53 47 97
23 36 41 47 48 40 32 30 48 67 81 99 100 100 100 100 100 100 100 100 100 100 100 100 100 100 100 100 100 100 100 100 100 100 100 100 98 83 69 66 59 56 93
27 31 30 27 24 29 41 74 95 100 100 100 100 100 100 100 100 100 100 100 100 100 100 97 100 100 100 100 100 100 100 100 100 100 100 94 88 73 52 62 37 63 96
19 22 32 47 55 89 94 96 100 100 100 100 100 100 100 100 100 100 98 100 99 98 92 98 100 100 100 100 100 100 99 91 79 88 73 64 85 50 60 53 100 100 76
38 71 97 99 91 100 100 100 100 100 100 100 100 100 100 100 100 100 100 100 100 100 100 100 100 100 100 100 98 92 98 89 59 68 52 80 68 83 59 100 100 100 98
77 83 100 100 100 100 100 100 100 100 100 100 100 100 100 100 100 100 100 100 100 100 100 100 100 100 100 100 86 70 61 72 78 82 69 83 82 94 100 96 95 78 86
99 97 100 100 100 100 100 100 100 100 100 100 100 100 100 100 100 100 100 100 100 100 100 100 100 100 99 98 100 88 88 100 100 100 98 91 84 88 85 93 98 99 100
92 100 96 100 100 100 100 100 100 100 100 100 100 100 100 100 100 100 100 100 100 100 100 100 100 100 100 100 100 100 100 100 100 100 99 100 100 88 100 96 91 98 100
75 74 76 87 93 90 100 100 100 100 100 100 100 100 100 100 100 100 100 100 100 100 100 100 100 100 100 100 99 100 100 100 100 100 100 100 100 98 74 86 97 83 68
56 60 70 65 63 74 78 84 83 92 100 100 100 100 100 100 100 100 100 100 100 100 100 100 100 100 100 100 100 100 100 100 100 99 97 94 81 100 100 89 82 73 79
66 67 66 63 60 57 53 48 49 58 75 87 97 100 100 100 100 100 100 100 100 100 100 98 100 100 100 100 100 100 100 100 100 100 100 97 100 95 88 100 100 89 96
64 62 63 62 65 63 55 52 48 45 46 46 51 57 76 98 100 100 95 93 100 100 95 100 100 100 100 100 100 100 100 100 100 100 100 100 100 100 100 100 100 100 100
61 59 54 63 55 53 56 62 59 57 56 56 49 46 39 40 45 62 64 75 73 77 79 93 90 92 100 100 100 100 100 100 100 100 100 100 100 100 100 100 100 100 100

GFSMA_250_rhum_102.txt.gz
RH
35 30 44 37 40 57 52 77 100 97 68 53 55 71 73 85 97 98 90 89 100 98 100 100 98 92 73 68 78 73 98 100 100 100 84 74 70 65 61 47 59 71 92
30 46 28 31 32 32 40 49 94 75 60 60 52 69 86 89 90 98 100 94 90 95 91 99 98 100 98 91 96 86 87 100 100 96 100 80 66 63 57 44 58 60 73
47 56 67 62 52 34 38 42 81 67 47 50 47 74 96 95 100 100 100 100 100 100 94 84 82 80 88 100 100 99 87 100 100 100 88 72 57 59 64 54 62 75 80
53 58 58 61 57 53 43 36 41 35 31 41 51 50 97 98 81 62 79 93 96 100 100 95 86 91 99 100 100 100 100 100 100 100 100 78 50 59 66 56 64 66 61
34 33 41 55 66 56 55 46 38 35 31 34 42 49 78 84 69 49 43 46 52 88 100 100 98 100 100 100 100 100 100 100 100 100 100 91 59 54 68 61 57 55 51
27 29 51 49 51 57 44 55 57 42 37 36 40 38 47 44 45 50 51 48 64 100 100 100 100 100 100 100 100 100 100 99 95 98 83 76 59 63 61 72 70 57 42
17 22 31 52 58 63 57 48 47 52 51 38 34 40 36 38 46 50 46 52 94 100 100 100 100 100 100 100 100 100 100 99 90 88 99 73 72 72 82 80 82 62 48
13 17 29 37 38 64 58 45 46 44 44 49 44 40 44 41 38 39 43 47 94 100 100 100 100 100 100 100 100 100 100 100 86 80 90 69 90 80 100 89 64 82 76
10 13 18 23 28 34 54 49 43 38 38 50 53 44 39 53 48 35 38 40 49 83 100 100 100 100 100 100 100 100 100 100 99 89 72 98 100 89 100 99 100 99 90
9 11 16 18 19 21 22 28 41 42 32 45 51 52 45 52 48 45 36 42 59 100 100 100 100 100 100 100 100 100 100 100 94 88 100 100 100 100 88 93 100 100 100
8 10 12 13 15 17 19 23 26 28 35 46 52 44 46 52 55 40 48 52 56 100 100 100 100 100 100 100 100 100 100 100 95 100 100 100 100 100 100 100 100 100 100
9 12 14 16 19 23 21 24 32 36 36 38 49 50 56 60 67 50 52 55 72 100 100 100 100 100 100 100 100 100 100 100 92 99 100 100 100 100 100 100 100 100 100
6 9 18 22 24 28 29 32 32 38 45 44 46 61 55 51 58 64 66 62 74 100 100 100 100 100 100 100 100 100 99 98 95 100 100 100 100 100 100 100 98 80 82
8 10 15 23 28 30 34 38 44 46 44 54 48 50 53 62 70 64 62 60 94 100 100 100 100 100 100 100 100 100 100 100 100 100 100 100 100 100 100 100 96 100 100
8 10 11 12 12 13 14 13 15 19 29 34 38 46 49 54 59 52 46 67 100 100 100 100 100 100 100 100 100 100 100 100 100 100 100 100 100 100 100 100 100 100 100
9 9 9 9 10 11 13 18 24 30 47 55 68 66 55 47 37 42 71 100 100 100 100 100 100 100 100 100 100 96 100 100 100 100 100 100 100 100 100 100 100 100 94
11 12 13 14 17 21 34 44 49 59 61 60 61 59 62 71 92 100 100 100 100 100 100 100 100 100 100 100 100 100 100 100 100 100 100 100 100 100 100 100 100 100 85
16 14 18 21 26 40 56 60 78 70 76 74 68 89 100 100 100 100 100 100 100 100 100 100 100 100 100 100 100 100 100 100 100 100 100 100 100 100 100 100 100 100 82
67 63 50 47 52 60 81 99 78 74 89 99 100 100 100 100 100 100 100 100 100 100 100 100 100 100 100 100 100 100 100 96 100 100 80 72 100 100 97 99 84 70 69
84 89 99 98 98 100 100 100 100 100 100 100 100 100 100 100 100 100 100 100 100 100 100 100 100 100 100 100 100 100 100 100 100 98 90 99 100 100 100 99 75 50 64
77 84 90 91 92 94 100 100 100 100 100 100 100 100 100 100 100 100 100 100 100 100 100 100 100 99 100 100 100 100 100 100 100 96 100 100 93 88 82 68 62 54 64
72 76 84 85 77 72 98 93 90 100 100 100 100 100 100 100 100 100 100 100 100 100 100 100 100 100 100 100 100 100 100 100 100 100 100 100 98 99 98 98 99 87 82
48 48 45 46 48 48 52 56 55 59 64 78 94 100 100 98 100 100 100 100 100 100 100 100 100 100 100 100 100 100 100 100 100 100 100 100 100 100 100 100 100 100 100
53 52 48 44 43 41 44 47 45 44 44 42 42 49 68 84 90 97 100 100 100 96 97 100 100 100 100 100 100 100 100 100 100 100 100 100 100 100 100 100 100 100 100
55 58 64 65 64 62 61 61 62 63 61 56 50 48 45 44 43 48 58 62 80 93 100 100 98 100 100 100 100 100 100 100 100 100 100 100 100 100 100 100 100 100 100
65 64 64 66 68 67 65 64 65 68 67 64 65 67 62 60 58 56 51 51 42 41 47 61 80 95 97 97 90 100 100 100 100 100 100 100 100 100 100 100 100 100 100

GFSMA_250_rhum_105.txt.gz
RH
95 82 72 50 50 56 50 54 56 63 44 47 46 74 91 76 67 68 74 90 94 91 96 95 91 85 94 100 100 100 98 84 91 75 76 100 100 100 100 65 62 58 65
51 96 60 72 64 54 62 66 65 52 49 44 36 39 70 58 48 43 39 60 66 85 100 100 100 100 93 89 95 99 100 100 100 100 100 96 100 100 100 96 79 62 62
39 73 77 50 58 80 56 66 66 75 75 54 54 48 63 78 56 41 38 52 74 92 96 98 100 100 100 100 99 100 93 82 98 100 100 100 100 92 100 99 84 60 59
48 37 52 55 55 68 83 85 78 91 94 85 78 74 51 49 44 35 35 51 71 86 82 73 88 100 100 100 100 99 96 91 98 100 100 100 100 100 96 88 73 62 63
37 43 43 51 53 52 46 52 72 87 74 65 87 88 66 52 46 43 37 44 60 65 57 49 45 57 58 66 93 100 100 100 100 100 100 100 100 91 85 74 69 75 59
23 19 28 41 43 47 65 61 57 67 66 76 64 61 67 61 56 59 45 37 44 48 58 54 44 53 58 88 100 100 100 100 100 100 100 100 98 96 95 85 90 62 64
11 13 14 24 30 35 47 59 49 52 55 76 76 57 67 62 60 57 54 52 50 43 51 52 45 42 63 99 100 100 100 100 100 100 100 100 98 100 97 93 88 65 81
11 12 11 15 19 23 38 54 63 43 47 53 46 65 50 56 59 58 56 56 47 45 43 52 48 51 52 100 100 98 100 100 100 100 100 100 87 85 87 100 80 96 92
8 10 11 13 16 23 28 34 47 45 43 52 43 35 49 70 54 68 56 52 43 45 42 48 52 53 55 83 100 100 100 100 100 100 100 100 100 91 95 95 99 90 100
5 7 9 12 10 11 14 19 21 21 25 30 36 42 36 46 63 65 77 53 51 46 45 42 50 52 58 80 100 100 100 100 100 100 100 100 99 99 86 92 94 90 100
6 5 5 5 6 6 9 13 19 22 22 22 29 35 38 43 43 43 62 60 53 52 46 45 52 53 54 65 100 100 100 100 100 100 100 100 100 100 93 95 100 100 100
6 5 4 4 5 6 8 10 16 17 20 21 28 30 30 36 36 46 56 65 65 57 57 51 46 56 61 60 100 100 100 100 100 100 100 100 100 100 92 97 94 100 99
6 5 5 5 5 6 8 11 15 18 22 22 25 30 32 38 39 44 51 58 61 63 70 59 57 55 63 70 79 100 100 100 100 100 100 100 100 100 99 100 98 100 100
7 6 6 5 6 8 9 11 11 14 20 29 35 37 38 42 51 49 53 56 66 71 65 84 72 57 59 62 74 100 100 100 100 100 100 100 100 100 100 100 99 97 100
8 8 7 6 7 7 7 8 8 8 11 22 36 45 54 53 51 56 60 63 74 71 74 69 71 63 62 67 69 95 100 100 100 100 100 100 99 100 100 97 100 100 100
8 8 8 8 8 9 10 11 12 14 18 25 32 36 40 41 40 49 49 50 42 47 60 71 72 73 71 65 74 98 100 100 100 100 100 100 100 100 100 96 100 100 100
9 9 9 9 9 10 11 11 13 14 14 14 14 14 14 15 18 17 22 38 62 66 77 91 79 68 59 60 99 100 100 100 100 100 100 100 100 100 100 100 100 98 100
12 13 14 13 13 14 15 15 16 16 16 16 16 21 28 46 60 73 84 93 100 98 88 72 87 84 99 100 100 100 100 100 100 100 100 100 100 100 100 100 100 100 100
50 50 49 46 49 44 44 39 37 27 35 34 42 59 61 80 92 87 100 98 100 99 88 96 100 100 100 100 100 100 100 100 100 100 100 100 100 100 100 100 100 100 100
56 56 52 64 73 76 76 80 80 91 90 92 100 100 100 100 100 100 100 100 100 100 100 100 100 100 100 100 100 100 100 100 100 100 100 100 100 100 100 100 100 100 100
56 61 62 67 76 73 85 99 100 100 100 100 100 100 100 100 100 100 100 100 100 100 100 100 100 100 100 100 100 100 100 100 100 100 100 100 100 100 94 95 100 95 86
40 40 41 46 57 58 70 75 80 83 88 100 100 100 100 100 100 100 100 100 100 100 100 100 100 100 100 100 100 100 100 100 100 100 100 100 100 100 96 95 99 82 87
41 42 43 43 43 43 42 46 49 49 48 48 56 66 78 86 93 100 100 100 100 100 100 100 100 100 100 100 100 100 100 100 100 100 100 100 100 100 100 100 100 100 97
40 40 38 38 38 38 38 39 41 42 44 44 44 44 47 57 64 71 86 98 100 100 100 100 100 100 100 100 100 100 100 100 100 100 100 100 100 100 100 100 100 100 100
53 52 51 50 47 46 46 45 44 48 44 41 40 39 41 42 43 42 40 44 48 66 82 92 100 100 100 100 100 100 100 100 99 100 100 100 100 100 100 100 100 100 100
52 54 58 56 58 58 55 53 53 54 53 52 52 54 52 50 48 45 44 42 43 45 44 47 50 58 78 88 100 98 96 99 100 100 100 100 100 100 100 100 100 100 100

GFSMA_250_rhum_111.txt.gz
RH
65 52 47 50 58 57 52 68 82 81 68 71 74 71 68 93 82 65 61 48 46 47 39 42 69 68 62 48 59 84 85 82 81 85 88 89 88 89 100 100 100 100 100
81 78 73 63 56 51 56 60 52 62 66 63 69 64 63 65 93 87 81 75 58 54 55 48 45 59 61 67 41 42 66 86 94 99 93 89 96 98 100 100 100 100 100
82 79 76 72 67 65 62 54 56 49 49 65 59 50 49 54 57 73 77 91 81 81 59 67 69 56 64 54 46 37 36 68 92 85 84 88 98 91 97 100 96 96 100
45 44 49 49 44 45 47 59 59 64 55 48 54 50 51 40 46 54 60 65 81 99 89 77 66 77 62 59 54 46 38 45 69 78 59 52 56 74 99 92 84 99 100
33 28 36 38 30 29 31 34 38 35 51 58 50 55 69 43 38 43 52 60 55 79 91 100 88 80 88 83 58 61 44 40 47 51 54 57 45 51 55 73 66 100 100
19 20 20 19 17 19 21 30 41 35 41 47 42 39 46 62 54 43 54 46 49 53 79 100 67 69 82 87 90 84 66 50 41 43 53 58 53 41 47 59 90 89 100
12 16 15 12 9 9 15 19 20 22 22 26 26 40 42 42 50 53 81 87 61 56 59 89 92 84 63 88 100 97 90 66 52 50 51 58 65 62 42 69 84 100 99
7 8 8 6 7 7 9 9 12 15 14 15 17 19 25 34 39 46 60 88 82 68 67 76 88 98 94 82 90 100 91 89 75 66 59 51 65 75 57 55 66 99 100
6 6 5 4 4 5 7 10 9 8 11 17 15 11 13 19 37 37 39 50 92 81 85 63 81 99 100 100 93 81 98 96 94 94 87 58 54 69 74 63 62 64 98
5 5 6 6 5 5 5 6 6 9 10 13 14 12 10 13 18 22 32 33 40 57 80 62 60 63 97 100 100 100 91 100 100 87 83 84 59 59 73 71 60 55 85
4 4 4 5 5 5 5 6 6 7 6 7 8 8 8 10 15 19 26 37 38 41 47 48 50 59 54 89 99 100 100 83 87 76 85 100 81 58 65 79 78 57 57
4 4 4 4 4 5 6 6 6 6 6 5 6 7 6 7 9 9 12 24 30 37 37 34 37 49 50 54 77 86 94 100 90 82 85 84 84 73 74 77 87 75 65
3 3 4 4 4 5 6 6 6 6 6 6 6 7 8 8 8 8 8 9 10 11 13 17 24 33 44 47 50 67 84 94 75 78 77 76 92 87 81 79 77 89 100
4 4 4 4 4 4 5 5 6 6 6 7 7 7 7 8 9 9 9 10 11 9 11 12 17 26 33 33 33 47 65 74 65 65 68 73 86 74 71 76 92 95 100
5 5 5 5 5 5 5 5 6 6 6 6 6 7 8 8 8 7 8 8 9 8 10 10 11 12 15 21 28 39 52 62 59 64 66 77 80 82 87 85 97 97 96
7 7 7 7 6 6 6 6 6 6 6 7 7 7 8 7 8 9 9 10 10 9 10 10 13 16 17 24 28 35 48 63 55 62 71 83 89 98 98 100 96 100 100
10 9 8 9 9 10 10 9 9 9 9 9 9 9 10 11 11 12 11 13 12 10 11 13 16 16 18 21 23 27 31 39 47 60 76 92 100 100 100 100 100 100 100
21 19 15 14 14 14 13 12 11 11 10 10 11 11 10 11 12 12 13 19 31 19 13 16 16 14 14 15 18 19 22 31 40 53 72 90 98 91 89 91 95 100 100
58 59 58 53 44 36 29 22 19 18 18 19 21 19 17 14 14 14 17 22 37 42 23 26 25 17 19 20 24 34 48 49 50 54 54 50 42 40 40 50 75 99 100
37 36 40 46 47 49 51 47 46 50 54 45 39 33 31 31 35 21 23 30 24 33 31 37 50 29 38 39 49 62 54 50 56 58 68 82 79 90 95 100 100 100 100
54 52 49 44 40 38 37 38 38 36 42 48 43 48 53 52 54 64 58 53 54 64 63 47 47 64 56 60 60 77 84 93 100 100 100 100 81 95 91 92 95 98 100
41 40 37 36 35 36 41 42 41 40 38 37 35 39 45 43 42 49 56 58 62 57 58 54 51 64 59 83 83 86 92 100 100 100 100 100 100 94 100 100 100 88 86
28 26 25 25 24 24 26 28 30 29 28 30 34 36 35 35 37 40 44 52 44 54 54 55 78 81 96 72 75 88 92 100 100 100 100 100 100 100 100 100 100 100 100
32 33 29 25 20 16 14 13 15 17 20 23 26 29 32 34 35 38 41 43 44 42 46 56 47 61 87 87 100 100 100 100 100 100 96 100 99 100 100 100 100 100 100
35 35 27 21 19 16 14 12 10 10 12 14 14 14 17 21 24 27 31 37 41 41 40 41 45 51 55 59 67 99 100 100 100 100 100 100 100 100 100 100 100 100 100
23 21 15 14 14 14 13 12 9 8 7 9 11 11 11 12 13 15 17 18 29 36 34 36 39 46 50 54 61 58 74 86 100 100 100 100 100 100 100 100 100 100 100

GFSMA_250_rhum_114.txt.gz
RH
88 87 78 86 85 81 79 75 72 63 56 64 68 69 66 65 52 56 67 73 60 58 58 49 48 49 52 40 42 56 64 56 50 47 66 74 60 68 67 71 91 98 96
67 78 85 87 79 78 74 77 78 81 76 69 68 71 69 70 63 54 49 65 85 78 66 62 63 55 57 51 46 46 57 62 64 54 39 38 56 88 89 84 82 96 98
53 55 50 48 65 70 75 76 67 69 90 90 77 72 74 67 64 60 57 59 58 67 64 69 73 69 67 60 53 51 50 65 66 54 47 38 40 77 85 76 56 60 87
36 33 37 40 42 47 47 45 54 55 59 64 74 77 78 77 74 75 65 63 54 54 71 62 68 61 67 74 74 58 54 46 55 52 48 53 38 44 63 63 56 52 56
30 27 26 28 26 27 28 30 31 32 34 42 40 50 59 69 61 65 82 88 72 54 49 53 59 63 82 80 74 78 87 69 69 69 67 58 52 41 48 51 58 59 53
26 26 23 18 18 20 18 17 19 18 22 29 30 33 41 51 66 58 58 55 70 73 63 51 48 46 60 86 93 87 83 92 68 80 97 86 63 57 48 48 54 60 64
9 8 8 8 8 9 12 11 12 17 20 19 16 19 23 38 48 70 65 51 46 58 70 64 56 57 58 66 85 94 96 97 94 97 70 88 98 83 62 56 60 56 61
5 5 5 6 6 7 8 7 6 6 8 13 15 18 19 18 23 26 26 37 39 36 49 73 67 70 55 58 78 86 92 100 92 98 96 100 94 97 95 72 67 74 67
5 6 6 6 7 8 9 6 6 5 5 7 8 12 14 16 18 21 27 26 26 26 32 39 57 73 77 65 73 94 81 90 91 93 93 97 100 100 100 100 98 74 84
5 5 6 6 8 7 11 8 6 5 5 6 6 7 8 9 13 16 21 26 28 21 20 27 33 43 52 64 66 79 87 98 78 91 81 96 100 100 100 100 100 83 89
4 4 4 4 5 6 7 9 7 5 5 6 6 6 7 7 7 9 14 16 15 17 17 17 21 26 34 45 57 65 66 76 84 86 92 98 97 95 100 100 98 92 91
3 4 4 4 4 5 5 6 7 6 6 6 5 6 6 6 7 7 6 11 10 9 10 10 11 13 20 32 44 51 62 57 59 63 74 79 85 99 100 100 100 97 100
4 4 4 4 4 4 4 5 6 6 6 6 6 6 6 6 6 6 6 7 8 10 10 11 10 10 11 14 20 30 44 51 52 65 68 70 68 92 100 100 98 100 96
5 5 5 5 5 4 4 5 5 6 5 5 6 6 6 5 5 5 6 6 7 9 11 12 11 11 12 12 11 12 15 21 27 33 42 50 59 78 83 80 99 99 95
8 8 8 8 8 8 8 7 6 6 6 6 6 6 6 6 5 5 5 6 6 7 8 10 12 12 12 9 9 10 10 11 11 11 15 24 41 62 76 66 90 96 87
11 10 10 10 10 10 10 10 10 10 9 8 8 7 7 6 6 6 6 6 6 7 7 8 11 14 12 11 12 10 11 11 12 13 13 21 32 46 57 66 91 83 91
26 24 23 21 19 15 14 13 12 11 11 11 11 10 10 9 8 8 8 7 7 7 8 10 11 13 12 11 12 12 12 12 13 14 14 16 20 30 42 72 78 97 99
47 44 42 39 39 36 30 28 30 27 18 14 11 11 11 10 10 11 11 11 11 9 9 10 11 14 15 14 15 16 16 16 16 16 17 19 20 26 44 55 69 94 100
36 36 37 39 38 36 36 34 34 31 28 34 40 37 29 20 16 15 14 13 14 14 14 13 13 14 13 14 14 23 25 25 21 23 24 24 26 29 38 52 58 68 90
30 31 31 31 31 32 33 32 32 31 28 29 30 31 30 32 35 34 30 21 18 15 15 17 14 16 20 24 26 19 35 43 38 35 24 24 28 29 31 40 37 51 81
46 39 32 28 27 27 28 29 30 28 26 24 25 27 28 28 30 30 34 37 35 31 24 23 30 26 28 23 20 22 24 32 47 56 47 44 43 52 52 58 61 62 79
37 34 35 35 34 31 30 31 31 26 22 19 17 16 18 20 23 26 30 30 32 34 38 41 37 40 52 67 54 49 39 40 71 64 56 55 60 72 76 77 80 80 84
41 34 27 23 20 19 18 18 17 17 15 14 15 14 12 12 12 14 19 24 29 30 30 31 41 38 49 56 57 60 69 78 91 83 89 83 82 97 93 100 70 77 88
38 35 28 26 22 17 16 14 15 15 13 11 9 9 10 9 9 12 12 13 17 21 24 30 30 33 38 38 48 63 72 73 86 90 80 100 92 91 96 100 99 77 98
41 38 33 25 20 14 13 12 11 11 11 10 9 8 7 8 7 7 8 11 11 12 15 20 26 33 35 36 38 39 45 44 56 78 83 98 96 100 100 100 100 100 99
41 33 26 19 14 14 12 10 10 10 10 9 7 7 6 6 6 6 6 6 8 10 10 11 15 23 29 35 34 32 38 39 52 74 100 91 100 94 100 100 100 100 99

GFSMA_250_rhum_117.txt.gz
RH
90 92 85 87 95 90 94 86 78 81 83 86 77 74 76 74 72 76 76 64 63 46 49 55 71 78 80 67 56 51 48 48 47 41 42 61 62 59 46 47 49 53 73
55 49 57 70 81 90 97 90 77 77 80 68 59 76 71 71 76 77 78 77 83 80 71 56 52 52 78 91 82 84 76 58 50 49 45 55 67 64 61 44 43 52 68
47 43 42 47 47 42 49 56 56 53 58 63 60 60 73 76 87 80 75 89 89 87 85 73 76 62 57 67 74 73 80 71 72 61 53 58 70 77 75 59 55 49 54
34 34 33 35 36 37 35 38 45 45 44 50 60 59 58 58 62 77 74 77 89 95 89 89 91 85 69 61 64 66 65 85 82 77 74 66 67 72 76 69 59 56 50
29 30 27 25 21 22 26 26 26 28 34 32 32 39 40 48 49 45 48 57 74 72 91 96 86 84 84 81 68 60 58 63 69 73 81 79 68 70 77 72 82 75 67
21 21 19 18 16 14 16 14 14 19 22 23 21 21 27 26 31 38 43 44 48 54 52 49 72 87 81 94 87 84 78 61 63 67 74 92 95 96 93 89 86 81 79
7 7 7 7 7 6 6 8 8 9 9 10 10 7 8 12 15 22 27 34 34 40 43 45 44 49 72 70 79 87 99 89 69 70 72 78 85 99 94 99 100 90 94
7 6 6 6 6 6 7 7 7 8 8 6 7 7 6 9 11 17 20 21 25 23 28 40 43 54 55 60 66 70 59 84 96 92 84 75 81 88 96 92 98 100 94
6 6 6 6 6 6 7 8 8 6 9 10 9 5 8 10 10 12 14 14 16 17 15 15 24 37 43 45 49 54 72 64 62 81 99 100 88 85 99 93 89 100 98
4 4 4 4 5 5 6 6 8 8 8 10 8 6 6 5 7 10 12 12 13 13 14 14 14 15 19 23 29 33 43 50 49 47 51 84 100 100 100 87 99 100 100
5 5 5 5 4 4 5 5 5 6 7 8 10 11 8 4 6 5 9 12 12 12 14 13 13 12 10 10 10 15 29 40 44 47 51 58 70 96 100 100 100 100 100
7 6 5 5 5 6 6 6 5 5 5 6 8 8 8 7 5 5 6 9 14 14 13 10 10 10 10 9 10 14 17 15 20 30 41 56 71 70 85 96 95 100 100
8 8 7 6 5 5 5 6 7 7 7 6 6 8 8 8 7 5 4 5 6 10 17 18 17 13 10 8 8 10 10 11 12 15 19 26 38 72 81 81 90 94 100
12 9 8 8 8 8 8 8 8 9 8 8 8 8 7 7 7 6 6 6 6 6 6 7 9 10 9 7 6 7 8 11 12 14 13 13 15 18 30 59 84 77 88
22 18 14 11 9 8 8 8 9 10 10 10 10 10 9 8 8 7 6 5 5 5 5 5 6 6 7 7 6 6 7 9 11 11 10 11 12 12 14 21 32 41 52
29 29 27 25 22 20 18 16 17 17 17 17 16 14 13 12 10 9 8 7 6 6 6 6 5 6 7 7 7 8 8 8 8 8 9 11 12 12 14 14 15 18 22
32 30 29 29 29 29 28 26 25 23 21 20 20 21 19 17 14 12 10 9 9 8 8 8 6 6 6 6 6 7 8 9 8 8 10 12 15 15 15 15 16 16 17
33 32 32 31 31 30 28 27 27 27 26 26 26 23 21 19 17 16 14 12 10 8 8 11 10 9 8 9 9 9 10 11 11 10 12 13 14 15 18 18 17 17 18
48 43 42 37 33 30 26 23 22 22 22 24 27 27 26 23 22 22 21 19 17 16 14 11 11 10 11 12 12 13 13 13 15 14 14 15 17 21 18 16 18 19 22
52 46 44 42 39 36 30 28 29 26 22 20 20 19 18 18 19 17 16 16 17 17 18 20 24 23 16 12 14 15 17 18 20 22 25 32 28 30 25 18 20 20 23
64 59 53 48 44 42 35 33 31 27 22 18 16 15 15 15 13 12 13 14 13 13 15 17 21 23 24 29 21 19 18 20 22 23 40 48 42 36 34 34 33 26 28
82 72 64 56 48 38 32 30 27 23 20 18 18 15 12 10 10 10 8 8 9 10 10 11 14 18 23 25 29 36 35 25 23 30 29 34 56 58 69 74 83 64 36
86 80 71 66 56 51 41 33 28 21 17 16 14 13 11 10 9 8 8 7 7 7 8 9 11 12 15 17 24 30 39 42 35 35 31 39 31 41 71 93 97 97 78
83 80 69 59 50 46 40 32 23 21 16 12 10 10 9 8 8 7 7 8 8 7 7 7 8 10 11 12 16 22 30 34 49 58 46 64 47 66 71 80 93 100 100
72 68 63 54 46 40 31 28 23 16 12 10 9 8 7 6 6 6 6 6 6 6 6 6 6 6 8 10 11 12 20 26 35 54 42 62 72 64 76 85 86 90 77
62 61 58 52 43 34 31 29 18 13 10 9 8 8 7 7 6 5 5 5 6 6 5 5 5 6 6 7 8 10 12 16 28 37 42 46 72 62 78 86 93 100 100

GFSMA_250_rhum_120.txt.gz
RH
77 70 74 68 60 62 63 61 58 69 74 76 76 70 70 71 60 64 78 71 76 70 74 80 76 68 69 67 65 71 86 92 73 64 59 57 53 48 51 57 66 70 66
95 90 73 63 61 64 56 55 55 57 54 58 68 86 82 86 83 84 78 70 75 94 92 86 86 84 81 78 69 64 66 66 87 86 76 77 80 71 61 62 72 83 80
74 65 58 50 56 57 51 40 41 42 38 48 52 51 62 60 55 50 63 77 79 76 74 84 92 91 86 86 86 77 70 68 71 68 83 93 96 97 84 69 69 78 76
37 36 35 35 32 29 28 28 25 27 31 33 32 39 36 41 45 50 47 51 74 89 98 79 85 92 99 95 93 90 95 90 79 80 79 68 64 74 90 84 71 74 97
31 27 24 26 25 24 23 21 25 26 28 30 28 31 36 38 37 42 42 49 51 50 72 73 76 87 81 84 92 100 99 98 98 95 93 86 80 81 71 69 76 68 70
22 20 18 16 15 15 14 9 8 12 13 12 11 15 18 24 26 27 31 29 40 51 56 66 68 62 59 75 79 91 98 97 95 97 95 87 92 80 100 85 75 77 77
10 8 6 6 6 7 7 7 7 7 8 8 8 8 8 8 8 9 11 17 23 27 27 33 48 44 46 58 72 91 100 98 93 81 88 90 98 93 85 98 82 89 89
8 8 7 7 7 7 7 7 7 7 8 9 9 9 8 8 8 10 11 12 14 16 16 14 12 12 25 35 38 47 66 65 70 74 85 91 84 82 78 91 97 97 98
8 6 5 5 5 5 5 5 5 6 6 7 8 8 9 10 9 10 11 9 15 19 16 14 14 15 16 15 18 20 26 36 38 43 50 56 76 88 92 88 79 86 98
8 6 5 5 5 5 5 4 4 4 5 6 8 8 8 6 13 10 9 8 10 11 12 12 13 15 13 10 10 13 12 12 13 15 19 34 48 58 72 86 91 87 87
13 12 11 10 8 7 6 6 6 6 5 6 6 7 6 7 8 9 12 12 7 10 12 11 13 14 13 13 13 14 14 17 19 15 13 13 19 39 56 68 65 82 94
24 21 18 15 10 8 6 6 6 6 6 7 8 9 8 8 7 7 9 12 9 12 7 8 8 9 15 18 18 16 15 17 16 15 11 9 9 10 14 24 48 70 78
26 24 22 20 18 14 10 8 6 6 6 7 8 9 10 10 9 8 9 9 11 12 12 7 5 6 7 8 11 12 14 16 15 14 16 10 10 10 10 15 24 45 76
26 25 23 22 22 22 20 17 14 11 10 9 7 6 7 8 9 9 10 11 10 10 10 8 7 6 6 6 6 7 8 9 9 9 9 9 8 9 8 10 16 21 31
28 26 25 24 22 20 20 19 18 17 17 19 19 16 12 9 7 7 7 9 9 10 10 11 8 7 6 6 6 5 5 6 6 6 6 7 7 8 9 10 12 13 16
32 31 29 28 26 25 25 24 24 23 22 21 20 20 20 21 23 22 19 15 11 9 10 13 10 9 7 6 6 6 5 5 6 6 6 6 6 7 8 8 8 10 14
52 53 46 40 36 31 26 22 18 17 16 17 17 18 19 21 21 20 18 16 15 16 18 26 21 14 13 9 8 7 7 5 5 5 6 6 7 8 8 7 8 9 11
73 78 75 71 66 61 56 50 42 33 24 19 17 15 14 13 14 14 14 14 15 16 16 18 14 12 13 14 12 9 9 9 8 6 6 6 7 8 8 9 10 11 12
77 79 76 75 70 65 61 55 50 45 41 37 34 31 26 20 16 12 11 10 10 10 9 11 16 17 17 13 15 16 9 10 9 9 9 9 9 9 9 10 10 13 15
89 88 84 73 73 70 68 59 53 47 40 38 36 33 30 26 22 16 13 11 9 8 7 7 8 9 11 14 16 17 15 11 10 12 12 12 13 11 11 14 15 17 20
78 74 77 76 72 67 64 59 55 45 42 39 41 36 29 23 17 15 13 10 9 8 7 7 7 7 8 9 10 13 18 18 17 13 14 15 15 15 14 17 23 28 37
76 81 80 77 77 73 67 61 55 42 42 38 36 34 26 18 14 13 12 10 8 7 6 6 6 6 6 7 9 10 12 16 21 19 22 19 18 18 24 26 35 39 31
81 84 82 76 68 68 68 63 57 46 35 31 26 27 20 14 13 11 9 8 7 7 6 6 6 5 5 5 6 8 10 12 14 20 21 29 20 27 28 32 43 55 56
95 95 90 84 81 74 71 60 58 46 35 25 28 30 19 12 10 8 7 6 6 5 6 6 5 5 5 5 5 6 8 10 12 13 14 25 24 35 34 37 33 60 68
97 93 83 83 89 81 81 65 56 44 32 22 29 22 13 10 8 7 7 7 6 5 4 4 4 5 5 5 4 5 6 7 10 11 10 14 27 29 37 36 48 60 64
89 88 96 95 90 82 74 62 51 40 29 25 30 19 11 9 8 7 6 5 4 3 4 3 2 3 3 3 4 4 5 5 7 9 9 9 17 19 25 30 44 61 61

GFSMA_250_rhum_123.txt.gz
RH
71 70 63 66 69 74 74 78 79 74 76 70 61 65 70 60 55 52 51 45 61 74 80 72 74 81 84 79 76 79 84 86 81 76 75 68 70 69 65 62 67 73 67
50 52 57 57 54 51 57 67 72 83 86 74 69 73 68 72 65 60 57 60 55 60 64 68 76 75 77 84 97 93 83 81 85 84 83 80 76 83 81 76 77 80 82
43 41 44 45 43 40 36 38 41 42 49 58 58 62 63 61 67 61 58 58 53 52 66 84 94 98 97 95 97 86 96 99 94 86 85 85 77 79 89 91 84 85 99
31 33 40 40 39 32 28 24 25 28 29 30 30 31 37 40 43 49 46 42 46 49 52 57 64 62 63 98 100 100 97 86 89 90 83 85 91 99 100 95 94 93 81
20 21 20 16 15 15 13 15 16 16 17 22 26 29 29 30 33 34 34 42 42 46 54 53 62 73 70 62 69 88 100 99 100 100 98 96 88 78 77 98 99 97 97
11 10 9 9 9 8 6 6 7 7 7 7 8 8 8 9 10 14 19 26 39 40 44 48 49 52 51 56 69 70 85 78 79 98 86 100 100 94 88 86 89 95 98
10 10 10 9 9 8 6 6 7 7 7 7 7 7 7 8 8 9 10 11 12 18 21 27 46 52 64 59 58 57 66 86 89 95 78 94 99 100 95 100 94 97 94
12 11 11 11 10 8 6 5 5 5 5 5 5 6 6 7 8 8 10 9 9 10 12 14 16 17 19 19 19 21 32 58 84 98 100 100 94 92 100 100 99 92 94
14 12 10 9 8 7 5 5 5 5 5 4 4 5 5 6 9 9 10 12 8 11 12 13 13 17 15 16 13 12 14 20 25 33 32 52 56 96 100 100 100 100 97
14 14 15 16 16 17 13 10 9 8 7 6 6 6 6 6 7 10 11 14 12 9 13 15 15 12 14 16 16 14 13 13 12 13 13 14 14 16 42 70 79 84 92
28 26 27 25 24 23 20 16 12 10 9 7 6 7 7 8 7 7 10 11 14 12 10 12 18 13 14 18 17 16 16 17 16 14 13 12 13 13 15 15 26 46 65
35 33 29 28 27 26 23 22 20 17 13 9 7 7 7 8 9 10 10 10 9 9 8 9 12 14 11 10 9 10 14 16 17 19 17 16 17 17 16 16 18 21 39
32 29 28 28 28 26 25 24 23 21 20 18 16 10 8 9 9 9 11 12 12 13 12 10 9 8 8 8 7 6 6 7 13 12 12 13 16 22 17 15 15 14 20
39 36 35 33 31 29 26 27 26 26 25 23 22 20 19 18 15 11 11 14 15 17 14 10 9 9 9 9 8 7 6 6 6 6 8 9 12 14 12 12 12 12 11
40 40 40 35 34 32 30 28 27 25 23 22 21 22 22 20 18 18 17 16 17 16 15 16 14 10 8 7 7 7 7 6 6 6 6 6 7 9 9 10 9 8 8
60 60 56 55 58 59 58 52 48 44 42 41 38 32 25 23 22 22 22 23 24 24 25 27 20 19 13 12 10 9 8 8 6 6 5 5 6 6 6 7 7 6 6
73 71 72 72 68 64 62 58 57 56 53 50 48 44 40 38 34 26 18 15 15 16 18 22 25 23 18 14 13 12 10 9 8 7 7 6 6 6 5 6 6 6 6
70 75 81 80 74 71 69 59 55 51 51 48 40 39 38 37 38 39 40 36 31 21 15 15 16 16 16 17 16 13 12 12 11 9 8 7 7 8 7 6 6 6 6
78 77 76 79 81 74 71 64 63 56 55 52 46 39 38 35 34 34 37 41 40 31 19 14 14 10 9 10 11 12 12 11 11 12 13 12 11 9 9 8 7 6 7
100 90 88 80 82 83 78 71 65 59 60 52 45 41 37 35 33 35 36 39 32 25 18 15 14 12 10 8 8 8 9 10 10 10 10 14 15 14 10 8 10 9 8
92 90 83 85 88 79 78 74 71 66 59 51 48 46 39 33 29 29 30 26 20 16 12 12 11 10 9 9 8 7 8 8 8 9 10 11 13 18 17 13 9 9 9
92 89 88 85 74 73 73 77 74 67 61 58 50 45 42 40 32 29 29 23 17 14 12 10 9 8 7 6 6 6 5 6 6 7 8 11 11 13 18 23 17 11 11
85 85 80 82 72 59 57 60 55 58 57 52 47 46 42 33 31 27 25 19 13 10 9 8 7 6 5 5 5 5 5 5 5 5 5 8 8 12 12 20 25 21 17
92 89 96 86 67 62 60 54 48 44 47 46 40 36 37 31 28 25 20 14 10 8 7 7 7 6 6 5 4 4 5 4 4 5 5 6 7 9 11 12 22 28 22
92 93 97 74 70 60 59 58 51 43 48 47 40 35 34 32 28 23 16 12 9 8 7 6 5 4 4 4 4 3 3 3 4 4 4 5 6 7 8 10 14 28 29
86 75 73 78 64 62 58 50 50 44 38 46 37 30 31 30 25 17 12 11 9 8 6 6 5 5 4 4 3 3 4 4 3 3 3 4 5 6 7 8 10 17 25

GFSMA_250_rhum_126.txt.gz
RH
38 37 38 38 40 42 42 47 48 48 52 53 56 58 64 67 72 74 76 78 71 71 72 64 61 54 55 62 71 80 79 82 91 89 82 82 81 80 78 76 68 73 75
37 39 38 37 35 35 37 39 38 40 42 42 42 39 38 45 61 80 85 84 87 81 66 73 72 68 66 64 65 66 78 85 91 99 98 90 92 90 88 89 88 85 90
34 34 32 30 33 35 33 30 27 23 27 34 37 34 40 47 45 46 57 82 91 86 77 70 70 73 79 77 85 83 78 90 94 89 88 95 91 89 95 94 96 93 90
22 23 23 22 20 19 18 14 12 11 12 10 11 19 26 31 37 44 48 49 60 79 70 70 72 69 60 64 67 67 76 82 81 97 96 96 95 88 84 70 82 94 100
17 16 14 14 13 12 11 10 9 9 8 7 7 8 9 9 10 14 24 39 50 54 60 61 58 62 58 61 68 62 61 82 92 100 99 95 97 100 100 95 93 85 76
14 13 12 11 11 12 11 10 10 10 10 7 7 7 7 8 9 8 9 11 14 24 39 48 52 52 54 58 61 65 72 73 100 92 99 100 100 100 100 100 100 100 97
18 18 17 17 15 14 14 13 12 12 10 8 7 6 6 6 6 6 7 8 9 9 11 18 24 34 36 45 45 60 90 100 100 90 100 88 100 98 100 100 100 100 100
23 21 20 19 17 14 12 11 10 10 9 7 6 5 4 4 5 6 6 7 8 10 10 9 11 12 15 19 32 45 54 83 100 100 82 78 76 94 100 100 100 100 100
20 18 16 17 18 20 21 20 19 20 19 16 12 10 8 7 6 6 6 6 8 10 13 13 12 14 14 14 13 14 18 31 50 61 84 100 84 73 67 87 100 100 100
24 30 33 32 35 34 33 29 25 24 23 22 19 14 12 10 8 8 8 7 7 8 11 15 23 16 9 16 16 18 20 17 17 21 20 18 21 22 28 32 43 77 100
41 42 44 45 40 36 33 31 30 28 25 24 23 22 17 14 9 8 8 8 10 10 9 9 14 22 12 12 16 15 26 34 29 24 21 16 17 22 24 23 18 17 23
37 40 40 43 43 42 40 37 35 34 31 28 26 24 22 20 19 12 9 9 9 11 12 13 14 14 13 12 11 10 11 15 23 26 23 22 23 26 26 27 23 20 16
44 45 51 50 47 45 46 47 47 43 40 36 32 27 25 22 21 23 24 22 14 12 12 13 15 15 15 13 12 12 11 12 13 16 17 16 20 23 21 21 22 19 19
55 65 71 64 58 50 44 46 45 45 47 48 45 39 34 29 27 23 22 23 28 31 22 16 14 14 14 14 13 12 11 10 9 8 9 9 8 10 17 18 17 19 20
68 64 64 64 58 55 56 54 51 49 43 42 39 38 37 41 43 38 30 26 28 30 30 25 25 24 24 21 17 14 13 13 12 11 9 9 9 9 8 8 11 13 15
77 73 66 60 60 59 57 58 64 60 55 51 46 40 37 35 30 30 35 34 34 35 34 35 33 24 18 18 20 22 20 17 14 11 11 10 10 9 9 8 8 8 8
82 92 89 80 75 79 81 75 74 62 60 60 55 51 46 39 34 31 29 30 31 33 38 42 42 39 34 24 16 13 12 12 14 15 15 13 10 9 9 9 9 8 8
83 82 85 91 82 78 79 74 64 58 54 53 49 49 50 49 46 41 38 31 31 34 34 41 39 36 35 32 21 18 15 12 10 9 9 11 14 14 13 10 10 10 8
92 94 94 88 96 94 82 79 76 70 63 61 52 42 46 46 46 45 42 38 34 32 33 35 34 29 25 20 18 14 11 10 10 9 8 8 8 9 11 13 14 10 10
100 100 96 88 76 81 82 76 70 71 66 58 55 45 38 37 36 36 35 33 32 34 33 32 31 26 20 16 13 13 12 11 9 8 8 8 7 8 8 8 10 14 14
100 98 97 90 96 98 95 86 77 64 68 60 54 45 43 45 41 34 36 34 34 32 31 29 21 18 16 14 13 12 11 10 8 8 7 6 7 7 7 8 7 8 13
91 91 100 97 100 100 99 90 79 63 54 60 59 52 46 44 37 31 33 34 34 30 28 22 17 15 14 12 10 9 8 8 8 7 6 6 6 6 6 6 7 7 8
89 75 83 100 100 100 100 92 89 82 66 51 45 49 47 38 34 32 30 35 31 26 24 19 16 13 10 9 8 7 6 6 6 6 5 5 4 4 5 5 6 7 8
99 100 99 97 98 100 100 93 96 78 78 62 41 36 44 40 31 30 30 36 29 25 19 16 14 11 9 8 7 6 6 5 4 4 4 4 4 4 4 4 5 6 7
97 89 96 95 97 94 100 94 100 74 66 61 51 34 33 34 31 25 29 36 28 22 18 15 11 9 7 6 5 5 4 4 5 4 3 2 3 3 3 4 4 5 6
100 100 100 99 100 100 88 89 74 66 56 49 52 42 30 34 30 24 30 33 28 22 18 14 10 7 6 5 5 4 4 4 4 4 3 2 2 2 3 3 4 4 5

GFSMA_250_rhum_129.txt.gz
RH
44 42 40 38 38 40 39 37 35 33 32 33 35 35 34 36 38 45 50 58 76 83 80 68 62 68 69 70 65 61 72 76 72 70 74 79 78 84 90 88 80 77 78
37 36 33 32 32 30 28 27 26 26 28 28 27 26 30 34 32 31 34 41 49 66 87 87 88 91 87 84 88 84 81 78 86 79 75 73 81 91 88 88 96 94 88
22 22 22 22 21 19 18 17 16 16 16 16 17 17 17 18 19 18 19 23 32 54 67 78 72 77 94 96 99 100 95 86 92 100 90 83 84 87 87 90 94 94 89
13 13 13 13 13 12 12 11 11 10 10 11 10 11 10 10 10 9 10 10 14 22 53 96 99 98 93 94 100 96 100 100 99 90 98 93 94 91 86 87 82 75 71
15 14 14 14 15 16 16 17 17 16 15 14 14 12 11 9 8 8 7 9 10 10 13 76 53 97 90 91 92 86 100 100 70 80 92 96 85 92 100 98 94 100 100
16 18 22 23 22 20 20 20 20 20 20 19 17 15 13 12 10 8 7 7 8 8 9 12 26 51 76 82 76 79 90 100 100 97 88 100 74 98 96 100 100 100 100
25 23 21 20 20 20 20 21 21 20 18 16 14 13 12 11 9 7 7 7 6 6 7 8 11 9 12 47 44 74 84 92 97 91 95 100 98 100 81 100 100 100 100
22 21 20 19 17 16 18 20 21 23 24 24 21 21 20 17 14 12 12 8 6 4 5 6 8 10 11 12 11 18 54 66 74 77 81 79 79 78 97 100 94 97 100
20 20 24 30 32 30 28 31 31 32 32 32 29 28 25 22 17 15 15 13 8 7 6 5 7 11 12 13 13 13 13 20 28 38 50 65 76 82 96 100 100 99 91
29 36 34 32 31 34 34 36 39 40 40 39 36 33 31 28 24 17 15 16 13 10 9 10 9 10 11 11 14 17 14 15 15 20 22 27 34 40 47 100 100 100 100
36 33 32 37 42 47 54 58 56 55 57 54 49 44 43 39 29 25 18 16 16 15 10 9 12 12 12 14 15 14 13 14 20 22 20 20 19 21 26 28 45 87 99
38 44 46 48 57 65 65 60 54 54 52 47 42 37 35 34 38 34 28 22 16 16 16 13 10 11 13 14 15 14 14 14 14 16 19 17 21 21 26 34 40 36 33
50 47 48 50 55 57 57 55 55 54 51 48 45 43 35 31 28 28 32 29 27 22 21 20 18 17 14 13 15 16 16 16 16 18 17 12 14 17 30 37 38 34 32
56 50 52 54 60 64 64 63 63 63 64 60 56 52 48 43 35 30 28 27 27 31 23 19 25 25 25 24 21 17 16 17 19 18 18 17 16 12 12 13 17 19 24
58 62 66 76 77 90 93 78 76 75 65 63 64 62 52 48 44 38 35 31 29 28 26 25 24 24 26 26 26 27 25 23 21 19 16 15 14 14 13 11 11 11 13
77 87 100 98 88 78 75 77 73 66 65 65 58 57 51 46 47 46 40 44 37 33 44 36 29 28 26 25 24 25 28 30 28 24 22 20 17 13 12 11 10 11 11
100 100 100 100 100 98 98 89 83 79 96 93 84 61 54 55 49 44 43 39 39 40 40 36 42 41 34 34 32 28 23 20 20 20 19 16 15 15 13 11 11 10 10
99 100 98 94 91 90 100 98 95 100 100 100 92 80 66 52 47 46 41 38 38 33 37 36 32 38 39 36 30 30 32 28 24 18 14 13 12 12 11 12 12 11 11
100 98 78 80 97 98 71 75 87 90 100 100 87 77 66 58 55 51 45 45 37 35 34 34 33 32 36 35 29 24 23 23 20 17 15 13 11 10 9 8 9 9 9
69 72 81 89 82 73 89 99 98 100 100 95 85 86 75 64 62 59 51 42 44 32 29 32 31 29 31 34 31 29 28 21 18 15 13 13 12 11 10 8 7 7 7
83 88 87 96 100 100 100 100 94 87 94 92 97 97 82 62 50 44 45 41 40 36 26 28 34 27 26 28 24 23 20 18 15 14 12 12 12 10 9 8 8 7 6
72 72 94 96 100 88 86 84 91 100 100 100 96 88 59 64 55 46 42 42 37 33 26 27 31 24 26 26 23 20 17 16 16 15 13 12 9 8 7 6 5 5 6
69 78 93 100 100 97 96 98 91 99 100 93 91 89 70 61 48 37 35 34 34 30 28 26 25 23 26 22 20 17 15 15 14 12 10 8 7 6 6 5 5 4 4
88 84 99 98 98 94 98 96 87 98 98 100 100 89 76 58 40 38 38 34 34 29 25 24 23 26 24 20 16 14 14 12 10 8 7 6 6 5 4 4 4 4 4
84 100 100 86 82 85 82 87 96 96 100 100 100 91 70 40 34 36 36 37 31 22 20 20 23 22 18 16 15 14 11 9 7 7 6 4 4 4 4 3 3 3 3
85 84 84 81 90 92 98 92 96 93 96 99 88 61 45 39 35 34 36 31 24 19 18 23 22 17 16 15 13 10 7 7 6 6 5 4 4 3 4 4 3 2 2